[[[{"header":{"parameterUnit":"kt","parameterCategory":2,"dx":1,"dy":1,"la1":29.285339999999998,"la2":30.599998999999997,"lo1":-89.70041500000002,"lo2":-87.6738589999976,"nx":112,"ny":82,"refTime":"2022-10-13T12:00:00:Z","depth":0,"parameterNumber":1,"parameterNumberName":"U-component_of_WINDS"},"data":[16.8565,17.0012,17.113,16.8276,16.8276,16.8249,16.5817,16.5291,16.5028,16.4093,16.3475,16.341,16.4462,16.262,16.1437,16.2792,16.1042,15.9267,0.0,15.907,15.9398,15.9398,16.2818,16.5711,16.7197,17.1274,17.4232,17.5219,17.752,17.8637,17.8243,17.8637,17.9098,17.9624,18.0573,18.1362,18.1916,18.1916,18.1916,18.1916,18.1916,18.1916,18.1916,18.1916,18.1916,18.1916,18.1916,18.1916,18.1982,18.294,18.2771,18.1785,18.0215,17.8703,17.7378,17.6326,17.5997,17.5668,17.3827,17.3169,17.3169,17.3169,17.3169,17.3169,17.3169,17.3169,17.3169,17.3169,17.3912,17.4555,17.4368,17.5255,17.6191,17.601,17.6243,17.6499,17.6499,17.6499,17.6499,17.6499,17.6499,17.6499,17.6499,17.6499,17.6499,17.6499,17.6499,17.6499,17.6499,17.6499,17.6499,17.6499,17.6499,17.6499,17.6499,17.6499,17.6499,17.6499,17.6499,17.6499,17.6499,17.6499,17.7201,17.8601,17.9171,18.0714,18.3266,18.4499,18.5704,18.6946,18.766,18.7941,16.6369,16.7355,16.8144,16.5251,16.5251,16.5422,16.345,16.3384,16.3318,16.1897,16.2357,16.2752,16.1766,16.082,15.9965,15.953,15.9464,15.9135,0.0,15.9242,16.0557,16.1477,16.5119,16.8078,16.9525,17.3509,17.5641,17.472,17.7717,17.8966,17.7548,17.8835,17.9595,17.9595,18.1099,18.1916,18.1916,18.1916,18.1916,18.1916,18.1916,18.1916,18.1916,18.1916,18.2245,18.2677,18.2677,18.2969,18.3495,18.4387,18.4255,18.3232,18.1728,18.0544,17.9652,17.9126,17.8365,17.7219,17.5274,17.4024,17.3169,17.3169,17.3169,17.3169,17.3169,17.3169,17.3169,17.3169,17.4047,17.4821,17.4422,17.5386,17.6423,17.6036,17.6243,17.6499,17.6499,17.6499,17.6499,17.6499,17.6499,17.6499,17.6499,17.6499,17.6499,17.6499,17.6499,17.6499,17.6499,17.6499,17.6499,17.6499,17.6499,17.6499,17.6499,17.6499,17.6764,17.7429,17.7479,17.7803,17.845,17.8498,17.9396,18.1262,18.1308,18.2862,18.6022,18.6022,18.6733,18.7941,18.7941,18.7656,16.5488,16.4278,16.3621,16.0885,16.0162,16.0162,16.0162,16.1305,16.1897,16.0425,16.2398,16.3555,16.0754,16.0228,15.8913,15.4771,15.6505,0.0,0.0,15.7795,16.1477,16.4344,16.7263,16.9564,17.0972,17.4983,17.6326,17.3564,17.7257,17.9032,17.7613,17.8835,17.9595,17.9689,18.1164,18.1916,18.1916,18.1916,18.1916,18.1916,18.1916,18.1916,18.1916,18.1982,18.2743,18.4095,18.4095,18.4978,18.6228,18.6323,18.6228,18.6096,18.4715,18.4189,18.4152,18.2603,18.0235,17.7669,17.7538,17.563,17.3262,17.3235,17.3169,17.3169,17.3169,17.3169,17.3169,17.3196,17.4074,17.4926,17.4926,17.5699,17.6499,17.6499,17.6499,17.6499,17.6499,17.6499,17.6499,17.6499,17.6499,17.6499,17.6499,17.6499,17.6499,17.6499,17.6499,17.6499,17.6499,17.6499,17.6499,17.6499,17.6499,17.6499,17.6499,17.6576,17.7378,17.9301,17.9492,18.0342,18.2273,18.234,18.3192,18.5026,18.5067,18.5983,18.7941,18.7941,18.7941,18.7941,18.7941,18.7066,16.2266,16.1346,16.1148,16.0359,16.0162,16.0162,16.0162,16.1305,16.1897,16.0425,16.1634,0.0,0.0,0.0,16.17,16.1543,0.0,16.3673,16.1806,16.4436,16.7197,16.9065,16.9985,17.1038,17.2511,17.5603,17.7153,17.6392,17.8374,17.9426,17.9032,17.9426,18.015,18.123,18.1719,18.1916,18.1916,18.1916,18.1916,18.1916,18.1916,18.1916,18.1982,18.3006,18.3729,18.416,18.5176,18.5833,18.6294,18.7375,18.7178,18.6162,18.5767,18.7179,18.904,18.5409,18.3817,18.2898,17.8221,17.6103,17.5163,17.37,17.3169,17.3169,17.3169,17.3169,17.3251,17.363,17.4342,17.5006,17.5427,17.5985,17.6499,17.6499,17.6499,17.6499,17.6499,17.6499,17.6499,17.6499,17.6499,17.6499,17.6499,17.6499,17.6499,17.6499,17.6499,17.6499,17.6499,17.6499,17.6499,17.6499,17.6499,17.6499,17.6499,17.7827,17.8819,17.9396,18.0759,18.1783,18.2318,18.234,18.3192,18.5026,18.5067,18.5983,18.7941,18.7941,18.7941,18.7941,18.6781,18.6068,15.8636,15.7179,15.6768,15.7335,15.7467,15.7664,15.8256,15.999,16.1042,15.9596,0.0,0.0,0.0,0.0,0.0,0.0,16.3647,16.5054,16.2989,16.6803,17.0117,17.0972,17.2155,17.2945,17.3169,17.58,17.7219,17.6627,17.844,17.9595,17.9595,18.0215,18.1033,18.1916,18.1916,18.1916,18.1916,18.1916,18.1916,18.1916,18.1916,18.2245,18.2874,18.37,18.4781,18.5899,18.6783,18.7507,18.8069,18.8924,18.8792,18.8003,18.8003,18.9441,19.1088,18.7886,18.6767,18.6027,18.1116,17.8555,17.7242,17.5395,17.4428,17.3966,17.3966,17.3966,17.402,17.4315,17.4821,17.5348,17.5662,17.6088,17.6499,17.6499,17.6499,17.6499,17.6499,17.6499,17.6499,17.6499,17.6499,17.6499,17.6499,17.6499,17.6499,17.6499,17.6499,17.6499,17.6499,17.6499,17.6499,17.6499,17.6499,17.6499,17.6499,17.8303,17.9444,17.9444,18.1937,18.3471,18.3471,18.4282,18.5149,18.6271,18.6291,18.6849,18.7941,18.7941,18.7656,18.6942,18.5354,18.4284,15.5113,15.2876,15.1992,15.3463,15.3833,15.4245,15.5979,0.0,16.0187,15.9226,0.0,16.4147,16.1609,0.0,0.0,15.8017,16.1937,16.4502,16.1806,16.7289,17.1564,17.1564,17.3799,17.4917,17.3761,17.5866,17.6824,17.5876,17.8177,17.9689,17.9887,18.1164,18.1916,18.1916,18.1916,18.1916,18.1916,18.1916,18.1916,18.1916,18.2114,18.2874,18.4095,18.4452,18.5965,18.8362,18.8559,18.9318,19.0472,19.0472,19.0472,19.0502,19.0562,19.101,19.1404,19.0073,18.9088,18.7942,18.4668,18.181,17.9258,17.741,17.5989,17.4926,17.4926,17.4926,17.4993,17.4979,17.5374,17.5766,17.5777,17.614,17.6499,17.6499,17.6499,17.6499,17.6499,17.6499,17.6499,17.6499,17.6499,17.6499,17.6499,17.6499,17.6602,17.679,17.6815,17.6815,17.6815,17.6815,17.6815,17.6815,17.6815,17.6916,17.7169,17.894,18.0038,18.0038,18.3358,18.5351,18.5351,18.7023,18.7941,18.7941,18.7941,18.7941,18.7941,18.7799,18.6942,18.5354,18.3803,18.2304,15.3378,15.2109,15.2087,15.3919,15.4099,15.4771,0.0,0.0,0.0,16.4685,16.6698,16.792,16.7329,16.746,16.7421,16.654,16.9262,17.0933,16.9196,17.2155,17.4523,17.4523,17.5021,17.5706,17.6561,17.6101,17.6599,17.8637,17.9267,18.015,18.1427,18.1785,18.1916,18.1916,18.1916,18.1916,18.1916,18.1916,18.1916,18.1982,18.3137,18.3795,18.416,18.6491,18.7836,18.8427,18.9581,19.0239,19.0472,19.0472,19.0472,19.0532,19.1069,19.1661,19.2114,19.1106,19.0942,19.0417,18.4602,18.221,18.1023,17.6747,17.5192,17.4926,17.4926,17.4926,17.5006,17.5453,17.5662,17.5777,17.6243,17.6423,17.6499,17.6499,17.6499,17.6499,17.6499,17.6499,17.6499,17.6499,17.6499,17.6499,17.6499,17.6499,17.7043,17.8645,17.8819,17.8819,17.8819,17.8819,17.8819,17.8819,17.8819,17.9516,18.1081,18.2862,18.3981,18.3981,18.6152,18.7399,18.7399,18.7773,18.7941,18.7941,18.7941,18.7941,18.7941,18.671,18.5283,18.3731,18.2162,18.1234,15.1179,15.0798,15.1491,15.275,15.4129,0.0,0.0,16.1897,16.4751,16.5448,16.7947,16.9788,16.9038,16.8907,16.917,16.9854,17.1169,17.2643,17.4062,17.4917,17.5641,17.6364,17.5772,17.5904,17.735,17.6824,17.7257,17.9492,18.0347,18.1099,18.1916,18.1916,18.1916,18.1916,18.1916,18.1916,18.1916,18.1916,18.2311,18.3006,18.37,18.4847,18.6294,18.7704,18.8756,18.945,19.0173,19.0472,19.0472,19.0472,19.0472,19.0532,19.0861,19.1543,19.2289,19.1049,19.0759,19.0336,18.5547,18.2896,18.1104,17.794,17.6367,17.574,17.574,17.574,17.5818,17.6036,17.6088,17.6165,17.6448,17.6499,17.6499,17.6499,17.6499,17.6499,17.6499,17.6499,17.6499,17.6499,17.6499,17.6499,17.6499,17.7278,17.8303,17.9277,18.0225,18.0874,18.0874,18.0015,17.9756,18.0782,17.9968,18.0202,18.2185,18.4002,18.5067,18.5067,18.6888,18.7941,18.7941,18.7941,18.7941,18.7941,18.7941,18.7584,18.6781,18.5211,18.366,18.209,18.0449,17.9736,14.9225,14.9956,15.1343,15.1648,15.4495,0.0,15.8956,16.3249,16.6763,16.6237,16.8999,17.1235,17.0353,17.0156,17.0643,17.209,17.2287,17.3405,17.6627,17.6035,17.5772,17.689,17.6298,17.6298,17.7745,17.7876,17.8534,17.9952,18.123,18.1916,18.1916,18.1916,18.1916,18.1916,18.1916,18.1916,18.1916,18.1916,18.2677,18.4095,18.4357,18.5833,18.8362,18.8625,18.9384,19.0472,19.0472,19.0472,19.0472,19.0472,19.0562,19.0682,19.0801,19.1543,19.2434,19.0991,19.0236,18.9425,18.6139,18.3229,18.0682,17.8939,17.7531,17.6499,17.6499,17.6499,17.6499,17.6499,17.6499,17.6499,17.6499,17.6499,17.6499,17.6499,17.6499,17.6499,17.6499,17.6499,17.6499,17.6499,17.6499,17.6653,17.7018,17.8376,17.9637,18.0412,18.1803,18.2866,18.2866,18.1513,18.1149,18.2714,18.149,18.1331,18.3256,18.478,18.5644,18.5644,18.708,18.7941,18.7941,18.7941,18.7941,18.7941,18.7941,18.7209,18.564,18.4088,18.2304,18.0449,17.9094,17.8451,14.8429,15.0709,15.263,15.2269,15.5748,0.0,16.3022,16.568,16.8354,17.1567,17.2577,17.3301,17.4457,17.4627,17.5087,17.6496,17.6759,17.6496,17.5679,17.5416,17.5416,17.5547,17.6561,17.7811,17.9229,17.9361,18.0018,18.1588,18.1851,18.1916,18.1916,18.1916,18.1916,18.1916,18.1916,18.1916,18.1916,18.1916,18.2677,18.4095,18.5373,18.6849,18.8362,18.9647,19.0371,19.0472,19.0472,19.0472,19.0472,19.0472,19.0831,19.1425,19.1955,19.2662,19.3154,19.2223,19.1057,18.9318,18.4999,18.2384,18.0481,17.7665,17.6634,17.6499,17.6499,17.6499,17.6499,17.6499,17.6499,17.6499,17.6499,17.6499,17.6499,17.6499,17.6499,17.6499,17.6499,17.6499,17.6499,17.6499,17.6499,17.7068,17.8771,17.9277,18.0574,18.3938,18.4586,18.478,18.478,18.4545,18.4482,18.4759,18.4524,18.521,18.719,18.7494,18.766,18.766,18.7829,18.7941,18.7941,18.7941,18.7941,18.7941,18.7941,18.7209,18.564,18.4088,18.1752,17.8737,17.8523,17.8451,14.872,15.1387,15.3808,15.3492,0.0,0.0,16.4167,16.7803,17.1267,17.2895,17.4484,17.5866,17.643,17.6561,17.6759,17.735,17.8205,17.8177,17.6759,17.6561,17.689,17.7717,17.8374,17.9295,18.0836,18.0967,18.123,18.1916,18.1916,18.1916,18.1916,18.1916,18.1916,18.1916,18.1916,18.1916,18.1916,18.1916,18.31,18.5307,18.5899,18.7411,18.9581,19.0239,19.0472,19.0472,19.0472,19.0472,19.0472,19.0472,19.0891,19.1448,19.0823,19.1189,19.1876,19.0661,18.8988,18.6944,18.4262,18.1714,17.9341,17.717,17.6499,17.6499,17.6499,17.6499,17.6499,17.6499,17.6499,17.6499,17.6499,17.6499,17.6499,17.6499,17.6499,17.6499,17.6499,17.6499,17.6815,17.7958,17.818,17.8795,18.0782,18.196,18.3278,18.4842,18.6003,18.6772,18.6772,18.5764,18.5452,18.6604,18.5744,18.5844,18.7792,18.7941,18.7941,18.7941,18.7941,18.7941,18.7941,18.7941,18.7941,18.7941,18.7941,18.7209,18.564,18.4088,18.2162,17.9878,17.888,17.8451,14.9474,0.0,0.0,0.0,0.0,0.0,16.5717,16.9897,17.3491,17.3723,17.58,17.7482,17.7482,17.7811,17.7942,17.7548,17.8637,17.8966,17.7153,17.7548,17.844,17.9492,18.0018,18.0704,18.1851,18.1916,18.1916,18.1916,18.1916,18.1916,18.1916,18.1916,18.1916,18.1916,18.1916,18.1916,18.1916,18.2311,18.3729,18.6228,18.6652,18.8069,19.0472,19.0472,19.0472,19.0472,19.0472,19.0472,19.0502,19.0682,19.0865,19.0992,19.0108,18.9965,18.9937,18.8467,18.6362,18.3994,18.2585,18.0373,17.8,17.686,17.6499,17.6499,17.6499,17.6499,17.6499,17.6499,17.6499,17.6499,17.6499,17.6499,17.6499,17.6499,17.6499,17.6499,17.6499,17.6499,17.7094,17.9037,17.9444,18.0179,18.2692,18.417,18.523,18.5784,18.7042,18.7941,18.7941,18.6752,18.6408,18.781,18.6733,18.6428,18.7829,18.7941,18.7941,18.7941,18.7941,18.7941,18.7941,18.7941,18.7941,18.7941,18.7941,18.7228,18.5658,18.4088,18.2251,18.0235,17.9022,17.8451,0.0,0.0,0.0,15.8629,16.2052,16.5495,16.8796,17.184,17.4161,17.5066,17.643,17.7482,17.7482,17.8572,17.9098,17.7679,17.8637,17.8637,17.581,17.7783,17.9558,17.9595,18.0967,18.1916,18.1916,18.1916,18.1916,18.1916,18.1916,18.1916,18.1916,18.1916,18.1916,18.1916,18.1916,18.1916,18.1916,18.3334,18.4781,18.6228,18.7638,18.9085,19.0472,19.0472,19.0472,19.0472,19.0472,19.0472,19.0532,19.1188,19.0918,19.0239,19.0802,18.9686,18.7493,18.6112,18.3632,18.0883,17.9434,17.7933,17.6566,17.6525,17.6499,17.6499,17.6499,17.6499,17.6499,17.6499,17.6499,17.6499,17.6499,17.6499,17.6499,17.6499,17.6499,17.6499,17.6499,17.6499,17.7094,17.9037,17.9444,18.0621,18.4316,18.5026,18.5704,18.7622,18.7904,18.7941,18.7941,18.7885,18.7885,18.8013,18.7885,18.7885,18.8013,18.7941,18.7941,18.7941,18.7941,18.7941,18.7941,18.7941,18.7941,18.7941,18.7941,18.7156,18.5623,18.4035,18.168,17.854,17.8469,17.8451,15.2123,15.4735,15.7101,16.1881,16.5138,16.8121,17.2246,17.4074,17.5642,17.8264,17.888,17.9163,18.0272,17.9981,17.9163,17.7679,17.8637,17.9267,17.8309,17.9915,18.1164,18.1164,18.1653,18.1916,18.1916,18.1916,18.1916,18.1916,18.1916,18.1916,18.1916,18.1916,18.1916,18.1916,18.1916,18.1916,18.1916,18.34,18.4781,18.6228,18.7704,18.9151,19.0472,19.0472,19.0472,19.0472,19.0472,19.0215,18.9736,18.9329,18.8607,18.7643,18.5904,18.5035,18.453,18.3028,18.1821,18.0749,17.9341,17.8469,17.7866,17.6835,17.6499,17.6499,17.6499,17.6499,17.6499,17.6499,17.6499,17.6499,17.6499,17.6499,17.6499,17.6499,17.6499,17.6499,17.6499,17.7504,17.9013,18.0989,18.2292,18.3981,18.6526,18.6984,18.7228,18.7867,18.7941,18.7941,18.7941,18.7941,18.7941,18.7941,18.7941,18.7941,18.7941,18.7941,18.7941,18.7941,18.7941,18.7941,18.7941,18.7941,18.7941,18.7941,18.7941,18.6657,18.4107,18.3536,18.1609,17.8451,17.8451,17.8451,15.3485,15.6389,15.9135,16.5813,16.8409,17.0534,17.4977,17.6384,17.745,18.0022,18.0639,18.08,18.1061,18.077,17.9952,17.8468,17.9455,18.0215,17.9689,18.0967,18.1916,18.1916,18.1916,18.1916,18.1916,18.1916,18.1916,18.1916,18.1916,18.1916,18.1916,18.1916,18.1916,18.1916,18.1916,18.1916,18.1916,18.386,18.5307,18.6228,18.823,18.9581,19.0472,19.0472,19.0472,19.0436,18.9066,18.8204,18.765,18.6995,18.6094,18.4947,18.3296,18.2307,18.158,18.0548,17.981,17.9274,17.8335,17.8,17.7866,17.686,17.6499,17.6499,17.6499,17.6499,17.6499,17.6499,17.6499,17.6499,17.6499,17.6499,17.6499,17.6499,17.6499,17.6866,17.8278,17.9611,18.1035,18.2953,18.4232,18.5684,18.766,18.7941,18.7941,18.7941,18.7941,18.7941,18.7941,18.7941,18.7941,18.7941,18.7941,18.7941,18.7941,18.7941,18.7941,18.7941,18.7941,18.7941,18.7941,18.7941,18.7941,18.7941,18.7941,18.6728,18.416,18.3589,18.1966,17.9308,17.8737,17.8451,15.4825,15.8065,16.144,17.0156,17.1942,17.2645,17.706,17.8743,17.9638,18.0546,18.1768,18.2137,18.016,18.093,18.1324,17.9821,18.0836,18.1296,17.9821,18.0967,18.1916,18.1916,18.1916,18.1916,18.1916,18.1916,18.1916,18.1916,18.1916,18.1916,18.1916,18.1916,18.1916,18.1916,18.1916,18.1916,18.1916,18.4679,18.603,18.6228,18.9055,19.0406,19.0472,19.0436,19.0305,19.0036,18.6371,18.4808,18.4695,18.4413,18.344,18.2226,18.2749,18.1177,17.8737,17.8737,17.7799,17.6499,17.6499,17.6499,17.6499,17.6499,17.6499,17.6499,17.6499,17.6499,17.6499,17.6499,17.6499,17.6499,17.6499,17.6499,17.6499,17.6499,17.6602,17.7678,18.1399,18.2273,18.2888,18.4718,18.5128,18.5804,18.7679,18.7941,18.7941,18.7941,18.7941,18.7941,18.7941,18.7941,18.7941,18.7941,18.7941,18.7941,18.7941,18.7941,18.7941,18.7941,18.7941,18.7941,18.7941,18.7941,18.7941,18.7941,18.7941,18.7209,18.564,18.4088,18.2519,18.0949,17.9236,17.8451,15.7372,16.1886,16.553,17.2167,17.4215,17.5577,17.9296,18.057,18.1302,18.2663,18.2776,18.2543,18.2043,18.0988,18.0084,17.9661,17.9952,18.0084,17.9689,18.0967,18.1916,18.1916,18.1916,18.1916,18.1916,18.1916,18.1916,18.1916,18.1916,18.1916,18.1916,18.1916,18.1916,18.1916,18.1916,18.1916,18.1916,18.264,18.4087,18.6228,18.8033,18.945,19.0472,18.9384,18.791,18.6239,18.507,18.3986,18.291,18.216,18.0981,17.9601,17.8619,17.7799,17.7061,17.7061,17.686,17.6499,17.6499,17.6499,17.6499,17.6499,17.6499,17.6499,17.6499,17.6499,17.6499,17.6499,17.6499,17.6499,17.6499,17.6499,17.6499,17.6499,17.7628,17.894,17.9921,18.1309,18.2888,18.4718,18.6251,18.738,18.7867,18.7941,18.7941,18.7941,18.7941,18.7941,18.7941,18.7941,18.7941,18.7941,18.7941,18.7941,18.7941,18.7941,18.7941,18.7941,18.7941,18.7941,18.7941,18.7941,18.7941,18.7941,18.7941,18.7209,18.564,18.4088,18.2519,18.0949,17.9236,17.8451,15.4289,16.1283,16.7809,17.3039,17.5758,17.7745,18.0335,18.1144,18.181,18.3669,18.3233,18.2552,18.2683,18.176,18.0922,18.0667,18.1136,18.1333,18.0704,18.1953,18.264,18.1982,18.1916,18.1916,18.1916,18.1916,18.1916,18.1916,18.1916,18.1916,18.1916,18.1916,18.1916,18.1916,18.1916,18.1916,18.1916,18.1916,18.31,18.5307,18.6717,18.7836,18.8595,18.7347,18.5541,18.3229,18.2044,18.1117,18.0304,17.9374,17.8536,17.7732,17.686,17.6499,17.6499,17.6499,17.6499,17.6499,17.6499,17.6499,17.6499,17.6499,17.6499,17.6499,17.6499,17.6499,17.6499,17.6499,17.6499,17.6499,17.6499,17.6499,17.6688,17.7579,17.8645,17.985,18.1511,18.345,18.5087,18.6172,18.7247,18.7941,18.7941,18.7941,18.7941,18.7941,18.7941,18.7941,18.7941,18.7941,18.7941,18.7941,18.7941,18.7941,18.7941,18.7941,18.7941,18.7941,18.7941,18.7941,18.7941,18.7941,18.7941,18.7941,18.7941,18.7584,18.6638,18.4374,18.2893,18.1948,17.9522,17.8451,15.02,15.8937,16.8078,17.3106,17.6726,17.9408,18.0682,18.1151,18.1864,18.4043,18.32,18.2141,18.2556,18.2768,18.258,18.1882,18.3018,18.3355,18.1851,18.2874,18.3334,18.2114,18.1916,18.1916,18.1916,18.1916,18.1916,18.1916,18.1916,18.1916,18.1916,18.1719,18.1653,18.1653,18.1456,18.1324,18.1324,18.1324,18.1953,18.3174,18.465,18.5468,18.5716,18.4534,18.2849,18.0786,17.861,17.7673,17.7632,17.6856,17.6499,17.6499,17.6499,17.6499,17.6499,17.6499,17.6499,17.6499,17.6499,17.6499,17.6499,17.6499,17.6499,17.6499,17.6499,17.6499,17.6499,17.6499,17.6499,17.6576,17.6815,17.6891,17.7353,17.9349,17.9968,18.1172,18.4718,18.6791,18.7941,18.7941,18.7941,18.7941,18.7941,18.7941,18.7941,18.7941,18.7941,18.7941,18.7941,18.7941,18.7941,18.7941,18.7941,18.7941,18.7941,18.7941,18.7941,18.7941,18.7941,18.7941,18.7941,18.7941,18.7941,18.7941,18.7941,18.7941,18.7941,18.5016,18.3536,18.325,18.0164,17.8666,15.5004,15.9831,16.4232,17.2368,17.7531,18.0682,18.0883,18.1956,18.323,18.4243,18.2399,18.0917,18.2195,18.2995,18.2933,18.1117,18.1996,18.226,18.0272,18.1362,18.2245,18.1982,18.1916,18.1916,18.1916,18.1916,18.1916,18.1916,18.1916,18.1916,18.1916,18.0704,18.0018,18.0018,17.8863,17.8233,17.8233,17.8233,17.8337,17.86,18.0084,18.1656,18.325,18.036,17.8837,17.8436,17.7251,17.6706,17.6706,17.6541,17.6499,17.6499,17.6499,17.6499,17.6499,17.6499,17.6499,17.6499,17.6499,17.6499,17.6499,17.6499,17.6499,17.6499,17.6499,17.6499,17.6499,17.6499,17.6499,17.6866,17.8523,17.8892,17.942,18.1377,18.2949,18.4739,18.6965,18.7735,18.7941,18.7941,18.7941,18.7941,18.7941,18.7941,18.7941,18.7941,18.7941,18.7941,18.7941,18.7941,18.7941,18.7941,18.7941,18.7941,18.7941,18.7941,18.7941,18.7941,18.7941,18.7941,18.7941,18.7941,18.7941,18.7941,18.7941,18.7941,18.7941,18.6139,18.4588,18.325,18.1377,17.9807,15.2568,15.8199,16.3495,16.8547,17.4246,17.9073,18.0615,18.095,18.13,18.2414,18.1558,18.0944,18.2119,18.2689,18.2839,18.2326,18.3127,18.2948,18.0489,18.1825,18.248,18.0901,18.1456,18.1916,18.1916,18.1916,18.1916,18.1916,18.1916,18.1916,18.1916,18.123,18.0413,17.9595,17.8966,17.8271,17.7482,17.7482,17.7482,17.7482,17.8205,17.9172,18.0408,17.7904,17.6924,17.7117,17.6732,17.6499,17.6499,17.6499,17.6499,17.6499,17.6499,17.6499,17.6499,17.6499,17.6499,17.6499,17.6499,17.6499,17.6704,17.7703,17.8007,17.8204,17.9229,17.9563,17.9563,17.9563,17.9563,17.9708,18.069,18.0943,18.1445,18.3321,18.5169,18.683,18.7773,18.7941,18.7941,18.7941,18.7941,18.7941,18.7941,18.7941,18.7941,18.7941,18.7941,18.7941,18.7941,18.7941,18.7941,18.7941,18.7941,18.7941,18.7941,18.7941,18.7941,18.7941,18.7941,18.7941,18.7941,18.7941,18.7941,18.7941,18.7941,18.7941,18.7941,18.6424,18.4855,18.325,18.1662,18.0093,15.0759,15.706,16.3093,16.6267,17.1095,17.603,17.9676,17.9609,17.914,18.0279,18.0749,18.1087,18.1532,18.212,18.2733,18.3305,18.4161,18.3901,18.1427,18.275,18.3058,18.0545,18.1477,18.2259,18.2116,18.2116,18.2059,18.1916,18.1916,18.1785,18.1427,18.1307,18.0508,17.8966,17.8543,17.7847,17.6756,17.6645,17.6589,17.6589,17.67,17.7191,17.8087,17.6427,17.5985,17.6499,17.6499,17.6499,17.6499,17.6499,17.6499,17.6499,17.6499,17.6499,17.6499,17.6499,17.6499,17.6576,17.6992,17.7144,17.7429,17.942,18.0015,18.0319,18.1873,18.234,18.234,18.234,18.234,18.2428,18.2823,18.2932,18.3385,18.523,18.6868,18.7941,18.7941,18.7941,18.7941,18.7941,18.7941,18.7941,18.7941,18.7941,18.7941,18.7941,18.7941,18.7941,18.7941,18.7941,18.7941,18.7941,18.7941,18.7941,18.7941,18.7941,18.7941,18.7941,18.7941,18.7941,18.7941,18.7941,18.7941,18.7941,18.7941,18.7941,18.7941,18.671,18.5159,18.325,18.2019,18.0378,15.554,15.8759,16.1373,16.9553,17.1095,17.2008,17.7732,17.8939,17.8897,17.9006,18.0078,18.0615,17.9356,18.1367,18.3057,18.2533,18.3598,18.4053,18.274,18.3219,18.3369,18.2571,18.3124,18.3303,18.2675,18.2646,18.242,18.1974,18.1916,18.1296,17.9887,17.9132,17.8116,17.6635,17.5221,17.4401,17.4269,17.3809,17.3564,17.3564,17.4053,17.532,17.7197,17.6145,17.5985,17.6499,17.6499,17.6499,17.6499,17.6499,17.6499,17.6499,17.6499,17.6499,17.6499,17.6499,17.6499,17.6739,17.8547,17.9157,17.9492,18.1445,18.2074,18.2118,18.2296,18.234,18.234,18.234,18.234,18.2736,18.4358,18.4821,18.527,18.7266,18.7829,18.7941,18.7941,18.7941,18.7941,18.7941,18.7941,18.7941,18.7941,18.7941,18.7941,18.7941,18.7941,18.7941,18.7941,18.7941,18.7941,18.7941,18.7941,18.7941,18.7941,18.7941,18.7941,18.7941,18.7941,18.7941,18.7941,18.7941,18.7941,18.7941,18.7941,18.7941,18.7941,18.787,18.6229,18.3322,18.3179,18.1395,14.9083,15.4155,15.8467,16.1953,16.6377,17.0533,17.2905,17.4179,17.5318,17.7061,17.7195,17.7061,17.7397,17.9877,18.1836,18.1531,18.3149,18.4037,18.2679,18.3178,18.3277,18.2127,18.3023,18.3582,18.3331,18.2928,18.2618,18.2458,18.2429,18.177,18.0291,18.0216,17.9128,17.6835,17.6172,17.5443,17.4555,17.4368,17.4261,17.4261,17.4475,17.5139,17.6252,17.62,17.6294,17.6499,17.6499,17.6499,17.6499,17.6499,17.6499,17.6499,17.6499,17.7245,17.8254,17.8254,17.8988,18.0108,18.092,18.1195,18.1513,18.3385,18.396,18.417,18.5381,18.5704,18.5704,18.5704,18.5704,18.5863,18.6655,18.683,18.6984,18.7792,18.7941,18.7941,18.7941,18.7941,18.7941,18.7941,18.7941,18.7941,18.7941,18.7941,18.7941,18.7941,18.7941,18.7941,18.7941,18.7941,18.7941,18.7941,18.7941,18.7941,18.7941,18.7941,18.7941,18.7941,18.7941,18.7941,18.7941,18.7941,18.7941,18.7941,18.7941,18.7941,18.7941,18.7941,18.6372,18.3322,18.3322,18.1538,14.5107,15.0737,15.592,15.8065,16.3026,16.7852,17.0064,17.1095,17.2502,17.5829,17.5721,17.5184,17.5788,17.7933,17.981,18.0279,18.2441,18.3857,18.3094,18.3716,18.3763,18.2561,18.347,18.4135,18.397,18.3515,18.3096,18.2759,18.2475,18.1643,18.0022,18.0181,17.9194,17.676,17.6693,17.6161,17.5164,17.5006,17.4926,17.4926,17.5085,17.5453,17.5959,17.632,17.6499,17.6499,17.6499,17.6499,17.6499,17.6499,17.6499,17.6576,17.7169,17.8204,17.9516,18.0038,18.1149,18.2428,18.2975,18.3148,18.345,18.527,18.5903,18.6212,18.7603,18.7941,18.7941,18.7941,18.7941,18.7941,18.7941,18.7941,18.7941,18.7941,18.7941,18.7941,18.7941,18.7941,18.7941,18.7941,18.7941,18.7941,18.7941,18.7941,18.7941,18.7941,18.7941,18.7941,18.7941,18.7941,18.7941,18.7941,18.7941,18.7941,18.7941,18.7941,18.7941,18.7941,18.7941,18.7941,18.7941,18.7941,18.7941,18.7941,18.7941,18.7941,18.7941,18.7941,18.6372,18.3322,18.3322,18.1538,14.667,15.0155,15.4177,16.1417,16.2221,16.3183,17.0558,17.1027,17.1204,17.5561,17.6499,17.6056,17.4648,17.5561,17.7061,17.8603,18.1378,18.3579,18.435,18.5024,18.5159,18.4523,18.5024,18.5159,18.4495,18.4441,18.3947,18.2816,18.1911,18.0536,17.8557,17.8063,17.7208,17.5807,17.574,17.574,17.574,17.519,17.4926,17.4926,17.5479,17.5959,17.6499,17.6499,17.6499,17.6499,17.6499,17.6499,17.6499,17.6499,17.6499,17.6729,17.8669,17.942,17.9614,18.1603,18.2318,18.2604,18.4379,18.5047,18.5331,18.7323,18.7923,18.7923,18.8013,18.7941,18.7941,18.7941,18.7941,18.7941,18.7941,18.7941,18.7941,18.7941,18.7941,18.7941,18.7941,18.7941,18.7941,18.7941,18.7941,18.7941,18.7941,18.7941,18.7941,18.7941,18.7941,18.7941,18.7941,18.7941,18.7941,18.7941,18.7941,18.7941,18.7941,18.7941,18.7941,18.7941,18.7941,18.7941,18.7941,18.7941,18.7941,18.7941,18.7941,18.7941,18.7941,18.7941,18.6372,18.3322,18.3322,18.1538,14.2488,14.7026,15.163,15.4982,15.8534,16.2848,16.9193,17.0265,17.0265,17.1673,17.3617,17.4581,17.3173,17.5721,17.7866,17.733,18.0615,18.3404,18.3619,18.4691,18.5388,18.5132,18.5361,18.5388,18.5132,18.4686,18.4304,18.3919,18.3658,18.2353,17.9794,17.9889,17.8812,17.631,17.6243,17.6243,17.6243,17.6088,17.5985,17.5985,17.6165,17.6346,17.6499,17.6499,17.6499,17.6499,17.6499,17.6499,17.6499,17.6499,17.6499,17.6729,17.8693,18.0966,18.3315,18.396,18.5026,18.6271,18.6849,18.7023,18.719,18.7773,18.7941,18.7941,18.7941,18.7941,18.7941,18.7941,18.7941,18.7941,18.7941,18.7941,18.7941,18.7941,18.7941,18.7941,18.7941,18.7941,18.7941,18.7941,18.7941,18.7941,18.7941,18.7941,18.7941,18.7941,18.7941,18.7941,18.7941,18.7941,18.7941,18.7941,18.7941,18.7941,18.7941,18.7941,18.7941,18.7941,18.7941,18.7941,18.7941,18.7941,18.7941,18.7941,18.7941,18.7941,18.7941,18.6924,18.5301,18.3322,18.2233,18.0521,13.9806,14.4747,14.9887,15.2568,15.5116,15.8534,16.4433,16.6176,16.6914,16.8078,17.06,17.2435,17.1497,17.4044,17.5989,17.505,17.867,18.1982,18.3122,18.453,18.5469,18.5469,18.5469,18.5469,18.5469,18.5078,18.4486,18.3734,18.3323,18.2013,17.9463,17.9296,17.8469,17.6566,17.6499,17.6793,17.7397,17.6768,17.6768,17.7397,17.7933,17.7933,17.7397,17.7397,17.7061,17.6499,17.6499,17.6499,17.6499,17.6499,17.6499,17.6653,17.7852,18.069,18.417,18.5644,18.6926,18.7941,18.7941,18.7941,18.7941,18.7941,18.7941,18.7941,18.7941,18.7941,18.7941,18.7941,18.7941,18.7941,18.7941,18.7941,18.7941,18.7941,18.7941,18.7941,18.7941,18.7941,18.7941,18.7941,18.7941,18.7941,18.7941,18.7941,18.7941,18.7941,18.7941,18.7941,18.7941,18.7941,18.7941,18.7941,18.7941,18.7941,18.7941,18.7941,18.7941,18.7941,18.7941,18.7941,18.7941,18.7941,18.7941,18.7941,18.7941,18.7656,18.7066,18.6139,18.4498,18.2376,18.1448,18.0093,13.8465,14.3137,14.868,15.2971,15.2233,15.1943,15.782,16.0301,16.2087,16.486,16.7718,16.9729,16.9729,17.1095,17.2301,17.2502,17.5746,17.93,18.2518,18.4061,18.4932,18.5268,18.5268,18.5268,18.5268,18.5402,18.4557,18.2374,18.1531,18.0178,17.8047,17.7087,17.6634,17.6499,17.6499,17.7195,17.8696,17.733,17.7464,17.9006,18.0212,18.0145,17.9032,17.8897,17.8067,17.6634,17.6592,17.6499,17.6499,17.6499,17.6499,17.6525,17.6678,17.9013,18.2801,18.6597,18.7941,18.7941,18.7941,18.7941,18.7941,18.7941,18.7941,18.7941,18.7941,18.7941,18.7941,18.7941,18.7941,18.7941,18.7941,18.7941,18.7941,18.7941,18.7941,18.7941,18.7941,18.7941,18.7941,18.7941,18.7941,18.7941,18.7941,18.7941,18.7941,18.7941,18.7941,18.7941,18.7941,18.7941,18.7941,18.7941,18.7941,18.7941,18.7941,18.7941,18.7941,18.7941,18.7941,18.7941,18.7941,18.7941,18.7941,18.7941,18.787,18.7066,18.564,18.5426,18.3785,18.0949,18.0859,17.995,13.7258,14.0878,14.5304,14.8613,15.1496,15.4781,15.954,16.1752,16.2959,16.3696,16.6176,16.8254,16.8254,17.0424,17.2972,17.5117,17.3508,17.3843,17.9166,17.914,17.9877,18.339,18.3792,18.3792,18.3792,18.4798,18.4275,18.1503,18.2171,18.1527,17.8757,17.8418,17.7732,17.6499,17.6499,17.6701,17.7061,17.7866,17.9006,18.0481,17.9676,17.9743,18.0414,17.9341,17.8603,17.8201,17.7061,17.6499,17.6499,17.6499,17.6499,17.6678,17.8155,18.0202,18.2801,18.6597,18.7941,18.7941,18.7941,18.7941,18.7941,18.7941,18.7941,18.7941,18.7941,18.7941,18.7941,18.7941,18.7941,18.7941,18.7941,18.7941,18.7941,18.7941,18.7941,18.7941,18.7941,18.7941,18.7941,18.7941,18.7941,18.7941,18.7941,18.7941,18.7941,18.7941,18.7941,18.7941,18.7941,18.7941,18.7941,18.7941,18.7941,18.7941,18.7941,18.7941,18.7941,18.7941,18.7941,18.7941,18.7941,18.7941,18.7941,18.7941,18.6781,18.6015,18.5605,18.3232,18.1716,18.0949,17.9664,17.8808,13.6855,14.0543,14.4835,14.6447,14.9195,15.2501,15.6255,15.8199,15.9473,16.0143,16.2624,16.5104,16.6536,16.7541,16.9284,17.288,17.2612,17.3307,17.7195,17.8805,18.0279,18.2049,18.3457,18.3994,18.339,18.3994,18.3524,18.1151,18.1177,18.0239,17.7866,17.7732,17.7397,17.6499,17.6499,17.686,17.7598,17.9073,17.9877,18.0011,18.0641,18.0883,18.095,18.0145,17.9434,17.8737,17.7195,17.6499,17.6499,17.6499,17.7043,17.7909,17.8988,18.1149,18.3833,18.5863,18.7228,18.7941,18.7941,18.7941,18.7941,18.7941,18.7941,18.7941,18.7941,18.7941,18.7941,18.7941,18.7941,18.7941,18.7941,18.7941,18.7941,18.7941,18.7941,18.7941,18.7941,18.7941,18.7941,18.7941,18.7941,18.7941,18.7941,18.7941,18.7941,18.7941,18.7941,18.7941,18.7941,18.7941,18.7941,18.7941,18.7941,18.7941,18.7941,18.7941,18.7941,18.7941,18.7941,18.7941,18.7941,18.7281,18.6924,18.6924,18.5373,18.4231,18.3464,18.1805,18.0592,17.9807,17.888,17.8451,13.7123,14.1147,14.5371,14.5844,14.6983,14.868,15.1429,15.3172,15.4646,15.6054,15.8736,16.1641,16.4457,16.4433,16.5037,16.8321,17.1539,17.4179,17.5653,17.9341,18.1714,18.1017,18.3431,18.4664,18.339,18.3524,18.2787,18.0816,17.9743,17.8402,17.6592,17.6499,17.6499,17.6499,17.6701,17.7531,17.8805,18.0011,18.0145,17.9233,18.1982,18.2585,18.1285,18.1285,18.0682,17.9434,17.7866,17.7195,17.7221,17.7285,17.8222,17.9741,17.9845,18.196,18.5067,18.5067,18.631,18.7941,18.7941,18.7941,18.7941,18.7941,18.7941,18.7941,18.7941,18.7941,18.7941,18.7941,18.7941,18.7941,18.7941,18.7941,18.7941,18.7941,18.7941,18.7941,18.7941,18.7941,18.7941,18.7941,18.7941,18.7941,18.7941,18.7941,18.7941,18.7941,18.7941,18.7941,18.7941,18.7941,18.7941,18.7941,18.7941,18.7941,18.7941,18.7941,18.7941,18.7941,18.7941,18.787,18.7584,18.6353,18.5497,18.5283,18.3731,18.2304,18.0949,18.0949,18.0235,17.8808,17.9094,17.9165,13.833,14.1147,14.4365,14.6938,14.7742,14.8412,15.0066,15.163,15.3105,15.4579,15.7261,15.9831,16.1484,16.4702,16.6469,16.4567,16.7852,17.1095,17.2637,17.4514,17.6994,18.0548,18.2585,18.3524,18.3323,18.4396,18.3457,17.9434,18.0078,17.9408,17.6634,17.6499,17.6499,17.6499,17.7799,17.8603,17.883,17.9006,17.9676,18.0682,18.2451,18.3189,18.2921,18.2921,18.2854,18.2518,18.095,18.0279,18.0276,18.0626,18.0948,18.1271,18.1723,18.3192,18.5067,18.5067,18.631,18.7941,18.7941,18.7941,18.7941,18.7941,18.7941,18.7941,18.7941,18.7941,18.7941,18.7941,18.7941,18.7941,18.7941,18.7941,18.7941,18.7941,18.7941,18.7941,18.7941,18.7941,18.7941,18.7941,18.7941,18.7941,18.7941,18.7941,18.7941,18.7941,18.7941,18.7941,18.7941,18.7941,18.7941,18.7941,18.7941,18.7941,18.7941,18.7941,18.7941,18.7941,18.7941,18.737,18.6052,18.5801,18.4997,18.3678,18.209,18.1234,18.0949,18.0949,18.0806,18.0663,18.1948,18.2537,13.9604,14.3024,14.6221,14.7608,14.8546,14.9262,14.9932,15.1295,15.2591,15.3239,15.5719,15.8199,15.9674,16.2892,16.5171,16.4634,16.6267,16.8078,16.962,17.3106,17.6592,17.9475,18.2585,18.4128,18.339,18.3122,18.2157,18.0145,17.9073,17.8,17.6566,17.6499,17.6499,17.6499,17.7195,17.7598,17.7598,17.9207,17.9944,17.981,18.2183,18.3323,18.3323,18.3323,18.3323,18.3268,18.2785,18.255,18.2659,18.3997,18.5058,18.5937,18.5329,18.6182,18.7829,18.6958,18.7228,18.7941,18.7941,18.7941,18.7941,18.7941,18.7941,18.7941,18.7941,18.7941,18.7941,18.7941,18.7941,18.7941,18.7941,18.7941,18.7941,18.7941,18.7941,18.7941,18.7941,18.7941,18.7941,18.7941,18.7941,18.7941,18.7941,18.7941,18.7941,18.7941,18.7941,18.7941,18.7941,18.7941,18.7941,18.7941,18.7941,18.7941,18.7941,18.7941,18.7584,18.6781,18.671,18.6015,18.4463,18.4374,18.366,18.209,18.1377,18.1377,18.2233,18.2233,18.2233,18.2233,18.2965,18.3322,14.1884,0.0,14.8592,14.9284,14.9731,15.0133,0.0,15.1027,15.163,15.2703,15.4646,15.6725,15.8692,16.135,16.3696,16.486,16.5396,16.6133,16.7541,17.1631,17.5385,17.8,18.1915,18.4128,18.339,18.225,18.1352,18.1017,17.8536,17.6927,17.6499,17.686,17.6927,17.6525,17.686,17.7263,17.7531,18.0212,18.095,17.9903,18.2518,18.3658,18.3323,18.3658,18.3792,18.3858,18.4572,18.4973,18.5101,18.727,18.8983,19.0191,18.9032,18.9551,19.0672,18.9083,18.8512,18.8441,18.8084,18.7941,18.7941,18.7941,18.7941,18.7941,18.7941,18.7941,18.7941,18.7941,18.7941,18.7941,18.7941,18.7941,18.7941,18.7941,18.7941,18.7941,18.7941,18.7941,18.7941,18.7941,18.7941,18.7941,18.7941,18.7941,18.7941,18.7941,18.7941,18.7941,18.7941,18.7941,18.7941,18.7941,18.7941,18.7941,18.7941,18.7656,18.6728,18.5211,18.5069,18.4374,18.2804,18.2733,18.2019,18.0449,18.0378,18.1163,18.2733,18.3517,18.3874,18.3874,18.4249,18.4392,0.0,14.868,15.0603,15.3373,15.2032,15.0469,15.1898,15.0155,0.0,15.3574,15.4579,15.5585,15.849,16.135,16.3294,16.3428,16.4634,16.6133,16.7541,16.812,17.0399,17.6056,17.9408,18.1821,18.3189,18.3189,18.2518,18.1084,17.9542,17.8,17.6566,17.7866,17.8,17.6499,17.7866,17.9274,18.0615,18.2317,18.3055,18.2988,18.453,18.4597,18.3323,18.4664,18.5268,18.5375,18.7263,18.8062,18.825,19.069,19.1768,19.1902,19.219,19.2322,19.2275,19.0743,19.0101,18.9958,18.8441,18.7941,18.7941,18.7941,18.7941,18.7941,18.7941,18.7941,18.7941,18.7941,18.7941,18.7941,18.7941,18.7941,18.7941,18.7941,18.7941,18.7941,18.7941,18.7941,18.7941,18.7941,18.7941,18.7941,18.7941,18.7941,18.7941,18.7941,18.7941,18.7941,18.7941,18.7941,18.7941,18.7941,18.7941,18.7941,18.7941,18.6638,18.514,18.3589,18.3464,18.2733,18.1234,18.1163,18.0378,17.8666,17.8594,17.945,18.1163,18.407,18.5497,18.5497,18.6942,18.7656,14.6535,14.9686,15.2032,15.4043,15.2278,15.0469,15.2032,15.0088,14.8949,15.2501,15.3909,15.5183,15.7194,16.068,16.3294,16.3294,16.4567,16.5798,16.6334,16.8815,17.1363,17.3575,17.8872,18.2988,18.4463,18.2988,18.1647,18.1017,17.8737,17.7128,17.6499,17.7061,17.7103,17.6525,17.8,17.8603,17.8201,18.0615,18.1821,18.1915,18.4329,18.5133,18.4664,18.52,18.5469,18.5603,18.7534,18.8335,0.0,19.0804,19.2404,19.3438,19.2627,19.3045,19.3792,19.1242,19.0315,19.0101,18.8512,18.7941,18.7941,18.7941,18.7941,18.7941,18.7941,18.7941,18.7941,18.7941,18.7941,18.7941,18.7941,18.7941,18.7941,18.7941,18.7941,18.7941,18.7941,18.7941,18.7941,18.7941,18.7941,18.7941,18.7941,18.7941,18.7941,18.7941,18.7941,18.7941,18.7941,18.7941,18.7941,18.7941,18.7941,18.7156,18.523,18.4516,18.3517,18.1948,18.1876,18.1091,17.945,17.9379,17.9094,17.8469,18.0467,18.1823,18.2447,18.5587,18.7066,18.7066,18.7727,18.7941,14.7898,15.1161,15.3507,15.5451,15.3373,15.1094,15.2166,14.9686,14.8056,15.1027,15.2434,15.3842,15.6233,15.954,16.2221,16.316,16.4165,16.5061,16.553,16.8614,17.0826,17.0826,17.6525,18.1244,18.3189,18.1889,18.0749,18.0347,17.7933,17.6499,17.6499,17.6994,17.6994,17.6525,17.8,17.8335,17.7263,17.9743,18.095,18.1017,18.3591,18.4798,18.4798,18.52,18.5469,18.5603,18.7534,18.871,18.9523,19.1522,19.353,19.5176,19.4165,19.4263,19.481,19.2598,19.1457,19.0795,18.9226,18.8726,18.8655,18.8155,18.7941,18.7941,18.7941,18.7941,18.7941,18.7941,18.7941,18.7941,18.7941,18.7941,18.7941,18.7941,18.7941,18.7941,18.7941,18.7941,18.7941,18.7941,18.7941,18.7941,18.7941,18.7941,18.7941,18.7941,18.7941,18.7941,18.7941,18.7941,18.7799,18.7299,18.7228,18.5943,18.2822,18.259,18.1876,18.0307,18.0164,17.9664,17.8451,17.8451,17.8451,17.8451,18.0663,18.2019,18.259,18.523,18.6514,18.6514,18.7014,18.7228,15.0378,15.344,15.525,15.8289,15.5652,15.2434,15.2367,14.886,14.6447,14.9463,15.0066,15.1407,15.583,15.7931,15.9965,16.2825,16.3294,16.383,16.5396,16.6871,16.7785,16.7809,17.1698,17.5586,17.8536,18.0145,18.0347,17.8939,17.7397,17.6525,17.6499,17.7933,17.8067,17.6592,17.8,17.883,17.883,18.0212,18.095,18.095,18.2518,18.3282,18.3376,18.4758,18.5455,18.5589,18.7517,18.9503,19.1568,19.353,19.5575,19.7288,19.7288,19.6361,19.4934,19.4934,19.3935,19.2417,19.0814,19.0315,19.0029,18.8441,18.7941,18.7941,18.7941,18.7941,18.7941,18.7941,18.7941,18.7941,18.7941,18.7941,18.7941,18.8013,18.8013,18.8013,18.8013,18.8013,18.8013,18.7941,18.7941,18.7941,18.7941,18.7941,18.7941,18.7941,18.7941,18.7941,18.7941,18.7941,18.737,18.5782,18.5568,18.4355,18.1216,18.0949,18.0235,17.8523,17.8451,17.8451,17.8451,17.8451,17.8451,17.8451,17.8469,17.9308,18.0949,18.2519,18.3322,18.3322,18.4926,18.564,15.192,15.4177,15.525,15.8289,15.6456,15.3641,15.2658,14.9753,14.7788,14.9664,15.0066,15.1407,15.583,15.7931,15.963,16.1484,16.3586,16.5061,16.553,16.9553,17.2033,17.1027,17.4782,17.8268,18.0145,18.0749,18.0816,18.0347,17.8939,17.7665,17.6566,17.6927,17.6994,17.6525,17.6969,17.7195,17.7195,17.867,17.9475,17.9475,18.095,18.2389,18.3707,18.4157,18.5067,18.6295,18.689,18.8076,18.9718,19.0289,19.2369,19.5184,19.5184,19.5733,19.6309,19.4149,19.2988,19.2275,18.9582,18.8655,18.8583,18.8155,18.7941,18.7584,18.5373,18.4659,18.4659,18.4659,18.4659,18.4659,18.4659,18.5515,18.6852,18.9102,18.9601,18.9601,18.9601,18.9601,18.9297,18.8155,18.7941,18.7941,18.7941,18.7066,18.6353,18.6353,18.5373,18.4659,18.4659,18.4659,18.4516,18.4017,18.3018,18.1502,17.9379,17.9165,17.8951,17.8451,17.8451,17.8451,17.8451,17.8451,17.8451,17.8451,17.9593,18.0449,18.0949,18.2519,18.3322,18.3322,18.3731,18.4017,15.1853,15.411,15.5116,15.7462,15.6725,15.4714,15.2099,15.0066,14.886,14.9128,14.9664,15.1273,15.5116,15.706,15.8736,16.0814,16.2624,16.4658,16.7005,17.0357,17.2704,17.3039,17.5452,17.7866,17.9944,17.9542,17.9475,18.0078,17.8737,17.7531,17.6592,17.6499,17.6499,17.6499,17.6499,17.6499,17.6499,17.7464,17.7866,17.7933,17.9408,18.1079,18.2989,18.3603,18.4895,18.6623,18.6623,18.7584,18.925,18.925,19.1017,19.3664,19.3664,19.4048,19.4311,19.2365,19.1295,19.042,18.7923,18.6995,18.6924,18.63,18.6086,18.5729,18.3892,18.3322,18.3322,18.3322,18.3322,18.3322,18.3322,18.4017,18.5159,18.7104,18.796,18.8298,18.7674,18.7532,18.746,18.7066,18.6995,18.6995,18.6995,18.6781,18.6139,18.4926,18.4445,18.4035,18.3393,18.3322,18.3107,18.2447,18.0949,17.9522,17.8523,17.8451,17.8451,17.8451,17.8451,17.8451,17.8451,17.8451,17.8451,17.8451,17.945,17.995,17.995,18.1591,18.2019,18.1395,18.2019,18.2376,15.0646,15.3239,15.4714,15.6322,15.6635,15.5562,15.1273,15.0133,14.9664,14.8412,14.8927,15.067,15.411,15.5786,15.7663,16.068,16.135,16.3428,16.8925,16.993,17.1137,17.4044,17.438,17.5519,17.8335,17.733,17.7128,17.8737,17.7531,17.6592,17.6298,17.6432,17.6499,17.6499,17.6499,17.6432,17.6298,17.6324,17.6231,17.6123,17.7531,17.9283,18.1239,18.2797,18.4631,18.6479,18.6659,18.7904,18.9801,18.9801,19.0883,19.2631,19.2631,19.1723,19.0315,19.0172,18.9102,18.7513,18.5996,18.5426,18.5211,18.3731,18.3107,18.2893,18.2893,18.2893,18.2893,18.2893,18.2893,18.2893,18.2893,18.2965,18.3107,18.3107,18.4374,18.5283,18.3803,18.3517,18.3874,18.514,18.5426,18.5426,18.5426,18.6496,18.6372,18.3517,18.4178,18.4482,18.3036,18.2893,18.2323,18.0877,17.9379,17.8451,17.8451,17.8451,17.8451,17.8451,17.8451,17.8451,17.8451,17.8451,17.8451,17.8451,17.8451,17.8451,17.8451,18.0021,17.995,17.8451,18.0021,18.0735,14.9932,15.1697,15.344,15.6054,15.6635,15.583,15.2635,15.0938,14.9999,14.9664,14.7989,14.8525,15.5026,15.6434,15.7663,16.068,16.3116,16.553,16.7852,17.0223,17.2368,17.4179,17.438,17.505,17.686,17.6701,17.7128,17.8737,17.8536,17.733,17.4983,17.5922,17.6499,17.6499,17.6499,17.5963,17.4849,17.4849,17.4246,17.3106,17.3508,17.5259,17.8218,18.0002,18.2527,18.5515,18.7043,18.8631,19.0208,19.0208,19.1184,19.2631,19.2631,19.1723,19.0172,18.894,18.7495,18.5925,18.4374,18.3803,18.3731,18.3393,18.1609,17.9468,17.9468,17.9468,17.9468,17.9468,17.9468,17.9468,17.9468,18.0449,18.1448,18.1448,18.3571,18.5568,18.5211,18.514,18.4855,18.3946,18.3803,18.3803,18.3803,18.3089,18.2233,18.1591,18.0592,17.9896,17.954,17.9468,17.9379,17.9022,17.8666,17.8451,17.8451,17.8451,17.8451,17.8451,17.8451,17.8451,17.8451,17.8451,17.8451,17.8451,17.8451,17.8451,17.8451,17.8808,17.8808,17.8451,17.8808,17.8951,14.8278,15.0133,15.1965,15.4915,15.6166,15.6121,15.3909,15.3306,15.2814,15.1496,15.0469,15.0871,15.4043,15.5719,15.7171,15.8736,16.2087,16.5262,16.745,17.0357,17.2771,17.4179,17.438,17.4916,17.6365,17.5896,17.5855,17.6659,17.6659,17.5721,17.3441,17.4044,17.4782,17.5427,17.6164,17.6606,17.6777,17.6802,17.6477,17.5935,17.5053,17.5673,17.7479,17.8412,18.0364,18.3026,18.4915,18.6157,18.6961,18.6961,18.7442,18.8155,18.8155,18.7656,18.6747,18.5159,18.407,18.3142,18.152,18.0967,18.0967,18.0967,17.9807,17.8451,17.8451,17.8451,17.8451,17.8451,17.8451,17.8451,17.8451,17.9094,17.995,18.0806,18.1573,18.2429,18.3214,18.2786,18.2233,18.2162,18.2162,18.2162,18.2162,18.2162,18.152,18.0021,17.9736,17.9379,17.8523,17.8451,17.8451,17.8451,17.8451,17.8451,17.8451,17.8451,17.8451,17.8451,17.8451,17.8451,17.8451,17.8451,17.8451,17.8451,17.7738,17.731,17.731,17.6579,17.6222,17.6222,17.6222,17.6222,14.6087,14.819,14.9999,15.3038,15.4646,15.5361,15.4714,15.525,15.5317,15.3239,15.3306,15.3641,15.3239,15.5049,15.6792,15.706,16.0824,16.4568,16.7053,16.9981,17.2498,17.4162,17.438,17.4715,17.5628,17.4916,17.4179,17.3642,17.3106,17.2435,17.1497,17.1229,17.1872,17.3605,17.4732,17.6242,17.8143,17.844,17.8755,17.9132,17.7573,17.73,17.8086,17.8408,17.947,18.1022,18.2924,18.3536,18.3322,18.3322,18.3322,18.3322,18.3322,18.3107,18.2751,18.1448,18.0806,18.0307,17.8951,17.8451,17.8451,17.8451,17.8451,17.8451,17.8451,17.8451,17.8451,17.8451,17.8451,17.8451,17.8451,17.8451,17.8808,18.0235,17.945,17.8808,18.0235,17.945,17.888,18.0235,18.0521,18.0521,18.0521,18.1591,18.1538,17.888,17.9664,18.0021,17.8594,17.8451,17.8451,17.8451,17.8451,17.8451,17.8451,17.8451,17.8451,17.8451,17.8166,17.8023,17.8023,17.7809,17.7595,17.7595,17.6365,17.5723,17.5723,17.4421,17.3779,17.3779,17.3779,17.3779,14.3561,14.5061,14.6916,14.9932,15.0804,15.1608,15.3976,15.3708,15.3239,15.4043,15.2367,15.1742,15.5428,15.6434,15.7127,15.849,16.2508,16.5557,16.5836,16.8594,17.1523,17.4045,17.438,17.3977,17.2905,17.3776,17.3307,17.0668,16.8212,16.7206,16.8279,16.7206,16.7865,17.0725,17.0766,17.1554,17.3152,17.4404,17.5222,17.5629,17.5375,17.6796,17.9721,18.1453,18.2321,18.2583,18.4521,18.4569,18.3322,18.3322,18.3322,18.3322,18.3322,18.2447,18.1234,18.102,18.0021,17.8737,17.8523,17.8451,17.8451,17.8451,17.8451,17.8451,17.8451,17.8451,17.8451,17.8451,17.8451,17.8451,17.8451,17.8451,17.8523,17.8737,17.8594,17.8523,17.8737,17.8594,17.8523,17.8737,17.8737,17.8737,17.8737,17.8951,17.8969,17.8523,17.8666,17.8666,17.8451,17.8451,17.8451,17.8451,17.8451,17.8451,17.8451,17.8451,17.8451,17.8451,17.7167,17.6436,17.6436,17.5152,17.4421,17.4421,17.4207,17.4064,17.4064,17.385,17.3779,17.3779,17.3779,17.3779,14.0342,14.2601,14.5128,14.8144,14.886,14.9686,15.2635,15.2837,15.2568,15.3239,15.163,15.122,15.502,15.5583,15.6549,15.9869,16.3425,16.5784,16.5616,16.8286,17.0651,17.172,17.2637,17.3287,17.3719,17.2567,17.1765,17.1418,16.9505,16.8242,16.8107,16.7497,16.7313,16.7619,16.8438,16.9638,17.1127,17.4648,17.7509,17.9655,17.8612,17.8918,18.032,18.1236,18.1557,18.1637,18.3493,18.3946,18.3322,18.3322,18.3322,18.3322,18.3322,18.2875,18.2233,18.2233,18.1234,17.9878,17.9878,17.9236,17.8451,17.8451,17.8451,17.8451,17.8451,17.8451,17.8451,17.8451,17.8451,17.8451,17.8451,17.8451,17.8451,17.8451,17.8451,17.8451,17.8451,17.8451,17.8451,17.8451,17.8451,17.8451,17.8451,17.8451,17.8451,17.8451,17.8451,17.8451,17.8451,17.8451,17.8451,17.8451,17.7667,17.7167,17.7167,17.6293,17.5794,17.5794,17.5152,17.4778,17.4778,17.4136,17.3779,17.3779,17.2923,17.2441,17.2441,17.1568,17.114,17.114,17.114,17.114,13.6925,13.9503,14.2054,14.5423,14.6516,14.7661,15.1095,15.1835,15.1992,15.2328,15.1153,15.1159,15.4838,15.4988,15.5986,16.0288,16.3433,16.5225,16.4618,16.8003,17.0182,16.9425,17.1532,17.3162,17.3639,17.1788,17.1225,17.2786,17.0735,16.9121,16.8411,16.8022,16.7446,16.6509,16.7655,16.8932,17.0445,17.4257,17.7922,18.1326,18.0364,18.0224,18.0724,18.1077,18.1077,18.0782,18.2096,18.2465,18.2037,18.2037,18.2037,18.2037,18.2037,18.2037,18.2037,18.2037,18.1306,18.0307,17.9878,17.8666,17.7238,17.7238,17.7238,17.7238,17.7238,17.7238,17.7238,17.7238,17.7238,17.7381,17.7738,17.7809,17.7952,17.8326,17.8166,17.7809,17.7809,17.7524,17.7381,17.7738,17.7809,17.7952,17.838,17.8451,17.8451,17.8451,17.8451,17.8166,17.7381,17.7595,17.7738,17.731,17.6579,17.5937,17.558,17.4421,17.3779,17.3779,17.3422,17.3137,17.3137,17.278,17.2566,17.2566,17.1442,17.0817,17.0817,16.9658,16.9088,16.9088,16.9088,16.9088,13.3578,13.4946,13.6193,14.0525,14.2658,14.4869,14.9329,15.0351,15.076,15.23,15.1223,15.1501,15.6116,15.5615,15.5593,15.8947,16.211,16.3583,16.1942,16.7127,17.0228,16.8149,17.2164,17.3842,17.047,17.154,17.2758,17.3512,16.9101,16.7039,16.8417,16.7231,16.717,16.8693,16.8603,16.9309,17.0992,17.104,17.2735,17.6166,17.7515,17.9194,18.1037,18.2481,18.2338,18.0965,18.1055,18.0164,17.8666,17.8666,17.8666,17.8666,17.8666,17.8666,17.8666,17.8666,17.8666,17.838,17.6882,17.5366,17.3993,17.3993,17.3993,17.3993,17.3993,17.3993,17.3993,17.3993,17.3993,17.435,17.5865,17.6222,17.6596,17.8095,17.731,17.6222,17.6222,17.5081,17.4492,17.5937,17.6222,17.6721,17.8166,17.8451,17.8451,17.8451,17.8451,17.7381,17.4421,17.5295,17.5651,17.4136,17.5295,17.5509,17.4064,17.385,17.3779,17.3779,17.2369,17.1602,17.1602,17.0158,16.9356,16.9356,16.9302,16.923,16.923,16.9159,16.9088,16.9088,16.9088,16.9088,13.3472,13.449,13.5419,13.8815,13.9367,13.9725,14.2279,14.3661,14.484,14.6428,14.6944,14.892,15.4604,15.4291,15.5173,16.1364,16.2521,16.2666,16.2908,16.4161,16.5074,16.5095,16.7607,16.9681,17.055,17.0313,17.0665,17.1911,17.0308,16.9158,16.8796,16.8255,16.7783,16.7316,16.8284,16.9575,17.1199,17.2157,17.3275,17.4497,17.6077,17.7683,17.9379,17.995,17.9878,17.9379,17.9468,17.9111,17.8451,17.8451,17.8451,17.8451,17.8451,17.8451,17.8469,17.854,17.7898,17.6739,17.5134,17.4278,17.3779,17.3779,17.3779,17.3779,17.3779,17.3779,17.3779,17.3779,17.3779,17.3922,17.4492,17.4635,17.4778,17.5295,17.5009,17.4635,17.4635,17.4136,17.3922,17.4492,17.4635,17.4778,17.5366,17.5437,17.5437,17.5437,17.5437,17.5437,17.5295,17.5794,17.6293,17.6721,17.5509,17.435,17.385,17.1924,17.0783,17.0783,17.0229,16.9944,16.9944,16.9373,16.9088,16.9088,16.9088,16.9088,16.9088,16.9088,16.9088,16.9088,16.9088,16.9088,13.2121,13.3244,13.4435,13.7317,13.7714,13.774,13.9222,13.9962,14.0876,14.3031,14.3752,14.597,15.2211,15.2372,15.366,15.9987,16.0552,16.0735,16.2083,16.2519,16.2691,16.2962,16.5388,16.7667,16.9271,16.8636,16.8692,17.03,16.9894,16.9629,16.9754,16.9754,16.9228,16.8128,16.9173,16.9985,17.055,17.2169,17.3012,17.2994,17.4564,17.6151,17.7667,17.7667,17.7667,17.7595,17.7167,17.6953,17.6882,17.6882,17.6882,17.6882,17.6882,17.6882,17.6882,17.6953,17.5597,17.3582,17.2566,17.221,17.221,17.221,17.221,17.221,17.221,17.221,17.221,17.221,17.221,17.2352,17.2852,17.3012,17.3137,17.3636,17.3351,17.3012,17.3012,17.2566,17.2352,17.2869,17.3012,17.3137,17.3708,17.3779,17.3779,17.3779,17.3779,17.3779,17.3796,17.4224,17.4741,17.5241,17.3939,17.278,17.2281,17.0283,16.9088,16.9088,16.9088,16.9088,16.9088,16.8588,16.8588,16.9088,16.8588,16.8588,16.9088,16.9088,16.9088,16.9088,16.9088,16.9088,12.9507,13.0989,13.275,13.5867,13.7642,13.9069,14.05,13.9625,13.9429,14.2642,14.2055,14.2845,14.8972,14.9975,15.1007,15.4415,15.6127,15.7561,15.9162,16.2114,16.3399,16.1609,16.5807,16.8076,16.6176,16.6409,16.7249,16.8874,16.7535,16.8051,17.1102,17.1316,17.1316,17.1459,17.1459,17.0745,16.9302,17.0728,17.1459,17.1459,17.294,17.4421,17.5865,17.5865,17.5937,17.5865,17.435,17.3708,17.3779,17.3779,17.3779,17.3779,17.3708,17.3708,17.3708,17.3636,17.171,16.9088,16.9088,16.9088,16.9088,16.9088,16.9088,16.9088,16.9088,16.9088,16.9088,16.9088,16.9088,16.9444,17.0959,17.1388,17.1816,17.3351,17.2512,17.1388,17.1459,17.0229,16.9587,17.1102,17.1388,17.1887,17.3422,17.3636,17.3636,17.3636,17.3636,17.2566,16.9499,17.046,17.0888,16.9373,17.0603,17.0817,16.9302,16.9159,16.9088,16.9088,16.9088,16.9016,16.9016,16.7606,16.7463,16.9016,16.7606,16.7606,16.9016,16.9016,16.9016,16.8945,16.8945,16.8945,13.5126,13.2436,12.9788,13.504,13.5903,13.5238,13.4535,13.5731,13.7661,13.9632,14.0569,14.216,14.6111,14.5906,14.6571,15.0917,15.1899,15.2789,15.4455,15.5359,15.6515,15.8343,16.0789,16.2115,16.1616,16.2691,16.4022,16.5592,16.5323,16.5965,16.7979,16.8051,16.9121,17.1388,17.1459,17.1799,17.2495,17.1816,17.1459,17.1459,17.0728,17.064,17.1014,17.1014,17.1656,17.2743,17.2315,17.2726,17.3779,17.3779,17.3779,17.3636,17.2512,17.2084,17.1958,17.08,16.9872,16.9088,16.9088,16.9088,16.9088,16.9088,16.9088,16.9088,16.9088,16.9088,16.9088,16.9088,16.9088,16.923,16.9658,16.973,17.0158,17.1727,17.0871,17.0086,17.1174,17.1102,17.0603,16.9872,17.0674,17.1245,17.0497,17.0426,17.0426,17.0426,17.0426,17.0069,16.923,17.046,17.1744,17.2424,17.187,17.1245,17.0817,16.973,16.9088,16.9088,16.8034,16.7392,16.7392,16.7052,16.698,16.7392,16.8105,16.8105,16.7392,16.7392,16.6821,16.5734,16.5734,16.5734,13.1172,12.8937,12.7386,13.2926,13.2677,13.17,13.4135,13.4503,13.5211,13.8113,13.94,14.0692,14.3189,14.3418,14.4145,14.6899,14.7883,14.9096,15.1394,15.1629,15.2843,15.6096,15.6704,15.711,15.7768,15.9242,16.0812,16.2397,16.3111,16.4181,16.5751,16.5839,16.6607,16.8462,16.9176,16.9961,17.0871,17.1245,17.1459,17.1459,17.1228,17.1068,17.1068,17.1068,17.1228,17.1388,17.0745,17.1014,17.1853,17.1853,17.1853,17.171,17.08,17.046,17.0389,16.9444,16.9088,16.9088,16.9088,16.9088,16.9088,16.9088,16.9088,16.9016,16.8319,16.8588,16.8945,16.8303,16.8588,16.9088,16.9088,16.9088,16.9373,17.0229,16.9801,16.9373,17.03,17.046,17.0372,17.0158,17.0317,17.0372,17.0086,16.9516,16.8874,16.8248,16.8659,16.8874,16.8248,16.9532,17.08,17.171,17.1014,17.0175,16.9532,16.8105,16.7161,16.7161,16.6892,16.6766,16.6766,16.6195,16.6124,16.6766,16.6376,16.6091,16.5839,16.5839,16.5323,16.4466,16.4466,16.3396,12.1162,12.2369,12.5307,12.9517,12.8434,12.8194,0.0,13.3785,13.23,13.6612,13.7539,13.811,14.005,14.142,14.2361,14.2932,14.4616,14.6742,14.9367,15.0238,15.1465,15.3993,15.3422,15.3351,15.4722,15.6261,15.7759,15.9131,16.074,16.231,16.3824,16.411,16.4252,16.4466,16.5751,16.6552,16.6552,16.9247,17.0674,17.0674,17.2227,17.2994,17.2994,17.3208,17.2495,17.1102,16.9944,16.9373,16.9373,16.957,16.9658,16.9658,16.9444,16.9088,16.8588,16.8588,16.8588,16.8588,16.8588,16.8588,16.8588,16.8588,16.8588,16.8374,16.7123,16.7749,16.8588,16.7392,16.8034,16.9088,16.9088,16.9088,16.9159,16.9302,16.923,16.9159,16.9302,16.9373,16.973,17.0959,17.0229,16.973,17.0959,17.0015,16.8659,16.7266,16.8248,16.8588,16.7266,16.8231,16.9088,16.9088,16.9088,16.8517,16.7123,16.5751,16.4895,16.4752,16.5839,16.6552,16.6552,16.5037,16.4823,16.6267,16.3523,16.2738,16.3896,16.3753,16.361,16.3396,16.361,16.1327,0.0,0.0,0.0,0.0,0.0,0.0,0.0,12.6625,12.8421,13.0633,13.1074,13.2287,13.6425,13.6354,13.6982,14.0778,14.4845,14.7256,14.6599,14.9824,15.1552,14.9554,15.1338,15.2907,15.3208,15.4635,15.5706,15.6006,15.7474,15.9044,16.0613,16.1882,16.3166,16.4395,16.4752,16.4895,16.4895,16.5465,16.5822,16.5822,16.7392,16.8122,16.8177,16.9444,16.9872,16.9587,17.0603,17.1031,17.1102,17.2369,17.2852,17.278,17.1513,16.8676,16.5394,16.5394,16.5394,16.5394,16.5394,16.5394,16.5394,16.5394,16.5394,16.5537,16.6481,16.698,16.7463,16.8374,16.8874,16.9088,16.9088,16.9088,16.9444,17.0674,17.0015,16.9444,17.0745,17.1031,17.0745,16.973,17.03,17.0674,16.973,16.9302,16.9016,16.8731,16.8945,16.9016,16.8731,16.8945,16.9088,16.9088,16.9088,16.9016,16.8659,16.8374,16.7661,16.6409,16.5465,16.4895,16.4895,16.338,16.2738,16.3023,16.2452,16.1668,16.0701,15.9472,15.8187,15.699,15.8259,15.7617,0.0,0.0,0.0,0.0,0.0,0.0,0.0,0.0,0.0,0.0,0.0,13.0003,13.2358,0.0,13.5854,13.8209,14.2561,14.5344,14.4559,14.7841,14.9197,14.6001,14.7057,14.8641,15.0196,15.1766,15.305,15.3922,15.542,15.6633,15.7418,15.8187,15.9329,16.0899,16.2452,16.3309,16.3309,16.4823,16.5251,16.4466,16.5251,16.5608,16.5608,16.6464,16.6804,16.6804,16.7606,16.7963,16.8034,16.8802,16.9088,16.9016,16.8231,16.6536,16.4466,16.4466,16.4466,16.4466,16.4466,16.4466,16.4466,16.4466,16.4466,16.4466,16.4466,16.4966,16.5608,16.5592,16.6162,16.6804,16.6804,16.6804,16.7161,16.8748,16.8534,16.8391,16.9944,17.03,17.03,17.03,17.03,17.03,17.03,16.9658,16.8874,16.8105,16.8588,16.8802,16.8034,16.8659,16.8802,16.8034,16.7963,16.7677,16.6876,16.6804,16.6091,16.4538,16.3737,16.3309,16.3309,16.181,16.0954,16.0954,15.94,15.8259,15.7418,15.6705,15.5848,15.5079,15.3478,15.2265,0.0,0.0,0.0,0.0,0.0,0.0,0.0,0.0,0.0,0.0,0.0,0.0,0.0,0.0,0.0,13.5725,14.0207,14.3489,14.2861,14.4987,14.5487,14.2704,14.2647,14.3931,14.6771,14.8454,15.0024,15.1694,15.3565,15.4778,15.5079,15.5436,15.6134,15.7387,15.9884,16.1097,16.074,16.3539,16.434,16.3111,16.4038,0.0,16.4466,16.5109,16.5323,16.5323,16.5323,16.518,16.4895,16.4895,16.4752,16.4324,16.3111,16.2611,16.2611,16.2611,16.2611,16.2611,16.2611,16.2611,16.2611,16.2611,16.2611,16.254,16.1882,16.2524,0.0,16.2738,16.3451,16.4466,16.4466,16.4466,16.4752,16.6053,16.6338,16.6678,16.7946,16.8231,16.8588,16.9889,16.9302,16.9016,17.0317,16.9247,16.782,16.6552,16.7392,16.7732,16.6481,16.7677,16.8105,16.6481,16.6624,16.6124,16.4609,16.4466,16.3879,16.2666,16.2579,16.2294,16.1668,16.0185,15.9044,15.8417,15.592,15.435,15.3708,15.3708,15.3565,15.3137,14.8444,14.6574,0.0,0.0,0.0,0.0,0.0,0.0,0.0,0.0,0.0,0.0,0.0,0.0,0.0,0.0,0.0,0.0,14.0478,14.4402,14.1562,14.1491,14.1049,13.9323,14.0336,14.1848,14.3646,14.5201,14.6757,14.8341,15.1338,15.3636,15.5079,15.6404,0.0,0.0,0.0,15.7331,15.592,15.7617,15.8386,15.8314,16.2469,16.4466,16.4538,16.7304,16.8588,16.8588,16.8588,16.782,16.6481,16.6481,16.5696,16.3896,15.8346,15.6149,15.6149,15.6149,15.6149,15.6149,15.6149,0.0,0.0,15.6149,15.6149,15.6633,15.9274,16.0185,16.0827,16.3468,16.4307,16.4466,16.4466,16.4466,16.4466,16.4681,16.4752,16.4752,16.4966,16.4966,16.5037,16.518,16.6179,16.7123,16.7266,16.6036,16.4895,16.4752,16.4895,16.4895,16.4752,16.6108,16.6481,16.4895,16.5965,0.0,16.4609,16.4466,16.4395,16.4165,16.4181,16.2968,16.0114,15.8544,15.6404,15.3621,15.3193,15.1623,14.8769,14.8769,14.8055,14.6557,14.232,14.1849,0.0,0.0,0.0,0.0,0.0,0.0,0.0,0.0,0.0,0.0,0.0,0.0,0.0,0.0,0.0,0.0,13.4271,13.7696,13.457,13.4927,13.5569,13.5841,13.6483,13.7838,14.0336,14.112,14.2176,14.3774,14.6828,14.8484,14.8213,15.0553,15.2321,15.3234,15.4248,15.5262,15.6475,15.7117,15.7458,15.7458,15.8544,15.9059,15.9059,16.0399,16.0986,16.0986,16.0986,16.0629,16.0003,16.0003,15.963,15.8774,0.0,0.0,0.0,0.0,15.515,15.515,15.515,15.515,15.515,15.515,15.515,15.5364,15.6633,15.7704,15.8687,16.0043,16.1042,16.1541,16.0597,16.0399,16.0613,16.1541,16.1755,16.2255,16.4038,16.4466,16.4466,16.4466,16.4966,0.0,16.3056,16.2968,16.338,16.4307,16.4466,16.4466,16.4466,16.5037,16.4823,16.3237,16.3665,16.3808,16.3166,16.3095,0.0,0.0,0.0,16.1668,15.8544,15.7815,0.0,0.0,0.0,14.6803,14.5445,14.4671,0.0,0.0,13.7863,13.748,0.0,0.0,0.0,0.0,0.0,0.0,0.0,0.0,0.0,0.0,0.0,0.0,0.0,0.0,0.0,0.0,12.7922,13.0775,12.7149,12.8375,13.0088,13.1216,13.2131,13.37,13.6412,13.7468,13.8766,14.0764,14.3047,14.4188,14.3917,14.5644,14.7327,14.8953,15.0181,15.1908,15.4176,15.4605,15.5033,15.5461,15.5206,15.5364,15.5777,15.6633,15.7061,15.7061,15.749,15.7204,15.6419,15.6419,15.5935,15.4936,15.3208,15.2494,15.2494,15.2494,15.2494,15.2494,15.2494,15.2494,15.2494,15.2494,15.2494,15.2566,15.2994,15.4192,15.5461,15.5461,15.6618,15.7617,15.6475,15.619,15.6546,15.8132,15.8489,15.9131,16.1398,16.1898,16.1898,16.1898,16.1898,16.1184,15.8917,15.94,16.0613,16.1684,16.2255,16.254,16.254,16.3309,16.3237,16.1668,16.1866,16.1953,16.1525,16.1866,16.1723,16.0883,16.124,15.9884,15.6332,15.5746,15.3606,14.9667,14.5616,14.3198,0.0,0.0,0.0,0.0,0.0,0.0,0.0,0.0,0.0,0.0,0.0,0.0,0.0,0.0,0.0,0.0,0.0,0.0,0.0,0.0,0.0,0.0,0.0,0.0,12.074,12.2809,12.4819,12.4891,12.759,13.0003,13.1671,13.4583,13.7567,14.0692,14.1049,14.2333,14.5401,14.4202,14.4131,14.5672,14.5815,14.5886,14.5957,14.747,14.8968,15.0508,15.3621,15.592,15.7474,16.0526,16.1866,16.2008,16.3523,16.2469,15.963,15.963,15.7846,15.4508,14.8341,14.59,14.59,14.59,14.59,14.59,14.59,14.59,14.59,14.59,14.59,14.6186,14.7699,14.9254,15.0508,15.0508,15.1679,15.2979,15.2907,15.2907,15.3336,15.4865,15.5293,15.5293,15.5364,15.5436,15.5436,15.5436,15.5436,15.5364,15.5293,15.5293,15.5364,15.5436,15.6689,0.0,15.7672,16.0312,16.1596,16.0043,16.1168,16.1525,15.9987,16.124,16.0796,15.7815,15.9044,15.7775,15.3121,15.1308,14.9667,14.8055,14.4859,14.1931,13.9103,0.0,0.0,0.0,0.0,0.0,0.0,0.0,0.0,0.0,0.0,0.0,0.0,0.0,0.0,0.0,0.0,0.0,0.0,0.0,0.0,0.0,0.0,0.0,0.0,11.8088,12.1382,12.1382,12.4236,12.6377,12.6889,12.9802,13.2073,13.3143,13.7054,13.8966,13.791,13.9337,14.0407,14.0964,14.0964,14.1976,14.3988,14.4559,14.563,14.717,14.8255,14.9111,14.961,15.0681,15.1165,15.1165,15.1751,15.1323,15.0395,15.0395,14.8555,14.5487,14.3346,14.2476,14.2476,14.2476,14.2476,14.2476,14.2476,14.2476,14.2476,14.2476,14.2476,14.2619,14.3132,14.4417,14.5844,14.6885,14.8326,14.9554,14.9554,14.9554,14.9697,15.0196,15.1124,15.1893,15.1893,15.3621,15.4778,15.3779,15.014,14.7927,14.9997,15.1195,15.225,15.3422,15.4921,15.6276,15.7316,15.7474,15.806,15.963,15.9329,15.9242,15.9773,15.9329,15.86,15.753,15.5976,15.3906,15.1251,14.8597,14.64,14.4859,14.2775,13.9856,13.617,0.0,0.0,0.0,0.0,0.0,0.0,0.0,0.0,0.0,0.0,0.0,0.0,0.0,0.0,0.0,0.0,0.0,0.0,0.0,0.0,0.0,0.0,0.0,0.0,0.0,0.0,11.8872,12.1727,0.0,12.2952,12.5151,12.6935,12.759,13.0775,13.2546,13.2274,13.3616,13.5185,13.6897,13.6897,13.8195,14.072,14.0792,14.1562,14.3104,14.3104,14.3389,14.3974,14.4474,14.4759,14.4759,14.5401,14.5258,14.4616,14.2975,14.0764,13.8409,13.8409,13.8066,13.7638,13.8209,13.8409,13.8481,13.9065,13.9279,13.9208,13.8623,13.8066,13.7709,13.828,13.9136,14.0135,14.1192,14.2547,14.3917,14.4474,14.4616,14.4759,14.5273,14.6614,14.7755,14.7755,14.9411,15.0282,14.8127,14.5273,14.3717,14.5201,14.7185,14.8811,14.9268,15.1694,15.3764,15.4747,15.5048,15.5935,15.7918,15.7204,15.7046,15.806,15.7204,15.6118,15.4961,15.2964,15.0681,14.7898,14.5829,14.3532,14.0917,13.9903,13.6975,0.0,0.0,0.0,0.0,0.0,0.0,0.0,0.0,0.0,0.0,0.0,0.0,0.0,0.0,0.0,0.0,0.0,0.0,0.0,0.0,0.0,0.0,0.0,0.0,0.0,0.0,0.0,11.6792,11.9491,0.0,0.0,0.0,0.0,12.4022,12.2785,12.3985,12.8576,12.7351,12.8706,13.3272,13.3558,13.4356,13.5868,13.6082,13.6925,13.8395,13.8467,13.9252,14.0778,14.2219,14.2932,14.3004,14.4474,14.426,14.2576,13.7866,13.4998,13.3558,13.3486,13.2501,13.1314,13.2786,13.3344,13.3558,13.5283,13.5939,13.5654,13.42,13.2657,13.1755,13.3013,13.3442,0.0,0.0,13.4797,13.6296,13.791,13.8395,13.8752,14.0336,14.1848,14.3004,14.2932,14.3004,14.2219,13.898,14.072,14.2233,14.0877,0.0,14.4588,14.326,14.6928,14.9896,15.0038,15.2765,15.4865,15.5007,15.5007,15.5007,15.5007,15.4936,15.355,15.0365,14.9952,14.7812,14.3432,14.2875,14.0774,13.6644,13.6228,0.0,0.0,0.0,0.0,0.0,0.0,0.0,0.0,0.0,0.0,0.0,0.0,0.0,0.0,0.0,0.0,0.0,0.0,0.0,0.0,0.0,0.0,0.0,0.0,0.0,0.0,10.452,10.7435,10.8598,11.0453,11.1534,0.0,0.0,0.0,0.0,0.0,0.0,12.2095,12.1798,12.3225,12.6876,12.8136,12.9491,13.1002,13.3357,13.4699,13.5127,13.6282,13.7067,13.7495,13.7866,13.808,13.808,13.8494,13.8423,13.7709,13.3013,13.0146,12.8635,12.7435,12.6008,12.4568,12.4913,12.5127,12.5697,12.9647,13.1074,13.1002,13.0574,13.0262,12.9402,12.6327,0.0,0.0,0.0,0.0,13.1904,13.4467,13.5127,13.5555,13.7067,13.8637,13.9479,13.828,13.985,14.0334,13.618,13.5147,13.5213,13.6138,13.6926,0.0,14.0092,14.2208,14.4415,14.676,14.8673,15.071,15.3137,15.3422,15.3422,15.3422,15.225,15.0681,14.8612,14.5258,14.3275,14.3289,13.7828,13.4875,13.4914,0.0,0.0,0.0,0.0,0.0,0.0,0.0,0.0,0.0,0.0,0.0,0.0,0.0,0.0,0.0,0.0,0.0,0.0,0.0,0.0,0.0,0.0,0.0,0.0,0.0,0.0,0.0,9.9659,10.3725,10.4592,10.61,10.6825,0.0,0.0,0.0,0.0,0.0,0.0,0.0,0.0,0.0,12.1382,12.294,12.4224,12.5093,12.822,12.9861,12.9861,13.2144,13.3214,13.3227,13.3941,13.4226,13.4226,13.4226,13.3085,13.0873,12.7506,12.4782,12.2571,0.0,0.0,0.0,0.0,11.898,11.9503,12.3049,12.4228,12.4253,12.435,0.0,0.0,0.0,0.0,0.0,0.0,0.0,12.9073,13.1398,13.2923,13.4129,13.5069,13.6006,13.6489,13.544,13.4341,13.2832,13.073,13.0464,13.0754,13.1421,13.356,0.0,0.0,0.0,14.1843,14.3279,14.5428,14.7827,15.041,15.0053,14.9911,15.0624,14.854,14.6543,14.4987,14.1762,13.9749,13.9315,13.4918,13.1458,0.0,0.0,0.0,0.0,0.0,0.0,0.0,0.0,0.0,0.0,0.0,0.0,0.0,0.0,0.0,0.0,0.0,0.0,0.0,0.0,0.0,0.0,0.0,0.0,0.0,0.0,0.0,0.0,0.0,10.1728,10.2084,0.0,0.0,0.0,0.0,0.0,0.0,0.0,0.0,0.0,0.0,0.0,0.0,0.0,11.8527,11.8527,12.1953,12.3665,12.3665,12.665,12.8006,12.8077,12.966,13.0444,13.0671,13.0029,0.0,12.4093,12.2,0.0,0.0,0.0,0.0,0.0,0.0,0.0,0.0,0.0,0.0,0.0,0.0,0.0,0.0,0.0,0.0,0.0,0.0,0.0,0.0,0.0,0.0,13.2664,13.2294,13.2865,13.3272,13.2241,12.7355,12.345,12.3989,12.596,12.7324,0.0,0.0,0.0,0.0,0.0,0.0,13.9813,14.2972,14.5859,14.7546,14.6531,14.6202,14.7146,14.4588,14.2233,14.0463,13.8958,13.7073,13.4554,13.3359,0.0,0.0,0.0,0.0,0.0,0.0,0.0,0.0,0.0,0.0,0.0,0.0,0.0,0.0,0.0,0.0,0.0,0.0,0.0,0.0,0.0,0.0,0.0,0.0,0.0,0.0,0.0,0.0,0.0,0.0,0.0,0.0,0.0,0.0,0.0,0.0,0.0,0.0,0.0,0.0,0.0,0.0,0.0,0.0,0.0,0.0,0.0,0.0,0.0,0.0,12.0514,12.1382,12.1453,12.2999,12.4509,12.5592,12.1584,12.0858,12.2202,11.7993,0.0,0.0,0.0,0.0,0.0,0.0,0.0,0.0,0.0,0.0,0.0,0.0,0.0,0.0,0.0,0.0,0.0,0.0,0.0,0.0,0.0,0.0,12.6048,12.3491,12.6336,12.8167,12.274,0.0,0.0,0.0,0.0,0.0,0.0,0.0,0.0,0.0,0.0,0.0,13.7506,14.0884,14.3979,14.6398,14.6773,14.598,14.3628,14.213,14.0233,13.7547,13.6536,13.586,0.0,0.0,0.0,0.0,0.0,0.0,0.0,0.0,0.0,0.0,0.0,0.0,0.0,0.0,0.0,0.0,0.0,0.0,0.0,0.0,0.0,0.0,0.0,0.0,0.0,0.0,0.0,0.0,0.0,0.0,0.0,0.0,0.0,0.0,0.0,0.0,0.0,0.0,0.0,0.0,0.0,0.0,0.0,0.0,0.0,0.0,0.0,0.0,0.0,0.0,0.0,0.0,0.0,0.0,0.0,0.0,0.0,0.0,11.6447,11.295,0.0,0.0,0.0,0.0,0.0,0.0,0.0,0.0,0.0,0.0,0.0,0.0,0.0,0.0,0.0,0.0,0.0,0.0,0.0,0.0,0.0,0.0,0.0,0.0,0.0,0.0,0.0,0.0,0.0,0.0,0.0,0.0,0.0,0.0,0.0,0.0,0.0,0.0,0.0,0.0,13.3398,13.7167,14.0715,14.364,14.2705,14.196,14.2104,13.9259,13.7141,13.6327,13.4161,0.0,0.0,0.0,0.0,0.0,0.0,0.0,0.0,0.0,0.0,0.0,0.0,0.0,0.0,0.0,0.0,0.0,0.0,0.0,0.0,0.0,0.0,0.0,0.0,0.0,0.0,0.0,0.0,0.0,0.0,0.0,0.0,0.0,0.0,0.0,0.0,0.0,0.0,0.0,0.0,0.0,0.0,0.0,0.0,0.0,0.0,0.0,0.0,0.0,0.0,0.0,0.0,0.0,0.0,0.0,0.0,0.0,0.0,0.0,11.0084,10.4869,0.0,0.0,0.0,0.0,0.0,0.0,0.0,0.0,0.0,0.0,0.0,0.0,0.0,0.0,0.0,0.0,0.0,0.0,0.0,0.0,0.0,0.0,0.0,0.0,0.0,0.0,0.0,0.0,0.0,0.0,0.0,0.0,0.0,0.0,0.0,0.0,0.0,0.0,0.0,0.0,13.071,13.4623,13.851,14.1563,13.9487,13.8751,14.0896,13.7149,13.4669,13.4663,13.2048,0.0,0.0,0.0,0.0,0.0,0.0,0.0,0.0,0.0,0.0,0.0,0.0,0.0,0.0,0.0,0.0,0.0,0.0,0.0,0.0,0.0,0.0,0.0,0.0,0.0,0.0,0.0,0.0,0.0,0.0,0.0,0.0,0.0,0.0,0.0,0.0,0.0,0.0,0.0,0.0,0.0,0.0,0.0,0.0,0.0,0.0,0.0,0.0,0.0,0.0,0.0,0.0,0.0,0.0,0.0,0.0,0.0,0.0,0.0,0.0,0.0,0.0,0.0,0.0,0.0,0.0,0.0,0.0,0.0,0.0,0.0,0.0,0.0,0.0,0.0,0.0,0.0,0.0,0.0,0.0,0.0,0.0,0.0,0.0,0.0,0.0,0.0,0.0,0.0,0.0,0.0,0.0,0.0,0.0,0.0,0.0,0.0,0.0,0.0,0.0,0.0,13.2365,13.6063,13.9488,14.2125,14.1313,14.0126,13.8992,13.6984,13.4332,13.1011,0.0,0.0,0.0,0.0,0.0,0.0,0.0,0.0,0.0,0.0,0.0,0.0,0.0,0.0,0.0,0.0,0.0,0.0,0.0,0.0,0.0,0.0,0.0,0.0,0.0,0.0,0.0,0.0,0.0,0.0,0.0,0.0,0.0,0.0,0.0,0.0,0.0,0.0,0.0,0.0,0.0,0.0,0.0,0.0,0.0,0.0,0.0,0.0,0.0,0.0,0.0,0.0,0.0,0.0,0.0,0.0,0.0,0.0,0.0,0.0,0.0,0.0,0.0,0.0,0.0,0.0,0.0,0.0,0.0,0.0,0.0,0.0,0.0,0.0,0.0,0.0,0.0,0.0,0.0,0.0,0.0,0.0,0.0,0.0,0.0,0.0,0.0,0.0,0.0,0.0,0.0,0.0,0.0,0.0,0.0,0.0,0.0,0.0,0.0,0.0,0.0,0.0,12.9213,13.3643,13.7493,13.947,13.8433,13.7765,13.8134,13.6475,13.4234,13.1363,0.0,0.0,0.0,0.0,0.0,0.0,0.0,0.0,0.0,0.0,0.0,0.0,0.0,0.0,0.0,0.0,0.0,0.0,0.0,0.0,0.0,0.0,0.0,0.0,0.0,0.0,0.0,0.0,0.0,0.0,0.0,0.0,0.0,0.0,0.0,0.0,0.0,0.0,0.0,0.0,0.0,0.0,0.0,0.0,0.0,0.0,0.0,0.0,0.0,0.0,0.0,0.0,0.0,0.0,0.0,0.0,0.0,0.0,0.0,0.0,0.0,0.0,0.0,0.0,0.0,0.0,0.0,0.0,0.0,0.0,0.0,0.0,0.0,0.0,0.0,0.0,0.0,0.0,0.0,0.0,0.0,0.0,0.0,0.0,0.0,0.0,0.0,0.0,0.0,0.0,0.0,0.0,0.0,0.0,0.0,0.0,0.0,0.0,0.0,0.0,0.0,0.0,12.6619,13.2189,13.6588,13.7673,13.6802,13.6588,13.7747,13.6036,13.3459,13.0169,0.0,0.0,0.0,0.0,0.0,0.0,0.0,0.0,0.0,0.0,0.0,0.0,0.0,0.0,0.0,0.0,0.0,0.0,0.0,0.0,0.0,0.0,0.0,0.0,0.0,0.0,0.0,0.0,0.0,0.0,0.0,0.0,0.0,0.0,0.0,0.0,0.0,0.0,0.0,0.0,0.0,0.0,0.0,0.0,0.0,0.0,0.0,0.0,0.0,0.0,0.0,0.0,0.0,0.0,0.0,0.0,0.0,0.0,0.0,0.0,0.0,0.0,0.0,0.0,0.0,0.0,0.0,0.0,0.0,0.0,0.0,0.0,0.0,0.0,0.0,0.0,0.0,0.0,0.0,0.0,0.0,0.0,0.0,0.0,0.0,0.0,0.0,0.0,0.0,0.0,0.0,0.0,0.0,0.0,0.0,0.0,0.0,0.0,0.0,0.0,0.0,0.0,12.5839,13.2711,13.7795,13.7795,13.7795,13.7795,13.7795,13.5681,13.1856,0.0,0.0,0.0,0.0,0.0,0.0,0.0,0.0,0.0,0.0,0.0,0.0,0.0,0.0,0.0,0.0,0.0,0.0,0.0,0.0,0.0,0.0,0.0,0.0,0.0,0.0,0.0,0.0,0.0,0.0,0.0,0.0,0.0,0.0,0.0,0.0,0.0,0.0,0.0,0.0,0.0,0.0,0.0,0.0,0.0,0.0,0.0,0.0,0.0,0.0,0.0,0.0,0.0,0.0,0.0,0.0,0.0,0.0,0.0,0.0,0.0,0.0,0.0,0.0,0.0,0.0,0.0,0.0,0.0,0.0,0.0,0.0,0.0,0.0,0.0,0.0,0.0,0.0,0.0,0.0,0.0,0.0,0.0,0.0,0.0,0.0,0.0,0.0,0.0,0.0,0.0,0.0,0.0,0.0,0.0,0.0,0.0,0.0,0.0,0.0,0.0,0.0,0.0,12.3895,13.0101,13.4967,13.6095,13.7142,13.7367,13.632,13.5555,13.1856,12.4337,0.0,0.0,0.0,0.0,0.0,0.0,0.0,0.0,0.0,0.0,0.0,0.0,0.0,0.0,0.0,0.0,0.0,0.0,0.0,0.0,0.0,0.0,0.0,0.0,0.0,0.0,0.0,0.0,0.0,0.0,0.0,0.0,0.0,0.0,0.0,0.0,0.0,0.0,0.0,0.0,0.0,0.0,0.0,0.0,0.0,0.0,0.0,0.0,0.0,0.0,0.0,0.0,0.0,0.0,0.0,0.0,0.0,0.0,0.0,0.0,0.0,0.0,0.0,0.0,0.0,0.0,0.0,0.0,0.0,0.0,0.0,0.0,0.0,0.0,0.0,0.0,0.0,0.0,0.0,0.0,0.0,0.0,0.0,0.0,0.0,0.0,0.0,0.0,0.0,0.0,0.0,0.0,0.0,0.0,0.0,0.0,0.0,0.0,0.0,0.0,0.0,0.0,0.0,12.883,13.3391,13.4444,13.5416,13.5565,13.4593,13.3927,13.0337,12.2635,0.0,0.0,0.0,0.0,0.0,0.0,0.0,0.0,0.0,0.0,0.0,0.0,0.0,0.0,0.0,0.0,0.0,0.0,0.0,0.0,0.0,0.0,0.0,0.0,0.0,0.0,0.0,0.0,0.0,0.0,0.0,0.0,0.0,0.0,0.0,0.0,0.0,0.0,0.0,0.0,0.0,0.0,0.0,0.0,0.0,0.0,0.0,0.0,0.0,0.0,0.0,0.0,0.0,0.0,0.0,0.0,0.0,0.0,0.0,0.0,0.0,0.0,0.0,0.0,0.0,0.0,0.0,0.0,0.0,0.0,0.0,0.0,0.0,0.0,0.0,0.0,0.0,0.0,0.0,0.0,0.0,0.0,0.0,0.0,0.0,0.0,0.0,0.0,0.0,0.0,0.0,0.0,0.0,0.0,0.0,0.0,0.0,0.0,0.0,0.0,0.0,0.0,0.0,12.8456,13.2568,13.2792,13.2867,13.2942,13.2792,13.1235,12.7508,12.0933,11.8833,0.0,0.0,0.0,0.0,0.0,0.0,0.0,0.0,0.0,0.0,0.0,0.0,0.0,0.0,0.0,0.0,0.0,0.0,0.0,0.0,0.0,0.0,0.0,0.0,0.0,0.0,0.0,0.0,0.0,0.0,0.0,0.0,0.0,0.0,0.0,0.0,0.0,0.0,0.0,0.0,0.0,0.0,0.0,0.0,0.0,0.0,0.0,0.0,0.0,0.0,0.0,0.0,0.0,0.0,0.0,0.0,0.0,0.0,0.0,0.0,0.0,0.0,0.0,0.0,0.0,0.0,0.0,0.0,0.0,0.0,0.0,0.0,0.0,0.0,0.0,0.0,0.0,0.0,0.0,0.0,0.0,0.0,0.0,0.0,0.0,0.0,0.0,0.0,0.0,0.0,0.0,0.0,0.0,0.0,0.0,0.0,0.0,0.0,0.0,0.0,0.0,0.0,12.4804,12.8244,13.0792,13.2201,13.2425,13.1166,12.9521,12.5857,11.9201,11.6055,0.0,0.0,0.0,0.0,0.0,0.0,0.0,0.0,0.0,0.0,0.0,0.0,0.0,0.0,0.0,0.0,0.0,0.0,0.0,0.0,0.0,0.0,0.0,0.0,0.0,0.0,0.0,0.0,0.0,0.0,0.0,0.0,0.0,0.0,0.0,0.0,0.0,0.0,0.0,0.0,0.0,0.0,0.0,0.0,0.0,0.0,0.0,0.0,0.0,0.0,0.0,0.0,0.0,0.0,0.0,0.0,0.0,0.0,0.0,0.0,0.0,0.0,0.0,0.0,0.0,0.0,0.0,0.0,0.0,0.0,0.0,0.0,0.0,0.0,0.0,0.0,0.0,0.0,0.0,0.0,0.0,0.0,0.0,0.0,0.0,0.0,0.0,0.0,0.0,0.0,0.0,0.0,0.0,0.0,0.0,0.0,0.0,0.0,0.0,0.0,0.0,0.0,12.0329,12.4885,12.8923,13.0188,13.0038,12.8325,12.7427,12.4131,11.7476,11.3213,0.0,0.0,0.0,0.0,0.0,0.0,0.0,0.0,0.0,0.0,0.0,0.0,0.0,0.0,0.0,0.0,0.0,0.0,0.0,0.0,0.0,0.0,0.0,0.0,0.0,0.0,0.0,0.0,0.0,0.0,0.0,0.0,0.0,0.0,0.0,0.0,0.0,0.0,0.0,0.0,0.0,0.0,0.0,0.0,0.0,0.0,0.0,0.0,0.0,0.0,0.0,0.0,0.0,0.0,0.0,0.0,0.0,0.0,0.0,0.0,0.0,0.0,0.0,0.0,0.0,0.0,0.0,0.0,0.0,0.0,0.0,0.0,0.0,0.0,0.0,0.0,0.0,0.0,0.0,0.0,0.0,0.0,0.0,0.0,0.0,0.0,0.0,0.0,0.0,0.0,0.0,0.0,0.0,0.0,0.0,0.0,0.0,0.0,0.0,0.0,0.0,0.0,0.0,12.1899,12.6156,12.7053,12.6748,12.5321,12.4954,12.2187,11.6055,0.0,0.0,0.0,0.0,0.0,0.0,0.0,0.0,0.0,0.0,0.0,0.0,0.0,0.0,0.0,0.0,0.0,0.0,0.0,0.0,0.0,0.0,0.0,0.0,0.0,0.0,0.0,0.0,0.0,0.0,0.0,0.0,0.0,0.0,0.0,0.0,0.0,0.0,0.0,0.0,0.0,0.0,0.0,0.0,0.0,0.0,0.0,0.0,0.0,0.0,0.0,0.0,0.0,0.0,0.0,0.0,0.0,0.0,0.0,0.0,0.0,0.0,0.0,0.0,0.0,0.0,0.0,0.0,0.0,0.0,0.0,0.0,0.0,0.0,0.0,0.0,0.0,0.0,0.0,0.0,0.0,0.0,0.0,0.0,0.0,0.0,0.0,0.0,0.0,0.0,0.0,0.0,0.0,0.0,0.0,0.0,0.0,0.0,0.0,0.0,0.0,0.0,0.0,0.0,11.8827,11.965,12.2187,12.3751,12.3446,12.2193,11.9805,11.5905,0.0,0.0,0.0,0.0,0.0,0.0,0.0,0.0,0.0,0.0,0.0,0.0,0.0,0.0]}],[{"header":{"parameterUnit":"kt","parameterCategory":2,"dx":1,"dy":1,"la1":29.285339999999998,"la2":30.599998999999997,"lo1":-89.70041500000002,"lo2":-87.6738589999976,"nx":112,"ny":82,"refTime":"2022-10-13T12:00:00:Z","depth":0,"parameterNumber":2,"parameterNumberName":"V-component_of_WINDS"},"data":[9.726,9.8095,9.874,9.7154,9.7154,9.72,9.5795,9.5491,9.5339,9.4679,9.4383,9.4345,9.4952,9.3889,9.3206,9.4047,9.2978,9.1953,0.0,9.1839,9.2029,9.2029,9.4003,9.5673,9.6592,9.8947,10.0656,10.1226,10.2556,10.3201,10.2973,10.3201,10.3467,10.3771,10.4254,10.4709,10.4963,10.4963,10.4963,10.4963,10.4963,10.4963,10.4963,10.4963,10.4963,10.4963,10.4963,10.4963,10.5001,10.562,10.5457,10.4887,10.4113,10.3239,10.2345,10.1738,10.1548,10.1358,10.0296,9.9916,9.9916,9.9916,9.9916,9.9916,9.9916,9.9916,9.9916,9.9916,9.8771,9.763,9.7964,9.621,9.4485,9.4821,9.4389,9.3908,9.3908,9.3908,9.3908,9.3908,9.3908,9.3908,9.3908,9.3908,9.3908,9.3908,9.3908,9.3908,9.3908,9.3908,9.3908,9.3908,9.3908,9.3908,9.3908,9.3908,9.3908,9.3908,9.3908,9.3908,9.3908,9.3908,9.1754,8.711,8.7327,8.3908,7.6615,7.5422,7.3443,7.0653,6.9173,6.8405,9.6053,9.6623,9.7078,9.5408,9.5408,9.5567,9.4427,9.4389,9.4351,9.3471,9.3737,9.3965,9.3395,9.2908,9.2414,9.2105,9.2067,9.1877,0.0,9.1996,9.2756,9.3288,9.5332,9.704,9.7875,10.0239,10.1406,10.0875,10.267,10.3391,10.2507,10.3315,10.382,10.382,10.4557,10.4963,10.4963,10.4963,10.4963,10.4963,10.4963,10.4963,10.4963,10.4963,10.5153,10.5469,10.5469,10.557,10.5874,10.6456,10.638,10.5722,10.4987,10.4303,10.3722,10.3418,10.2914,10.2317,10.1131,10.041,9.9916,9.9916,9.9916,9.9916,9.9916,9.9916,9.9916,9.9916,9.8534,9.7154,9.7868,9.5971,9.4053,9.4773,9.4389,9.3908,9.3908,9.3908,9.3908,9.3908,9.3908,9.3908,9.3908,9.3908,9.3908,9.3908,9.3908,9.3908,9.3908,9.3908,9.3908,9.3908,9.3908,9.3908,9.3908,9.3908,9.3246,9.1811,9.1714,9.1084,8.9641,8.9544,8.7558,8.3264,8.3165,7.9689,7.2632,7.2632,7.1213,6.8405,6.8405,6.8301,9.5605,9.4966,9.4586,9.2946,9.2528,9.2528,9.2528,9.313,9.3471,9.268,9.3819,9.4548,9.287,9.2566,9.1806,8.9413,9.0358,0.0,0.0,9.1161,9.3288,9.5004,9.663,9.796,9.8711,10.1027,10.1738,10.0144,10.2404,10.3429,10.2545,10.3315,10.382,10.3809,10.4595,10.4963,10.4963,10.4963,10.4963,10.4963,10.4963,10.4963,10.4963,10.5001,10.5506,10.6354,10.6354,10.6797,10.7519,10.7506,10.7519,10.7443,10.6645,10.6342,10.6254,10.5293,10.3928,10.2448,10.2372,10.1272,9.9907,9.9954,9.9916,9.9916,9.9916,9.9916,9.9916,9.9869,9.8486,9.6963,9.6963,9.5397,9.3908,9.3908,9.3908,9.3908,9.3908,9.3908,9.3908,9.3908,9.3908,9.3908,9.3908,9.3908,9.3908,9.3908,9.3908,9.3908,9.3908,9.3908,9.3908,9.3908,9.3908,9.3908,9.3908,9.3764,9.1907,8.7754,8.7362,8.5416,8.1213,8.1064,7.912,7.4932,7.4831,7.2734,6.8405,6.8405,6.8405,6.8405,6.8405,6.8144,9.3743,9.3212,9.3098,9.2642,9.2528,9.2528,9.2528,9.313,9.3471,9.268,9.332,0.0,0.0,0.0,9.3357,9.3326,0.0,9.4496,9.3478,9.4997,9.6592,9.761,9.8141,9.8749,9.9537,10.132,10.2279,10.1776,10.3049,10.3657,10.3429,10.3657,10.4075,10.4633,10.4849,10.4963,10.4963,10.4963,10.4963,10.4963,10.4963,10.4963,10.5001,10.5658,10.6076,10.6392,10.6911,10.7291,10.7557,10.8113,10.7999,10.7481,10.7253,10.7388,10.7499,10.5434,10.3932,10.2624,10.1025,10.0142,9.9797,9.9907,9.9916,9.9916,9.9916,9.9916,9.9775,9.9112,9.8011,9.682,9.6056,9.4869,9.3908,9.3908,9.3908,9.3908,9.3908,9.3908,9.3908,9.3908,9.3908,9.3908,9.3908,9.3908,9.3908,9.3908,9.3908,9.3908,9.3908,9.3908,9.3908,9.3908,9.3908,9.3908,9.3908,9.1036,8.873,8.7558,8.453,8.2305,8.1113,8.1064,7.912,7.4932,7.4831,7.2734,6.8405,6.8405,6.8405,6.8405,6.804,6.7781,9.107,9.0405,9.051,9.0895,9.0971,9.1085,9.1426,9.237,9.2978,9.2143,0.0,0.0,0.0,0.0,0.0,0.0,9.4541,9.5294,9.4161,9.6364,9.8217,9.8711,9.9394,9.985,9.9916,10.1434,10.2317,10.1976,10.3087,10.382,10.382,10.4113,10.4519,10.4963,10.4963,10.4963,10.4963,10.4963,10.4963,10.4963,10.4963,10.5153,10.5582,10.6126,10.6683,10.7329,10.7771,10.8189,10.8582,10.9075,10.8999,10.8544,10.8544,10.848,10.8043,10.6301,10.4728,10.3249,10.13,10.0123,9.9514,9.9234,9.8938,9.8676,9.8676,9.8676,9.8581,9.8059,9.7154,9.6199,9.5625,9.4677,9.3908,9.3908,9.3908,9.3908,9.3908,9.3908,9.3908,9.3908,9.3908,9.3908,9.3908,9.3908,9.3908,9.3908,9.3908,9.3908,9.3908,9.3908,9.3908,9.3908,9.3908,9.3908,9.3908,8.9933,8.746,8.746,8.1778,7.847,7.847,7.6744,7.4629,7.2203,7.2152,7.0907,6.8405,6.8405,6.8301,6.8041,6.7521,6.7131,8.8206,8.7376,8.7697,8.849,8.876,8.9109,9.0054,0.0,9.2484,9.1871,0.0,9.489,9.3364,0.0,0.0,9.1231,9.3553,9.5035,9.3478,9.6585,9.9052,9.9052,10.0343,10.0989,10.0258,10.1472,10.209,10.1606,10.2935,10.3809,10.3923,10.4595,10.4963,10.4963,10.4963,10.4963,10.4963,10.4963,10.4963,10.4963,10.5077,10.5582,10.6354,10.6494,10.7367,10.8682,10.8796,10.9303,11.0038,11.0038,11.0038,10.9986,10.9882,10.9102,10.7947,10.706,10.5556,10.371,10.21,10.052,9.9173,9.8277,9.7552,9.6963,9.6963,9.6963,9.7,9.6868,9.6151,9.5433,9.5253,9.4581,9.3908,9.3908,9.3908,9.3908,9.3908,9.3908,9.3908,9.3908,9.3908,9.3908,9.3908,9.3908,9.3716,9.3198,9.315,9.315,9.315,9.315,9.315,9.315,9.315,9.2957,9.2474,8.8486,8.6055,8.6055,7.854,7.4124,7.4124,7.0449,6.8405,6.8405,6.8405,6.8405,6.8405,6.8353,6.8041,6.7521,6.6899,6.6353,8.7109,8.6882,8.7531,8.7694,8.8298,8.9413,0.0,0.0,0.0,9.5021,9.6243,9.701,9.6668,9.6744,9.666,9.6212,9.7724,9.8626,9.7686,9.9394,10.0761,10.0761,10.1112,10.1444,10.1938,10.1672,10.2024,10.3201,10.363,10.4075,10.4747,10.4887,10.4963,10.4963,10.4963,10.4963,10.4963,10.4963,10.4963,10.5001,10.5734,10.6114,10.6392,10.7671,10.8379,10.872,10.9455,10.9835,11.0038,11.0038,11.0038,10.9934,10.8998,10.7954,10.6833,10.5048,10.3606,10.2181,10.0165,9.9318,9.8799,9.7595,9.7111,9.6963,9.6963,9.6963,9.682,9.6008,9.5625,9.5253,9.4389,9.4053,9.3908,9.3908,9.3908,9.3908,9.3908,9.3908,9.3908,9.3908,9.3908,9.3908,9.3908,9.3908,9.2716,8.9252,8.873,8.873,8.873,8.873,8.873,8.873,8.873,8.7313,8.3839,7.9689,7.7267,7.7267,7.2508,6.9658,6.9658,6.8866,6.8405,6.8405,6.8405,6.8405,6.8405,6.8014,6.7495,6.6873,6.6301,6.5964,8.4827,8.4884,8.5819,8.7138,8.8092,0.0,0.0,9.3471,9.5059,9.5522,9.6964,9.8027,9.7656,9.758,9.7732,9.8065,9.8825,9.9613,10.0495,10.0989,10.1406,10.1824,10.1482,10.1558,10.2393,10.209,10.2404,10.3695,10.4189,10.4557,10.4963,10.4963,10.4963,10.4963,10.4963,10.4963,10.4963,10.4963,10.5191,10.5658,10.6126,10.6721,10.7557,10.8303,10.891,10.9379,10.9797,11.0038,11.0038,11.0038,11.0038,10.9934,10.9362,10.8163,10.6519,10.5152,10.3305,10.1203,9.9372,9.8209,9.7374,9.6362,9.5759,9.5481,9.5481,9.5481,9.5337,9.4773,9.4677,9.4533,9.4004,9.3908,9.3908,9.3908,9.3908,9.3908,9.3908,9.3908,9.3908,9.3908,9.3908,9.3908,9.3908,9.2101,8.9933,8.7803,8.5662,8.4283,8.4283,8.6104,8.6643,8.448,8.6202,8.5711,8.1412,7.7217,7.4831,7.4831,7.0805,6.8405,6.8405,6.8405,6.8405,6.8405,6.8405,6.8275,6.804,6.7469,6.6847,6.6275,6.5678,6.5418,8.2717,8.3122,8.4377,8.6619,8.791,0.0,9.1427,9.4015,9.5978,9.5977,9.7572,9.8862,9.8415,9.8301,9.8521,9.9356,9.947,10.0115,10.1976,10.1634,10.1482,10.2128,10.1786,10.1786,10.2621,10.2697,10.3077,10.3961,10.4633,10.4963,10.4963,10.4963,10.4963,10.4963,10.4963,10.4963,10.4963,10.4963,10.5469,10.6354,10.6506,10.7291,10.8682,10.8834,10.9341,11.0038,11.0038,11.0038,11.0038,11.0038,10.9882,10.9675,10.9466,10.8163,10.6257,10.5256,10.3155,10.0653,9.8907,9.7425,9.607,9.5143,9.4395,9.3908,9.3908,9.3908,9.3908,9.3908,9.3908,9.3908,9.3908,9.3908,9.3908,9.3908,9.3908,9.3908,9.3908,9.3908,9.3908,9.3908,9.3908,9.3619,9.2764,8.9787,8.6888,8.5268,8.2075,7.9869,7.9869,8.2899,8.3691,8.0218,8.2949,8.3295,7.897,7.5537,7.3595,7.3595,7.0296,6.8405,6.8405,6.8405,6.8405,6.8405,6.8405,6.8196,6.7625,6.7003,6.6353,6.5678,6.5185,6.4951,8.2275,8.3486,8.4876,8.5985,8.739,0.0,9.3647,9.4814,9.5796,9.8743,9.9575,9.9992,10.0723,10.0884,10.115,10.19,10.2052,10.19,10.1492,10.134,10.134,10.1416,10.1938,10.2659,10.3543,10.3619,10.3999,10.4774,10.4925,10.4963,10.4963,10.4963,10.4963,10.4963,10.4963,10.4963,10.4963,10.4963,10.5469,10.6354,10.7025,10.7809,10.8682,10.9493,10.991,11.0038,11.0038,11.0038,11.0038,11.0038,10.9414,10.8372,10.7431,10.6314,10.4942,10.315,10.1788,10.053,9.8301,9.6912,9.5963,9.4466,9.398,9.3908,9.3908,9.3908,9.3908,9.3908,9.3908,9.3908,9.3908,9.3908,9.3908,9.3908,9.3908,9.3908,9.3908,9.3908,9.3908,9.3908,9.3908,9.2667,8.8828,8.7803,8.4924,7.7368,7.581,7.5537,7.5537,7.5911,7.6062,7.5587,7.5961,7.4477,7.022,6.9403,6.9173,6.9173,6.8712,6.8405,6.8405,6.8405,6.8405,6.8405,6.8405,6.8196,6.7625,6.7003,6.6096,6.5055,6.4977,6.4951,8.1274,8.241,8.3837,8.629,0.0,0.0,9.4246,9.6454,9.8197,9.9632,10.0675,10.1472,10.1862,10.1938,10.2052,10.2393,10.2887,10.2935,10.2052,10.1938,10.2128,10.267,10.3049,10.3581,10.4405,10.4481,10.4633,10.4963,10.4963,10.4963,10.4963,10.4963,10.4963,10.4963,10.4963,10.4963,10.4963,10.4963,10.5646,10.6987,10.7329,10.8202,10.9455,10.9835,11.0038,11.0038,11.0038,11.0038,11.0038,11.0038,10.931,10.8178,10.7276,10.5841,10.4113,10.2848,10.1149,9.9334,9.7909,9.6555,9.5357,9.4265,9.3908,9.3908,9.3908,9.3908,9.3908,9.3908,9.3908,9.3908,9.3908,9.3908,9.3908,9.3908,9.3908,9.3908,9.3908,9.3908,9.315,9.0613,9.0176,8.8779,8.448,8.1728,7.892,7.5385,7.2683,7.1111,7.1111,7.3291,7.3871,7.1339,7.3342,7.3089,6.8815,6.8405,6.8405,6.8405,6.8405,6.8405,6.8405,6.8405,6.8405,6.8405,6.8405,6.8196,6.7625,6.7003,6.6301,6.547,6.5107,6.4951,8.0841,0.0,0.0,0.0,0.0,0.0,9.4595,9.7535,9.9661,10.0172,10.1434,10.2469,10.2469,10.2659,10.2735,10.2507,10.3201,10.3391,10.2279,10.2507,10.3087,10.3695,10.3999,10.433,10.4925,10.4963,10.4963,10.4963,10.4963,10.4963,10.4963,10.4963,10.4963,10.4963,10.4963,10.4963,10.4963,10.5191,10.6076,10.7519,10.7696,10.8582,11.0038,11.0038,11.0038,11.0038,11.0038,11.0038,10.9986,10.9675,10.8743,10.744,10.6533,10.4758,10.2591,10.1797,9.994,9.7767,9.7019,9.5843,9.4644,9.4038,9.3908,9.3908,9.3908,9.3908,9.3908,9.3908,9.3908,9.3908,9.3908,9.3908,9.3908,9.3908,9.3908,9.3908,9.3908,9.3908,9.2619,8.8291,8.746,8.576,8.0267,7.6816,7.4427,7.3241,7.0398,6.8405,6.8405,7.1162,7.1847,6.8764,7.1213,7.1796,6.8712,6.8405,6.8405,6.8405,6.8405,6.8405,6.8405,6.8405,6.8405,6.8405,6.8405,6.8145,6.7574,6.7003,6.6278,6.56,6.5159,6.4951,0.0,0.0,0.0,8.7365,8.902,9.0794,9.5015,9.7346,9.9101,10.0883,10.1862,10.2469,10.2469,10.3163,10.3467,10.2583,10.3201,10.3201,10.1568,10.2708,10.3733,10.382,10.4481,10.4963,10.4963,10.4963,10.4963,10.4963,10.4963,10.4963,10.4963,10.4963,10.4963,10.4963,10.4963,10.4963,10.4963,10.5848,10.6683,10.7519,10.8265,10.91,11.0038,11.0038,11.0038,11.0038,11.0038,11.0038,10.9934,10.8789,10.7262,10.5519,10.4339,10.2256,9.9757,9.8958,9.7639,9.6177,9.5344,9.4609,9.3944,9.386,9.3908,9.3908,9.3908,9.3908,9.3908,9.3908,9.3908,9.3908,9.3908,9.3908,9.3908,9.3908,9.3908,9.3908,9.3908,9.3908,9.2619,8.8291,8.746,8.4825,7.6464,7.4932,7.3443,6.9276,6.8508,6.8405,6.8405,6.8559,6.8559,6.8431,6.8559,6.8559,6.8431,6.8405,6.8405,6.8405,6.8405,6.8405,6.8405,6.8405,6.8405,6.8405,6.8405,6.8119,6.7447,6.6926,6.607,6.4928,6.4902,6.4951,8.1365,8.2599,8.3972,8.8066,9.0656,9.2952,9.5846,9.8486,10.0642,10.1564,10.2627,10.3505,10.4015,10.3912,10.3505,10.2583,10.3201,10.363,10.3011,10.3874,10.4595,10.4595,10.4812,10.4963,10.4963,10.4963,10.4963,10.4963,10.4963,10.4963,10.4963,10.4963,10.4963,10.4963,10.4963,10.4963,10.4963,10.5886,10.6683,10.7519,10.8303,10.9138,11.0038,11.0038,11.0038,11.0038,11.0038,10.9268,10.7963,10.6369,10.4547,10.2678,10.1266,9.9683,9.8052,9.7318,9.6676,9.6106,9.5357,9.4894,9.4573,9.4087,9.3908,9.3908,9.3908,9.3908,9.3908,9.3908,9.3908,9.3908,9.3908,9.3908,9.3908,9.3908,9.3908,9.3908,9.3908,9.1665,8.834,8.4036,8.0983,7.7267,7.1542,7.0551,7.0118,6.861,6.8405,6.8405,6.8405,6.8405,6.8405,6.8405,6.8405,6.8405,6.8405,6.8405,6.8405,6.8405,6.8405,6.8405,6.8405,6.8405,6.8405,6.8405,6.8405,6.7938,6.6952,6.6745,6.6044,6.4951,6.4951,6.4951,8.1717,8.3208,8.4837,8.9095,9.1796,9.3922,9.6244,9.8716,10.0844,10.1851,10.2917,10.3859,10.447,10.4368,10.3961,10.3039,10.3608,10.4113,10.3809,10.4481,10.4963,10.4963,10.4963,10.4963,10.4963,10.4963,10.4963,10.4963,10.4963,10.4963,10.4963,10.4963,10.4963,10.4963,10.4963,10.4963,10.4963,10.6152,10.6987,10.7519,10.8606,10.9455,11.0038,11.0038,11.0038,10.9948,10.8677,10.7431,10.61,10.3853,10.2028,10.0484,9.9069,9.7701,9.6484,9.5999,9.5607,9.5322,9.4823,9.4644,9.4573,9.4038,9.3908,9.3908,9.3908,9.3908,9.3908,9.3908,9.3908,9.3908,9.3908,9.3908,9.3908,9.3908,9.3908,9.3054,8.9982,8.7117,8.3938,7.9669,7.6665,7.3494,6.9173,6.8405,6.8405,6.8405,6.8405,6.8405,6.8405,6.8405,6.8405,6.8405,6.8405,6.8405,6.8405,6.8405,6.8405,6.8405,6.8405,6.8405,6.8405,6.8405,6.8405,6.8405,6.8405,6.7964,6.7029,6.6821,6.6174,6.5263,6.5055,6.4951,8.243,8.41,8.5839,9.0474,9.2448,9.3861,9.6073,9.8062,9.9896,10.1694,10.2774,10.3508,10.3753,10.4394,10.4622,10.3885,10.4405,10.4671,10.3885,10.4481,10.4963,10.4963,10.4963,10.4963,10.4963,10.4963,10.4963,10.4963,10.4963,10.4963,10.4963,10.4963,10.4963,10.4963,10.4963,10.4963,10.4963,10.6557,10.7405,10.7519,10.9151,11.0,11.0038,10.9948,10.9873,10.9579,10.6048,10.4493,10.423,10.1303,9.96,9.8812,9.7681,9.627,9.5036,9.5036,9.4537,9.3908,9.3908,9.3908,9.3908,9.3908,9.3908,9.3908,9.3908,9.3908,9.3908,9.3908,9.3908,9.3908,9.3908,9.3908,9.3908,9.3908,9.3716,9.1326,8.3147,8.1213,7.9819,7.5688,7.4679,7.319,6.9122,6.8405,6.8405,6.8405,6.8405,6.8405,6.8405,6.8405,6.8405,6.8405,6.8405,6.8405,6.8405,6.8405,6.8405,6.8405,6.8405,6.8405,6.8405,6.8405,6.8405,6.8405,6.8405,6.8196,6.7625,6.7003,6.6431,6.586,6.5237,6.4951,8.3786,8.6133,8.8014,9.1543,9.3671,9.5145,9.6087,9.8361,10.0497,10.1643,10.2687,10.3409,10.352,10.3836,10.4037,10.3858,10.3961,10.4037,10.3809,10.4481,10.4963,10.4963,10.4963,10.4963,10.4963,10.4963,10.4963,10.4963,10.4963,10.4963,10.4963,10.4963,10.4963,10.4963,10.4963,10.4963,10.4963,10.5381,10.6216,10.7519,10.8492,10.9379,11.0038,10.9341,10.7944,10.5973,10.2784,10.1134,10.0413,9.8135,9.68,9.5999,9.5098,9.4537,9.4145,9.4145,9.4038,9.3908,9.3908,9.3908,9.3908,9.3908,9.3908,9.3908,9.3908,9.3908,9.3908,9.3908,9.3908,9.3908,9.3908,9.3908,9.3908,9.3908,9.1423,8.8486,8.63,8.3345,7.9819,7.5688,7.2254,6.9709,6.861,6.8405,6.8405,6.8405,6.8405,6.8405,6.8405,6.8405,6.8405,6.8405,6.8405,6.8405,6.8405,6.8405,6.8405,6.8405,6.8405,6.8405,6.8405,6.8405,6.8405,6.8405,6.8405,6.8196,6.7625,6.7003,6.6431,6.586,6.5237,6.4951,8.2145,8.5812,8.9226,9.2006,9.4007,9.5443,9.6075,9.746,9.91,10.0764,10.1241,10.1842,10.316,10.3556,10.3799,10.4242,10.4645,10.4759,10.433,10.5051,10.5381,10.5001,10.4963,10.4963,10.4963,10.4963,10.4963,10.4963,10.4963,10.4963,10.4963,10.4963,10.4963,10.4963,10.4963,10.4963,10.4963,10.4963,10.5646,10.6987,10.7733,10.8379,10.8885,10.7553,10.5509,10.281,9.9938,9.8467,9.7897,9.594,9.4929,9.4502,9.4038,9.3908,9.3908,9.3908,9.3908,9.3908,9.3908,9.3908,9.3908,9.3908,9.3908,9.3908,9.3908,9.3908,9.3908,9.3908,9.3908,9.3908,9.3908,9.3908,9.3391,9.152,8.9252,8.6447,8.2719,7.852,7.478,7.2457,7.0067,6.8405,6.8405,6.8405,6.8405,6.8405,6.8405,6.8405,6.8405,6.8405,6.8405,6.8405,6.8405,6.8405,6.8405,6.8405,6.8405,6.8405,6.8405,6.8405,6.8405,6.8405,6.8405,6.8405,6.8405,6.8275,6.7988,6.7107,6.6511,6.6224,6.5341,6.4951,7.9968,8.4564,8.9368,9.2042,9.3967,9.5393,9.607,9.632,9.7081,9.9602,9.9405,9.9603,10.2302,10.3011,10.3496,10.4415,10.5333,10.566,10.4925,10.5582,10.5848,10.5077,10.4963,10.4963,10.4963,10.4963,10.4963,10.4963,10.4963,10.4963,10.4963,10.4849,10.4812,10.4812,10.4698,10.4622,10.4622,10.4622,10.5051,10.5822,10.6607,10.7012,10.6886,10.467,10.24,10.0018,9.7356,9.6218,9.6133,9.4531,9.3908,9.3908,9.3908,9.3908,9.3908,9.3908,9.3908,9.3908,9.3908,9.3908,9.3908,9.3908,9.3908,9.3908,9.3908,9.3908,9.3908,9.3908,9.3908,9.3764,9.315,9.3005,9.1956,8.7656,8.6202,8.3641,7.5688,7.106,6.8405,6.8405,6.8405,6.8405,6.8405,6.8405,6.8405,6.8405,6.8405,6.8405,6.8405,6.8405,6.8405,6.8405,6.8405,6.8405,6.8405,6.8405,6.8405,6.8405,6.8405,6.8405,6.8405,6.8405,6.8405,6.8405,6.8405,6.8405,6.8405,6.734,6.6745,6.6641,6.5574,6.5029,8.2417,8.4984,8.7381,9.165,9.4395,9.607,9.6177,9.6747,9.7746,9.9711,9.897,9.8358,9.9504,10.1045,10.2251,10.2536,10.3296,10.3906,10.4015,10.4709,10.5153,10.5001,10.4963,10.4963,10.4963,10.4963,10.4963,10.4963,10.4963,10.4963,10.4963,10.433,10.3999,10.3999,10.3266,10.2838,10.2838,10.2838,10.2963,10.3115,10.4037,10.4351,10.4008,9.9847,9.7733,9.7198,9.524,9.4328,9.4328,9.3992,9.3908,9.3908,9.3908,9.3908,9.3908,9.3908,9.3908,9.3908,9.3908,9.3908,9.3908,9.3908,9.3908,9.3908,9.3908,9.3908,9.3908,9.3908,9.3908,9.3054,8.9495,8.8584,8.7509,8.3196,7.9489,7.5637,7.0602,6.8969,6.8405,6.8405,6.8405,6.8405,6.8405,6.8405,6.8405,6.8405,6.8405,6.8405,6.8405,6.8405,6.8405,6.8405,6.8405,6.8405,6.8405,6.8405,6.8405,6.8405,6.8405,6.8405,6.8405,6.8405,6.8405,6.8405,6.8405,6.8405,6.8405,6.7807,6.7184,6.6641,6.6016,6.5444,8.1175,8.4171,8.6989,8.9618,9.2648,9.5215,9.6035,9.6213,9.6526,9.7823,9.7491,9.7352,9.869,9.9709,10.0698,10.1781,10.3147,10.3771,10.3027,10.4514,10.5355,10.4443,10.4698,10.4963,10.4963,10.4963,10.4963,10.4963,10.4963,10.4963,10.4963,10.4633,10.4227,10.382,10.3391,10.2925,10.2469,10.2469,10.2469,10.2469,10.2887,10.2729,10.194,9.7854,9.5687,9.5168,9.4279,9.3908,9.3908,9.3908,9.3908,9.3908,9.3908,9.3908,9.3908,9.3908,9.3908,9.3908,9.3908,9.3908,9.3523,9.1278,9.0516,9.0127,8.79,8.7215,8.7215,8.7215,8.7215,8.6741,8.4677,8.4135,8.3048,7.882,7.4578,7.0958,6.8866,6.8405,6.8405,6.8405,6.8405,6.8405,6.8405,6.8405,6.8405,6.8405,6.8405,6.8405,6.8405,6.8405,6.8405,6.8405,6.8405,6.8405,6.8405,6.8405,6.8405,6.8405,6.8405,6.8405,6.8405,6.8405,6.8405,6.8405,6.8405,6.8405,6.8405,6.791,6.7339,6.6641,6.612,6.5548,8.0212,8.3565,8.6775,8.8406,9.0973,9.3659,9.5535,9.55,9.525,9.5856,9.6106,9.6602,9.786,9.8369,9.9151,10.0955,10.2542,10.3319,10.2451,10.412,10.4958,10.3844,10.4051,10.4367,10.4616,10.4616,10.4715,10.4963,10.4963,10.4887,10.4747,10.4348,10.3757,10.2936,10.2757,10.2292,10.16,10.1793,10.189,10.189,10.1697,10.1145,10.0181,9.6916,9.4869,9.3908,9.3908,9.3908,9.3908,9.3908,9.3908,9.3908,9.3908,9.3908,9.3908,9.3908,9.3908,9.3764,9.2812,9.2523,9.1811,8.7509,8.6104,8.5465,8.2107,8.1064,8.1064,8.1064,8.1064,8.0865,7.9968,7.9719,7.867,7.4427,7.0856,6.8405,6.8405,6.8405,6.8405,6.8405,6.8405,6.8405,6.8405,6.8405,6.8405,6.8405,6.8405,6.8405,6.8405,6.8405,6.8405,6.8405,6.8405,6.8405,6.8405,6.8405,6.8405,6.8405,6.8405,6.8405,6.8405,6.8405,6.8405,6.8405,6.8405,6.8405,6.8405,6.8014,6.7392,6.6641,6.625,6.5652,8.2702,8.4413,8.5804,9.0153,9.0973,9.1519,9.4502,9.5143,9.5059,9.5179,9.5749,9.6035,9.5491,9.6561,9.791,9.9043,9.9945,10.1171,10.306,10.2673,10.256,10.3359,10.2686,10.2523,10.3484,10.3534,10.3932,10.4864,10.4963,10.4671,10.3923,10.2188,10.0902,10.0126,9.9388,9.8986,9.8911,9.9718,10.0144,10.0144,9.9291,9.875,9.8348,9.6324,9.4869,9.3908,9.3908,9.3908,9.3908,9.3908,9.3908,9.3908,9.3908,9.3908,9.3908,9.3908,9.3908,9.3295,8.9446,8.8047,8.7362,8.3048,8.166,8.1561,8.1163,8.1064,8.1064,8.1064,8.1064,8.0168,7.6363,7.5436,7.4326,7.0016,6.8712,6.8405,6.8405,6.8405,6.8405,6.8405,6.8405,6.8405,6.8405,6.8405,6.8405,6.8405,6.8405,6.8405,6.8405,6.8405,6.8405,6.8405,6.8405,6.8405,6.8405,6.8405,6.8405,6.8405,6.8405,6.8405,6.8405,6.8405,6.8405,6.8405,6.8405,6.8405,6.8405,6.8379,6.7782,6.6667,6.6615,6.5966,7.9321,8.2073,8.4314,8.6169,8.8523,9.0734,9.1935,9.2612,9.3218,9.4145,9.4217,9.4145,9.4323,9.5642,9.6811,9.7221,9.8861,10.0249,10.0675,10.1341,10.1788,10.167,10.1778,10.2023,10.2473,10.3035,10.3584,10.4019,10.4069,10.3693,10.2914,10.1507,10.0188,9.8842,9.8472,9.8064,9.763,9.7964,9.8154,9.8154,9.7773,9.7206,9.6445,9.511,9.4293,9.3908,9.3908,9.3908,9.3908,9.3908,9.3908,9.3908,9.3908,9.2329,9.003,9.003,8.8389,8.5907,8.4184,8.3592,8.2899,7.867,7.7318,7.6816,7.4253,7.3443,7.3443,7.3443,7.3443,7.3038,7.1417,7.0958,7.0551,6.8815,6.8405,6.8405,6.8405,6.8405,6.8405,6.8405,6.8405,6.8405,6.8405,6.8405,6.8405,6.8405,6.8405,6.8405,6.8405,6.8405,6.8405,6.8405,6.8405,6.8405,6.8405,6.8405,6.8405,6.8405,6.8405,6.8405,6.8405,6.8405,6.8405,6.8405,6.8405,6.8405,6.8405,6.8405,6.7834,6.6667,6.6667,6.6018,7.7256,8.0254,8.2959,8.41,8.6739,8.9307,9.0484,9.0973,9.1721,9.3552,9.3432,9.3147,9.3468,9.4609,9.5607,9.5856,9.7773,9.9308,9.9283,10.0204,10.0751,10.0416,10.0655,10.102,10.1321,10.1986,10.2736,10.3334,10.2911,10.2377,10.1851,10.0326,9.8818,9.7413,9.7377,9.7083,9.6534,9.682,9.6963,9.6963,9.6677,9.6008,9.4917,9.4245,9.3908,9.3908,9.3908,9.3908,9.3908,9.3908,9.3908,9.3764,9.2474,9.0127,8.7313,8.6055,8.3691,8.0865,7.9619,7.922,7.852,7.4326,7.2937,7.2355,6.9327,6.8405,6.8405,6.8405,6.8405,6.8405,6.8405,6.8405,6.8405,6.8405,6.8405,6.8405,6.8405,6.8405,6.8405,6.8405,6.8405,6.8405,6.8405,6.8405,6.8405,6.8405,6.8405,6.8405,6.8405,6.8405,6.8405,6.8405,6.8405,6.8405,6.8405,6.8405,6.8405,6.8405,6.8405,6.8405,6.8405,6.8405,6.8405,6.8405,6.8405,6.8405,6.8405,6.8405,6.7834,6.6667,6.6667,6.6018,7.8037,7.9891,8.2031,8.5883,8.6311,8.6766,9.0687,9.0937,9.1091,9.3409,9.3908,9.3611,9.2862,9.3409,9.4145,9.4965,9.6377,9.8061,9.9833,9.9222,9.897,9.9992,9.9222,9.897,10.0043,10.0143,10.1047,10.3235,10.1745,10.0782,10.0894,9.8195,9.6279,9.5517,9.5481,9.5481,9.5481,9.6486,9.6963,9.6963,9.596,9.4917,9.3908,9.3908,9.3908,9.3908,9.3908,9.3908,9.3908,9.3908,9.3908,9.3475,8.9203,8.7509,8.6937,8.2701,8.1113,8.0467,7.6313,7.4881,7.4174,6.9863,6.8456,6.8456,6.8431,6.8405,6.8405,6.8405,6.8405,6.8405,6.8405,6.8405,6.8405,6.8405,6.8405,6.8405,6.8405,6.8405,6.8405,6.8405,6.8405,6.8405,6.8405,6.8405,6.8405,6.8405,6.8405,6.8405,6.8405,6.8405,6.8405,6.8405,6.8405,6.8405,6.8405,6.8405,6.8405,6.8405,6.8405,6.8405,6.8405,6.8405,6.8405,6.8405,6.8405,6.8405,6.8405,6.8405,6.7834,6.6667,6.6667,6.6018,7.5712,7.8175,8.0676,8.2459,8.435,8.6588,9.0021,9.0591,9.0591,9.134,9.2375,9.2826,9.2078,9.3432,9.4573,9.4288,9.6035,9.7582,9.8146,9.8396,9.8702,9.902,9.8753,9.8702,9.902,9.969,10.0395,10.1098,10.0628,9.9848,9.883,9.7228,9.5703,9.4425,9.4389,9.4389,9.4389,9.4677,9.4869,9.4869,9.4533,9.4197,9.3908,9.3908,9.3908,9.3908,9.3908,9.3908,9.3908,9.3908,9.3908,9.3475,8.9154,8.3906,7.864,7.7318,7.4932,7.2203,7.0907,7.0449,7.022,6.8866,6.8405,6.8405,6.8405,6.8405,6.8405,6.8405,6.8405,6.8405,6.8405,6.8405,6.8405,6.8405,6.8405,6.8405,6.8405,6.8405,6.8405,6.8405,6.8405,6.8405,6.8405,6.8405,6.8405,6.8405,6.8405,6.8405,6.8405,6.8405,6.8405,6.8405,6.8405,6.8405,6.8405,6.8405,6.8405,6.8405,6.8405,6.8405,6.8405,6.8405,6.8405,6.8405,6.8405,6.8405,6.8405,6.8092,6.7444,6.6667,6.6327,6.5704,7.4287,7.6963,7.9749,8.1175,8.2531,8.435,8.7488,8.8416,8.8808,8.9368,9.077,9.1686,9.1186,9.2541,9.3575,9.3076,9.5001,9.6698,9.7304,9.8052,9.8551,9.8551,9.8551,9.8551,9.8551,9.9121,9.9582,9.9695,9.9019,9.8248,9.7377,9.6087,9.4894,9.3944,9.3908,9.4003,9.4323,9.4051,9.4051,9.4323,9.4609,9.4609,9.4323,9.4323,9.4145,9.3908,9.3908,9.3908,9.3908,9.3908,9.3908,9.3619,9.0987,8.4677,7.6816,7.3595,7.0703,6.8405,6.8405,6.8405,6.8405,6.8405,6.8405,6.8405,6.8405,6.8405,6.8405,6.8405,6.8405,6.8405,6.8405,6.8405,6.8405,6.8405,6.8405,6.8405,6.8405,6.8405,6.8405,6.8405,6.8405,6.8405,6.8405,6.8405,6.8405,6.8405,6.8405,6.8405,6.8405,6.8405,6.8405,6.8405,6.8405,6.8405,6.8405,6.8405,6.8405,6.8405,6.8405,6.8405,6.8405,6.8405,6.8405,6.8405,6.8405,6.8301,6.8144,6.7807,6.7209,6.6379,6.6042,6.5548,7.3574,7.6108,7.9107,8.1389,8.0997,8.0896,8.3914,8.5233,8.624,8.7657,8.9236,9.0306,9.0306,9.0973,9.1614,9.1721,9.3384,9.5273,9.6983,9.7802,9.8266,9.8444,9.8444,9.8444,9.8444,9.8515,9.8648,9.8699,9.7221,9.637,9.6483,9.4903,9.398,9.3908,9.3908,9.4217,9.4952,9.4288,9.4359,9.5179,9.5821,9.5785,9.513,9.5059,9.468,9.398,9.3896,9.3908,9.3908,9.3908,9.3908,9.386,9.3571,8.834,8.0018,7.1569,6.8405,6.8405,6.8405,6.8405,6.8405,6.8405,6.8405,6.8405,6.8405,6.8405,6.8405,6.8405,6.8405,6.8405,6.8405,6.8405,6.8405,6.8405,6.8405,6.8405,6.8405,6.8405,6.8405,6.8405,6.8405,6.8405,6.8405,6.8405,6.8405,6.8405,6.8405,6.8405,6.8405,6.8405,6.8405,6.8405,6.8405,6.8405,6.8405,6.8405,6.8405,6.8405,6.8405,6.8405,6.8405,6.8405,6.8405,6.8405,6.8379,6.8144,6.7625,6.7547,6.6949,6.586,6.5883,6.5496,7.2933,7.4857,7.7209,7.9071,8.0605,8.2352,8.4885,8.6062,8.6704,8.7096,8.8416,8.9521,8.9521,9.0616,9.1971,9.3111,9.2256,9.2434,9.5201,9.525,9.5642,9.7446,9.766,9.766,9.766,9.8194,9.8045,9.6952,9.6989,9.6583,9.5485,9.4991,9.4502,9.3908,9.3908,9.4015,9.4145,9.4573,9.5179,9.5963,9.5535,9.5571,9.5928,9.5357,9.4965,9.4751,9.4145,9.3908,9.3908,9.3908,9.3908,9.3571,9.0225,8.5711,8.0018,7.1569,6.8405,6.8405,6.8405,6.8405,6.8405,6.8405,6.8405,6.8405,6.8405,6.8405,6.8405,6.8405,6.8405,6.8405,6.8405,6.8405,6.8405,6.8405,6.8405,6.8405,6.8405,6.8405,6.8405,6.8405,6.8405,6.8405,6.8405,6.8405,6.8405,6.8405,6.8405,6.8405,6.8405,6.8405,6.8405,6.8405,6.8405,6.8405,6.8405,6.8405,6.8405,6.8405,6.8405,6.8405,6.8405,6.8405,6.8405,6.8405,6.804,6.7704,6.7497,6.6691,6.6195,6.586,6.5393,6.5081,7.2719,7.4679,7.6959,7.797,7.9433,8.114,8.3137,8.4171,8.4849,8.5206,8.6525,8.7845,8.8549,8.9083,9.001,9.1982,9.184,9.2149,9.4217,9.5072,9.5856,9.6733,9.7482,9.7767,9.7446,9.7767,9.7517,9.632,9.627,9.5772,9.4573,9.4502,9.4323,9.3908,9.3908,9.4038,9.443,9.5215,9.5642,9.5714,9.5985,9.6177,9.6213,9.5785,9.5344,9.5036,9.4217,9.3908,9.3908,9.3908,9.2716,9.071,8.8389,8.3691,7.7619,7.3038,7.0118,6.8405,6.8405,6.8405,6.8405,6.8405,6.8405,6.8405,6.8405,6.8405,6.8405,6.8405,6.8405,6.8405,6.8405,6.8405,6.8405,6.8405,6.8405,6.8405,6.8405,6.8405,6.8405,6.8405,6.8405,6.8405,6.8405,6.8405,6.8405,6.8405,6.8405,6.8405,6.8405,6.8405,6.8405,6.8405,6.8405,6.8405,6.8405,6.8405,6.8405,6.8405,6.8405,6.8405,6.8405,6.8222,6.8092,6.8092,6.747,6.7055,6.6719,6.6172,6.573,6.5444,6.5107,6.4951,7.2862,7.5,7.7244,7.7649,7.8255,7.9107,8.0569,8.1496,8.2281,8.303,8.4457,8.5946,8.7443,8.7488,8.7809,8.9557,9.1269,9.2612,9.3397,9.5357,9.6555,9.6248,9.7532,9.8123,9.7446,9.7517,9.7125,9.6141,9.5571,9.4858,9.3896,9.3908,9.3908,9.3908,9.4015,9.4395,9.5072,9.5714,9.5785,9.5237,9.6698,9.7019,9.6391,9.6391,9.607,9.5344,9.4573,9.4217,9.4168,9.3398,9.0931,8.7544,8.6807,8.1728,7.4831,7.4831,7.2101,6.8405,6.8405,6.8405,6.8405,6.8405,6.8405,6.8405,6.8405,6.8405,6.8405,6.8405,6.8405,6.8405,6.8405,6.8405,6.8405,6.8405,6.8405,6.8405,6.8405,6.8405,6.8405,6.8405,6.8405,6.8405,6.8405,6.8405,6.8405,6.8405,6.8405,6.8405,6.8405,6.8405,6.8405,6.8405,6.8405,6.8405,6.8405,6.8405,6.8405,6.8405,6.8405,6.8379,6.8275,6.7885,6.7573,6.7495,6.6873,6.6353,6.586,6.586,6.56,6.5081,6.5185,6.5211,7.3503,7.5,7.671,7.818,7.8608,7.8964,7.9897,8.0676,8.1461,8.2245,8.3672,8.4984,8.5919,8.7631,8.8513,8.756,8.9307,9.0973,9.1792,9.2791,9.411,9.5999,9.7019,9.7517,9.741,9.7981,9.7482,9.5344,9.5749,9.5393,9.398,9.3908,9.3908,9.3908,9.4537,9.4965,9.5023,9.5179,9.5535,9.607,9.6947,9.7339,9.7197,9.7197,9.7161,9.6983,9.6213,9.5856,9.5539,9.1228,8.905,8.8045,8.3715,7.912,7.4831,7.4831,7.2101,6.8405,6.8405,6.8405,6.8405,6.8405,6.8405,6.8405,6.8405,6.8405,6.8405,6.8405,6.8405,6.8405,6.8405,6.8405,6.8405,6.8405,6.8405,6.8405,6.8405,6.8405,6.8405,6.8405,6.8405,6.8405,6.8405,6.8405,6.8405,6.8405,6.8405,6.8405,6.8405,6.8405,6.8405,6.8405,6.8405,6.8405,6.8405,6.8405,6.8405,6.8405,6.8405,6.8197,6.7602,6.7626,6.7391,6.6797,6.6275,6.5964,6.586,6.586,6.5808,6.5756,6.6224,6.6382,7.418,7.5997,7.7747,7.8536,7.9036,7.9469,7.9825,8.0498,8.1134,8.1532,8.2852,8.4171,8.4956,8.6668,8.7881,8.7595,8.8406,8.9368,9.0188,9.2042,9.3896,9.5429,9.7019,9.7838,9.7446,9.7304,9.6854,9.5785,9.5215,9.4644,9.3944,9.3908,9.3908,9.3908,9.4217,9.443,9.443,9.5286,9.5678,9.5607,9.6805,9.741,9.741,9.741,9.741,9.7189,9.4014,9.2638,9.2255,8.7454,8.4092,8.1754,7.9145,7.5518,7.1748,7.1474,7.0118,6.8405,6.8405,6.8405,6.8405,6.8405,6.8405,6.8405,6.8405,6.8405,6.8405,6.8405,6.8405,6.8405,6.8405,6.8405,6.8405,6.8405,6.8405,6.8405,6.8405,6.8405,6.8405,6.8405,6.8405,6.8405,6.8405,6.8405,6.8405,6.8405,6.8405,6.8405,6.8405,6.8405,6.8405,6.8405,6.8405,6.8405,6.8405,6.8405,6.8275,6.804,6.8014,6.7704,6.7082,6.7107,6.6847,6.6275,6.6016,6.6016,6.6327,6.6327,6.6327,6.6327,6.6537,6.6667,7.5392,0.0,7.9112,7.9428,7.9718,7.9932,0.0,8.0355,8.0676,8.1247,8.2281,8.3387,8.4378,8.5848,8.7096,8.7657,8.7943,8.8335,8.9083,9.1258,9.3254,9.4644,9.6662,9.7838,9.7446,9.684,9.6427,9.6248,9.4929,9.4074,9.3908,9.4038,9.4074,9.386,9.4038,9.4252,9.4395,9.5821,9.6213,9.5593,9.6983,9.7589,9.741,9.7589,9.766,9.7374,9.2339,9.0155,8.9718,8.3991,7.9672,7.654,7.4938,7.2347,6.934,6.8821,6.8613,6.8587,6.8457,6.8405,6.8405,6.8405,6.8405,6.8405,6.8405,6.8405,6.8405,6.8405,6.8405,6.8405,6.8405,6.8405,6.8405,6.8405,6.8405,6.8405,6.8405,6.8405,6.8405,6.8405,6.8405,6.8405,6.8405,6.8405,6.8405,6.8405,6.8405,6.8405,6.8405,6.8405,6.8405,6.8405,6.8405,6.8405,6.8405,6.8301,6.7964,6.7469,6.7417,6.7107,6.6535,6.6509,6.625,6.5678,6.5652,6.5938,6.6509,6.6795,6.6925,6.6925,6.7004,6.7056,0.0,7.9107,8.0182,8.1603,8.089,8.0111,8.0819,7.9891,0.0,8.171,8.2245,8.278,8.4271,8.5848,8.6882,8.6953,8.7595,8.8335,8.9083,8.945,9.0663,9.3611,9.5393,9.6676,9.7339,9.7339,9.6983,9.6284,9.5464,9.4644,9.3944,9.4573,9.4644,9.3908,9.4573,9.5322,9.6035,9.6876,9.7268,9.7232,9.8052,9.8087,9.741,9.8123,9.8444,9.8242,9.3749,9.1788,9.1054,8.1865,7.7906,7.7169,7.2455,7.0356,7.0042,6.9366,6.9132,6.908,6.8587,6.8405,6.8405,6.8405,6.8405,6.8405,6.8405,6.8405,6.8405,6.8405,6.8405,6.8405,6.8405,6.8405,6.8405,6.8405,6.8405,6.8405,6.8405,6.8405,6.8405,6.8405,6.8405,6.8405,6.8405,6.8405,6.8405,6.8405,6.8405,6.8405,6.8405,6.8405,6.8405,6.8405,6.8405,6.8405,6.8405,6.7988,6.7443,6.6821,6.6719,6.6509,6.5964,6.5938,6.5652,6.5029,6.5003,6.5315,6.5938,6.7053,6.7573,6.7573,6.8041,6.8301,7.7966,7.9642,8.089,8.196,8.1074,8.0111,8.089,7.9856,7.925,8.114,8.1889,8.2566,8.3636,8.5491,8.6882,8.6882,8.756,8.8156,8.8442,8.9761,9.1115,9.2292,9.5108,9.7232,9.8016,9.7232,9.652,9.6248,9.5036,9.4181,9.3908,9.4145,9.4229,9.386,9.4644,9.4965,9.4751,9.6035,9.6676,9.6662,9.7945,9.8372,9.8123,9.8408,9.8551,9.8298,9.3885,9.1921,0.0,8.5014,8.0743,7.8031,7.5757,7.3199,7.0535,6.9547,6.921,6.9132,6.8613,6.8405,6.8405,6.8405,6.8405,6.8405,6.8405,6.8405,6.8405,6.8405,6.8405,6.8405,6.8405,6.8405,6.8405,6.8405,6.8405,6.8405,6.8405,6.8405,6.8405,6.8405,6.8405,6.8405,6.8405,6.8405,6.8405,6.8405,6.8405,6.8405,6.8405,6.8405,6.8405,6.8405,6.8405,6.8119,6.7418,6.7158,6.6795,6.6224,6.6198,6.5912,6.5315,6.5289,6.5185,6.4902,6.5629,6.6122,6.6405,6.7548,6.8144,6.8144,6.8327,6.8405,7.8639,8.0426,8.1675,8.2709,8.1603,8.0391,8.0961,7.9642,7.8826,8.0355,8.1104,8.1853,8.318,8.4885,8.6311,8.6811,8.7346,8.7764,8.8014,8.9654,9.083,9.083,9.386,9.6306,9.7339,9.6712,9.6106,9.5892,9.4609,9.3908,9.3908,9.411,9.411,9.386,9.4644,9.4823,9.4252,9.5571,9.6213,9.6248,9.7553,9.8194,9.8194,9.8408,9.8551,9.8298,9.3885,9.115,8.9448,8.4896,8.041,7.6329,7.5995,7.3842,7.0845,7.0041,6.9625,6.9444,6.8872,6.8691,6.8665,6.8483,6.8405,6.8405,6.8405,6.8405,6.8405,6.8405,6.8405,6.8405,6.8405,6.8405,6.8405,6.8405,6.8405,6.8405,6.8405,6.8405,6.8405,6.8405,6.8405,6.8405,6.8405,6.8405,6.8405,6.8405,6.8405,6.8405,6.8405,6.8405,6.8353,6.8171,6.8145,6.7678,6.6485,6.6457,6.6198,6.5626,6.5574,6.5393,6.4951,6.4951,6.4951,6.4951,6.5756,6.625,6.6457,6.7418,6.7886,6.7886,6.8067,6.8145,7.9957,8.1639,8.2602,8.4164,8.2816,8.1104,8.1068,7.9254,7.797,7.9576,7.9897,8.061,8.2966,8.4029,8.5055,8.6632,8.6882,8.7167,8.7943,8.8727,8.9272,8.9226,9.1293,9.3361,9.4929,9.5785,9.5892,9.5143,9.4323,9.386,9.3908,9.4609,9.468,9.3896,9.4644,9.5023,9.5023,9.5821,9.6213,9.6213,9.6983,9.7325,9.731,9.8108,9.8414,9.8161,9.3748,8.9312,8.4791,8.041,7.5932,7.1807,7.1807,7.1469,7.095,7.095,7.0587,7.0094,6.9392,6.921,6.9106,6.8587,6.8405,6.8405,6.8405,6.8405,6.8405,6.8405,6.8405,6.8405,6.8405,6.8405,6.8405,6.8431,6.8431,6.8431,6.8431,6.8431,6.8431,6.8405,6.8405,6.8405,6.8405,6.8405,6.8405,6.8405,6.8405,6.8405,6.8405,6.8405,6.8197,6.7677,6.7599,6.7157,6.6013,6.586,6.56,6.4977,6.4951,6.4951,6.4951,6.4951,6.4951,6.4951,6.4902,6.5263,6.586,6.6431,6.6667,6.6667,6.7365,6.7625,8.0777,8.2031,8.2602,8.4164,8.3244,8.1746,8.117,7.9678,7.8683,7.9683,7.9897,8.061,8.2966,8.4029,8.4877,8.5919,8.698,8.7764,8.8014,9.0153,9.1472,9.0937,9.2933,9.4787,9.5785,9.6106,9.6141,9.5892,9.5143,9.4466,9.3944,9.4074,9.411,9.386,9.4158,9.4217,9.4217,9.5001,9.5429,9.5429,9.6213,9.4946,9.2031,9.2319,9.0826,8.7925,8.6652,8.5525,8.4468,8.3172,8.0236,7.6516,7.6516,7.4462,7.139,7.0664,7.0302,7.0042,6.9002,6.8665,6.8639,6.8483,6.8405,6.8275,6.747,6.721,6.721,6.721,6.721,6.721,6.721,6.7522,6.8066,6.8769,6.8951,6.8951,6.8951,6.8951,6.8898,6.8483,6.8405,6.8405,6.8405,6.8144,6.7885,6.7885,6.747,6.721,6.721,6.721,6.7158,6.6977,6.6613,6.6117,6.5289,6.5211,6.5133,6.4951,6.4951,6.4951,6.4951,6.4951,6.4951,6.4951,6.5367,6.5678,6.586,6.6431,6.6667,6.6667,6.6873,6.6977,8.0742,8.1996,8.2531,8.3779,8.3387,8.2317,8.0926,7.9897,7.9254,7.9397,7.9683,8.0539,8.2531,8.3565,8.4457,8.5562,8.6525,8.755,8.8798,9.058,9.1828,9.2006,9.329,9.4573,9.5678,9.5464,9.5429,9.5749,9.5036,9.4395,9.3896,9.3908,9.3908,9.3908,9.3908,9.3908,9.3908,9.4359,9.4573,9.4609,9.5393,9.3512,8.9373,8.9673,8.7511,8.3578,8.3578,8.2722,8.1369,8.1369,7.8939,7.519,7.519,7.3337,7.0663,7.0015,6.9626,6.9366,6.8456,6.8118,6.8092,6.7808,6.773,6.76,6.6875,6.6667,6.6667,6.6667,6.6667,6.6667,6.6667,6.6977,6.7392,6.8042,6.8354,6.8535,6.825,6.8198,6.8172,6.8144,6.8118,6.8118,6.8118,6.804,6.7807,6.7365,6.7132,6.6926,6.6693,6.6667,6.6589,6.6405,6.586,6.5341,6.4977,6.4951,6.4951,6.4951,6.4951,6.4951,6.4951,6.4951,6.4951,6.4951,6.5315,6.5496,6.5496,6.6094,6.625,6.5966,6.625,6.6379,8.01,8.1532,8.2317,8.3173,8.3394,8.2823,8.0539,7.9932,7.9683,7.8964,7.929,8.0218,8.1996,8.2887,8.3886,8.5491,8.5848,8.6953,8.9878,9.0413,9.1055,9.2541,9.2719,9.3325,9.4823,9.4288,9.4181,9.5036,9.4395,9.3896,9.3801,9.3873,9.3908,9.3908,9.3908,9.3873,9.3801,9.3753,9.3766,9.3646,9.4395,9.2522,8.8457,8.8725,8.6647,8.2782,8.2375,7.9882,7.6083,7.6083,7.3751,7.0172,7.0172,6.9781,6.921,6.9158,6.8769,6.8249,6.7755,6.7547,6.7469,6.6873,6.6589,6.6511,6.6511,6.6511,6.6511,6.6511,6.6511,6.6511,6.6511,6.6537,6.6589,6.6589,6.7107,6.7495,6.6899,6.6795,6.6925,6.7443,6.7547,6.7547,6.7547,6.7936,6.7834,6.6795,6.6978,6.7032,6.6563,6.6511,6.6304,6.5834,6.5289,6.4951,6.4951,6.4951,6.4951,6.4951,6.4951,6.4951,6.4951,6.4951,6.4951,6.4951,6.4951,6.4951,6.4951,6.5522,6.5496,6.4951,6.5522,6.5782,7.9825,8.0712,8.1639,8.303,8.3394,8.2966,8.1211,8.0361,7.9861,7.9683,7.8791,7.9076,8.2537,8.3287,8.3886,8.5491,8.6731,8.8014,8.9307,9.0509,9.165,9.2612,9.2719,9.3076,9.4038,9.4015,9.4181,9.5036,9.4929,9.4288,9.304,9.3539,9.3908,9.3908,9.3908,9.3623,9.2969,9.2969,9.2648,9.2042,9.2256,9.0385,8.6682,8.3458,8.0076,7.6546,7.3149,7.1348,7.082,7.082,7.0591,7.0172,7.0172,6.9781,6.9158,6.8769,6.83,6.7729,6.7107,6.6899,6.6873,6.6693,6.6044,6.5266,6.5266,6.5266,6.5266,6.5266,6.5266,6.5266,6.5266,6.5678,6.6042,6.6042,6.6871,6.7599,6.7469,6.7443,6.7339,6.6951,6.6899,6.6899,6.6899,6.6639,6.6327,6.6094,6.573,6.5421,6.5292,6.5266,6.5289,6.5159,6.5029,6.4951,6.4951,6.4951,6.4951,6.4951,6.4951,6.4951,6.4951,6.4951,6.4951,6.4951,6.4951,6.4951,6.4951,6.5081,6.5081,6.4951,6.5081,6.5133,7.8893,7.9932,8.0854,8.2424,8.3144,8.3066,8.1889,8.1568,8.136,8.0605,8.0111,8.0325,8.196,8.2852,8.3679,8.4457,8.624,8.7871,8.9093,9.058,9.1864,9.2612,9.2719,9.3004,9.3837,9.3587,9.3504,9.3931,9.3931,9.3432,9.222,9.2541,9.2933,9.3338,9.373,9.2732,9.0255,9.0206,8.8831,8.6166,8.8114,8.6871,8.276,8.0545,7.7432,7.3599,6.9367,6.7756,6.799,6.799,6.8223,6.8483,6.8483,6.8301,6.7913,6.7392,6.7053,6.6715,6.6068,6.5811,6.5811,6.5811,6.5444,6.4951,6.4951,6.4951,6.4951,6.4951,6.4951,6.4951,6.4951,6.5185,6.5496,6.5808,6.6143,6.6455,6.6741,6.6585,6.6327,6.6301,6.6301,6.6301,6.6301,6.6301,6.6068,6.5522,6.5418,6.5289,6.4977,6.4951,6.4951,6.4951,6.4951,6.4951,6.4951,6.4951,6.4951,6.4951,6.4951,6.4951,6.4951,6.4951,6.4951,6.4951,6.4691,6.4535,6.4535,6.4324,6.4194,6.4194,6.4194,6.4194,7.7676,7.8898,7.9861,8.1425,8.2281,8.2716,8.2317,8.2602,8.2638,8.1532,8.1568,8.1746,8.1532,8.2495,8.3422,8.3565,8.4894,8.6584,8.8707,8.9668,9.0756,9.2482,9.2719,9.2898,9.3445,9.3004,9.2612,9.2327,9.2042,9.1686,9.1186,9.1044,9.0965,9.1096,9.254,9.1624,8.8213,8.8299,8.5921,8.1164,8.452,8.3679,7.9231,7.8502,7.6238,7.2679,6.862,6.6745,6.6667,6.6667,6.6667,6.6667,6.6667,6.6589,6.6459,6.6042,6.5808,6.5626,6.5133,6.4951,6.4951,6.4951,6.4951,6.4951,6.4951,6.4951,6.4951,6.4951,6.4951,6.4951,6.4951,6.4951,6.5081,6.56,6.5315,6.5081,6.56,6.5315,6.5107,6.56,6.5704,6.5704,6.5704,6.6094,6.6018,6.5107,6.5393,6.5522,6.5003,6.4951,6.4951,6.4951,6.4951,6.4951,6.4951,6.4951,6.4951,6.4951,6.4847,6.4795,6.4795,6.4717,6.4639,6.4639,6.4246,6.4012,6.4012,6.3592,6.3358,6.3358,6.3358,6.3358,7.6282,7.7181,7.822,7.9825,8.0289,8.0717,8.1924,8.1782,8.1532,8.196,8.1068,8.0789,8.2751,8.3287,8.3601,8.4271,8.2969,8.3335,8.7598,8.6077,8.6513,9.2055,9.2719,9.2505,9.1935,9.2398,9.2149,9.0805,8.944,8.8905,8.9475,8.8905,8.7327,8.4714,8.8659,9.0917,9.0979,9.1698,8.9461,8.4536,8.5063,8.3323,7.9665,7.6031,7.4126,7.3479,6.9334,6.7235,6.6667,6.6667,6.6667,6.6667,6.6667,6.6405,6.5964,6.5886,6.5522,6.5055,6.4977,6.4951,6.4951,6.4951,6.4951,6.4951,6.4951,6.4951,6.4951,6.4951,6.4951,6.4951,6.4951,6.4951,6.4977,6.5055,6.5003,6.4977,6.5055,6.5003,6.4977,6.5055,6.5055,6.5055,6.5055,6.5133,6.5084,6.4977,6.5029,6.5029,6.4951,6.4951,6.4951,6.4951,6.4951,6.4951,6.4951,6.4951,6.4951,6.4951,6.4484,6.4272,6.4272,6.3804,6.3592,6.3592,6.3514,6.3462,6.3462,6.3384,6.3358,6.3358,6.3358,6.3358,7.4572,7.5822,7.7217,7.8822,7.9254,7.9642,8.1211,8.1318,8.1175,8.1532,8.0676,7.9666,7.8933,8.0991,8.2419,8.1457,8.1147,8.2713,8.7365,8.5342,8.5374,9.0765,9.1792,9.105,8.8395,9.0132,9.0191,8.7224,8.596,8.5262,8.5193,8.4884,8.5078,8.5983,8.5881,8.6202,8.6959,8.3069,7.9032,7.4818,7.7084,7.7332,7.5788,7.3973,7.3181,7.2983,6.8833,6.6951,6.6667,6.6667,6.6667,6.6667,6.6667,6.6561,6.6327,6.6327,6.5964,6.547,6.547,6.5237,6.4951,6.4951,6.4951,6.4951,6.4951,6.4951,6.4951,6.4951,6.4951,6.4951,6.4951,6.4951,6.4951,6.4951,6.4951,6.4951,6.4951,6.4951,6.4951,6.4951,6.4951,6.4951,6.4951,6.4951,6.4951,6.4951,6.4951,6.4951,6.4951,6.4951,6.4951,6.4951,6.4665,6.4484,6.4484,6.422,6.4038,6.4038,6.3804,6.3722,6.3722,6.3488,6.3358,6.3358,6.3046,6.2817,6.2817,6.2551,6.2395,6.2395,6.2395,6.2395,7.1611,7.3396,7.5234,7.6005,7.6373,7.697,7.876,7.9146,7.9174,7.935,7.9631,7.8636,7.4685,7.8492,8.1039,7.7368,7.8008,8.0586,8.5011,8.2338,8.2372,8.9257,8.8997,8.7815,8.6869,8.8003,8.6598,8.1146,8.0866,8.0723,8.0272,8.003,8.0879,8.2961,8.1318,8.0237,7.9876,7.5487,7.1434,6.7908,7.1047,7.2016,7.0961,7.11,7.11,7.0814,6.78,6.6356,6.62,6.62,6.62,6.62,6.62,6.62,6.62,6.62,6.599,6.5626,6.547,6.5029,6.451,6.451,6.451,6.451,6.451,6.451,6.451,6.451,6.451,6.4561,6.4691,6.4717,6.4769,6.485,6.4847,6.4717,6.4717,6.4613,6.4561,6.4691,6.4717,6.4769,6.4925,6.4951,6.4951,6.4951,6.4951,6.4847,6.4561,6.4639,6.4691,6.4535,6.4324,6.409,6.396,6.3592,6.3358,6.3358,6.3228,6.3124,6.3124,6.2994,6.2916,6.2916,6.2453,6.2172,6.2172,6.1803,6.1595,6.1595,6.1595,6.1595,6.6645,6.899,7.1371,6.9729,6.9868,7.1049,7.3337,7.3839,7.404,7.4694,7.752,7.7976,7.161,7.6899,7.9814,7.2541,7.2547,7.4819,7.8656,7.3973,7.4847,8.7766,8.3158,8.1931,8.9392,8.6816,8.0846,7.1594,7.3253,7.4917,7.537,7.4675,7.2742,6.9337,7.3256,7.3727,7.0336,7.4315,7.4604,7.112,7.1833,7.0079,6.6284,6.6756,6.6704,6.6257,6.6011,6.5574,6.5029,6.5029,6.5029,6.5029,6.5029,6.5029,6.5029,6.5029,6.5029,6.4925,6.438,6.3882,6.3436,6.3436,6.3436,6.3436,6.3436,6.3436,6.3436,6.3436,6.3436,6.3566,6.4064,6.4194,6.4276,6.4821,6.4535,6.4194,6.4194,6.3778,6.3618,6.409,6.4194,6.4376,6.4847,6.4951,6.4951,6.4951,6.4951,6.4561,6.3592,6.3856,6.3986,6.3488,6.3856,6.3934,6.3462,6.3384,6.3358,6.3358,6.2791,6.2458,6.2458,6.1985,6.1745,6.1745,6.1673,6.1647,6.1647,6.1621,6.1595,6.1595,6.1595,6.1595,6.2683,6.4961,6.7379,6.5238,6.6381,6.8432,6.9779,7.0408,7.0937,7.1665,7.1125,6.9443,6.6024,6.9756,7.2204,6.8755,6.8359,7.015,7.4833,7.2982,7.3172,7.8581,7.9664,7.918,7.7107,7.5217,7.2883,6.9893,7.0598,7.0988,7.0674,7.0393,7.0734,7.1831,7.1108,7.0186,6.9223,6.8466,6.7492,6.622,6.6764,6.6378,6.5289,6.5496,6.547,6.5289,6.5266,6.5136,6.4951,6.4951,6.4951,6.4951,6.4951,6.4951,6.4902,6.4928,6.4695,6.4328,6.3852,6.354,6.3358,6.3358,6.3358,6.3358,6.3358,6.3358,6.3358,6.3358,6.3358,6.341,6.3618,6.367,6.3722,6.3856,6.3752,6.367,6.367,6.3488,6.341,6.3618,6.367,6.3722,6.3882,6.3908,6.3908,6.3908,6.3908,6.3908,6.3856,6.4038,6.422,6.4376,6.3934,6.3566,6.3384,6.2682,6.2265,6.2265,6.2011,6.1907,6.1907,6.1699,6.1595,6.1595,6.1595,6.1595,6.1595,6.1595,6.1595,6.1595,6.1595,6.1595,5.8135,6.046,6.2956,6.0466,6.163,6.359,6.4366,6.4755,6.5131,6.608,6.5417,6.3801,6.0678,6.4482,6.7062,6.3727,6.4359,6.6527,7.016,6.9142,6.932,7.2875,7.396,7.3502,7.1307,6.7866,6.6078,6.6761,6.6549,6.6392,6.628,6.628,6.7408,6.991,6.7547,6.6317,6.6538,6.4211,6.3024,6.3072,6.3644,6.4168,6.4665,6.4665,6.4665,6.4639,6.4484,6.4406,6.438,6.438,6.438,6.438,6.438,6.438,6.438,6.4406,6.3912,6.3232,6.2916,6.2786,6.2786,6.2786,6.2786,6.2786,6.2786,6.2786,6.2786,6.2786,6.2786,6.2838,6.302,6.3024,6.3124,6.3306,6.3202,6.3024,6.3024,6.2916,6.2838,6.2972,6.3024,6.3124,6.3332,6.3358,6.3358,6.3358,6.3358,6.3358,6.331,6.3466,6.3601,6.3782,6.3362,6.2994,6.2812,6.2083,6.1595,6.1595,6.1595,6.1595,6.1595,6.1413,6.1413,6.1595,6.1413,6.1413,6.1595,6.1595,6.1595,6.1595,6.1595,6.1595,5.3024,5.5391,5.8023,5.5325,5.5393,5.632,5.7033,5.6767,5.6643,5.7812,6.0802,6.1463,5.5791,6.1548,6.478,5.7493,6.047,6.3859,6.4356,6.1824,6.2928,7.1057,6.5941,6.4939,7.3119,6.5865,6.0874,6.1517,6.0978,6.1114,6.2276,6.2354,6.2354,6.2406,6.2406,6.2146,6.1673,6.2193,6.2406,6.2406,6.2998,6.3592,6.4064,6.4064,6.409,6.4064,6.3566,6.3332,6.3358,6.3358,6.3358,6.3358,6.3332,6.3332,6.3332,6.3306,6.2603,6.1595,6.1595,6.1595,6.1595,6.1595,6.1595,6.1595,6.1595,6.1595,6.1595,6.1595,6.1595,6.1725,6.2224,6.238,6.2536,6.3202,6.2843,6.238,6.2406,6.2011,6.1777,6.2276,6.238,6.2562,6.3228,6.3306,6.3306,6.3306,6.3306,6.2916,6.1797,6.2042,6.2198,6.1699,6.2094,6.2172,6.1673,6.1621,6.1595,6.1595,6.1595,6.1569,6.1569,6.1004,6.0952,6.1569,6.1004,6.1004,6.1569,6.1569,6.1569,6.1543,6.1543,6.1543,5.1617,5.2251,5.3139,5.1415,5.2978,5.4854,5.4569,5.5054,5.575,5.6548,5.5637,5.4481,5.3677,5.5097,5.6126,5.5349,5.6415,5.7506,5.8037,5.9929,6.1357,6.1477,6.2729,6.3298,6.2697,6.0726,5.975,6.0322,6.0173,6.0406,6.1088,6.1114,6.1503,6.238,6.2406,6.2583,6.289,6.2536,6.2406,6.2406,6.2193,6.2213,6.2297,6.2297,6.2531,6.2873,6.2718,6.2921,6.3358,6.3358,6.3358,6.3306,6.2843,6.2687,6.2588,6.2219,6.1881,6.1595,6.1595,6.1595,6.1595,6.1595,6.1595,6.1595,6.1595,6.1595,6.1595,6.1595,6.1595,6.1647,6.1803,6.1829,6.1985,6.2557,6.2245,6.1959,6.2302,6.2276,6.2094,6.1881,6.212,6.2328,6.2161,6.2135,6.2135,6.2135,6.2135,6.2005,6.1647,6.2042,6.251,6.2864,6.2609,6.2328,6.2172,6.1829,6.1595,6.1595,6.1159,6.0926,6.0926,6.075,6.0724,6.0926,6.1185,6.1185,6.0926,6.0926,6.0718,6.0374,6.0374,6.0374,4.8758,4.8448,4.8899,4.8833,4.9936,5.1215,5.2078,5.2179,5.2453,5.3579,5.2336,5.1251,5.2161,5.22,5.242,5.3512,5.3917,5.4359,5.515,5.7353,5.8432,5.7104,5.9174,5.9818,5.7618,5.8009,5.858,5.9108,5.9367,5.9757,6.0328,6.0309,6.064,6.1315,6.1575,6.1861,6.2245,6.2328,6.2406,6.2406,6.2375,6.2369,6.2369,6.2369,6.2375,6.238,6.2146,6.2297,6.2656,6.2656,6.2656,6.2603,6.2219,6.2042,6.2016,6.1725,6.1595,6.1595,6.1595,6.1595,6.1595,6.1595,6.1595,6.1569,6.1263,6.1413,6.1543,6.1309,6.1413,6.1595,6.1595,6.1595,6.1699,6.2011,6.1855,6.1699,6.2037,6.2042,6.2063,6.1985,6.199,6.2063,6.1959,6.1751,6.1517,6.1237,6.1439,6.1517,6.1237,6.1705,6.2219,6.2603,6.2297,6.1938,6.1705,6.1185,6.0893,6.0893,6.0744,6.0646,6.0646,6.0439,6.0413,6.0646,6.0607,6.0503,6.0309,6.0309,6.0173,5.9861,5.9861,5.9471,4.4962,4.4539,4.5569,4.71,4.6746,4.6738,0.0,4.8694,4.8112,4.9807,5.0145,5.0353,5.1017,5.1473,5.1771,5.1979,5.2681,5.35,5.4503,5.4775,5.5176,5.6001,5.5794,5.5768,5.6219,5.6874,5.742,5.787,5.8554,5.9126,5.9627,5.9731,5.9783,5.9861,6.0328,6.0569,6.0569,6.1601,6.212,6.212,6.2739,6.3072,6.3072,6.315,6.289,6.2276,6.1907,6.1699,6.1699,6.1823,6.1803,6.1803,6.1725,6.1595,6.1413,6.1413,6.1413,6.1413,6.1413,6.1413,6.1413,6.1413,6.1413,6.1335,6.0776,6.1056,6.1413,6.0926,6.1159,6.1595,6.1595,6.1595,6.1621,6.1673,6.1647,6.1621,6.1673,6.1699,6.1829,6.2224,6.2011,6.1829,6.2224,6.1933,6.1439,6.0828,6.1237,6.1413,6.0828,6.1283,6.1595,6.1595,6.1595,6.1387,6.0776,6.0328,6.0017,5.9965,6.0309,6.0569,6.0569,6.0069,5.9991,6.0465,5.9568,5.9282,5.9653,5.9601,5.9549,5.9471,5.9549,5.8718,0.0,0.0,0.0,0.0,0.0,0.0,0.0,4.6166,4.6781,4.7587,4.7707,4.8148,4.9655,4.9629,4.99,5.1239,5.2719,5.3642,5.3448,5.4578,5.516,5.4433,5.5082,5.5654,5.5716,5.6235,5.6624,5.6685,5.7316,5.7887,5.8459,5.897,5.9438,5.9835,5.9965,6.0017,6.0017,6.0224,6.0354,6.0354,6.0926,6.114,6.1211,6.1725,6.1881,6.1777,6.2094,6.225,6.2276,6.2791,6.302,6.2994,6.2479,6.1393,6.0199,6.0199,6.0199,6.0199,6.0199,6.0199,6.0199,6.0199,6.0199,6.025,6.0543,6.0724,6.0952,6.1335,6.1517,6.1595,6.1595,6.1595,6.1725,6.212,6.1933,6.1725,6.2146,6.225,6.2146,6.1829,6.2037,6.212,6.1829,6.1673,6.1569,6.1465,6.1543,6.1569,6.1465,6.1543,6.1595,6.1595,6.1595,6.1569,6.1439,6.1335,6.1075,6.0517,6.0224,6.0017,6.0017,5.9516,5.9282,5.9386,5.9178,5.8892,5.8441,5.8043,5.7576,5.7091,5.7601,5.7368,0.0,0.0,0.0,0.0,0.0,0.0,0.0,0.0,0.0,0.0,0.0,4.7317,4.8174,0.0,4.9447,5.0304,5.1888,5.2901,5.2615,5.381,5.4303,5.3095,5.3524,5.4055,5.4667,5.5238,5.5706,5.5975,5.652,5.6961,5.7247,5.7576,5.7991,5.8562,5.9178,5.949,5.949,5.9991,6.0147,5.9861,6.0147,6.0276,6.0276,6.0588,6.0763,6.0763,6.1004,6.1133,6.1159,6.1491,6.1595,6.1569,6.1283,6.0614,5.9861,5.9861,5.9861,5.9861,5.9861,5.9861,5.9861,5.9861,5.9861,5.9861,5.9861,6.0043,6.0276,6.0322,6.0529,6.0763,6.0763,6.0763,6.0893,6.1419,6.1341,6.1289,6.1907,6.2037,6.2037,6.2037,6.2037,6.2037,6.2037,6.1803,6.1517,6.1185,6.1413,6.1491,6.1159,6.1439,6.1491,6.1159,6.1133,6.103,6.0789,6.0763,6.0503,5.9887,5.9646,5.949,5.949,5.8944,5.8632,5.8632,5.8017,5.7601,5.7247,5.6987,5.6676,5.6348,5.5862,5.542,0.0,0.0,0.0,0.0,0.0,0.0,0.0,0.0,0.0,0.0,0.0,0.0,0.0,0.0,0.0,4.9358,5.1031,5.2226,5.1953,5.2771,5.2953,5.194,5.1875,5.2342,5.342,5.4125,5.4697,5.5212,5.5846,5.6287,5.6348,5.6478,5.678,5.7333,5.8242,5.8684,5.8554,5.9523,5.9764,5.9367,5.9705,0.0,5.9861,6.0095,6.0173,6.0173,6.0173,6.0121,6.0017,6.0017,5.9965,5.9809,5.9367,5.9186,5.9186,5.9186,5.9186,5.9186,5.9186,5.9186,5.9186,5.9186,5.9186,5.916,5.897,5.9204,0.0,5.9282,5.9542,5.9861,5.9861,5.9861,5.9965,6.0387,6.0491,6.0666,6.1179,6.1283,6.1413,6.1835,6.1673,6.1569,6.199,6.1601,6.1081,6.0569,6.0926,6.1101,6.0543,6.103,6.1185,6.0543,6.0595,6.0413,5.9913,5.9861,5.9698,5.9256,5.9274,5.917,5.8892,5.8303,5.7887,5.761,5.6702,5.6131,5.5898,5.5898,5.5846,5.569,5.3708,5.2851,0.0,0.0,0.0,0.0,0.0,0.0,0.0,0.0,0.0,0.0,0.0,0.0,0.0,0.0,0.0,0.0,5.1173,5.2603,5.1525,5.1499,5.1381,5.0795,5.1121,5.1628,5.2238,5.2849,5.346,5.3992,5.5082,5.5872,5.6348,5.6926,0.0,0.0,0.0,5.7264,5.6702,5.7368,5.7697,5.7671,5.9134,5.9861,5.9887,6.0945,6.1413,6.1413,6.1413,6.1081,6.0543,6.0543,6.0257,5.9653,5.7584,5.6737,5.6737,5.6737,5.6737,5.6737,5.6737,0.0,0.0,5.6737,5.6737,5.6961,5.7922,5.8303,5.8536,5.9497,5.9854,5.9861,5.9861,5.9861,5.9861,5.9939,5.9965,5.9965,6.0043,6.0043,6.0069,6.0121,6.0484,6.0776,6.0828,6.0432,6.0017,5.9965,6.0017,6.0017,5.9965,6.0458,6.0543,6.0017,6.0406,0.0,5.9913,5.9861,5.9835,5.9802,5.9757,5.9316,5.8277,5.7705,5.6926,5.5913,5.5758,5.5186,5.4147,5.4147,5.3888,5.3342,5.0311,4.9362,0.0,0.0,0.0,0.0,0.0,0.0,0.0,0.0,0.0,0.0,0.0,0.0,0.0,0.0,0.0,0.0,4.8912,5.016,4.8979,4.9109,4.9343,4.9484,4.9718,5.0212,5.1121,5.1407,5.1836,5.233,5.3486,5.4044,5.3899,5.4797,5.5488,5.5867,5.6189,5.6511,5.6952,5.7186,5.7359,5.7359,5.7705,5.7844,5.7844,5.8381,5.8544,5.8544,5.8544,5.8415,5.8138,5.8138,5.8051,5.774,0.0,0.0,0.0,0.0,5.6374,5.6374,5.6374,5.6374,5.6374,5.6374,5.6374,5.6452,5.6961,5.7351,5.7757,5.8251,5.8614,5.8796,5.8502,5.8381,5.8459,5.8796,5.8874,5.9056,5.9705,5.9861,5.9861,5.9861,6.0043,0.0,5.9297,5.9316,5.9516,5.9854,5.9861,5.9861,5.9861,6.0069,5.9991,5.9464,5.962,5.9672,5.9438,5.9412,0.0,0.0,0.0,5.8892,5.7705,5.7489,0.0,0.0,0.0,5.2662,5.2175,5.1408,0.0,0.0,4.8566,4.8052,0.0,0.0,0.0,0.0,0.0,0.0,0.0,0.0,0.0,0.0,0.0,0.0,0.0,0.0,0.0,0.0,4.6599,4.7639,4.6279,4.6685,4.7308,4.7759,4.8133,4.8704,4.9692,5.0119,5.055,5.1277,5.2109,5.2525,5.2382,5.2965,5.3668,5.4307,5.4708,5.529,5.6163,5.6319,5.6475,5.6631,5.6442,5.6452,5.665,5.6961,5.7117,5.7117,5.7273,5.7169,5.6884,5.6884,5.6659,5.6296,5.5716,5.5456,5.5456,5.5456,5.5456,5.5456,5.5456,5.5456,5.5456,5.5456,5.5456,5.5482,5.5638,5.6121,5.6631,5.6631,5.7004,5.7368,5.6952,5.6848,5.6978,5.7506,5.7636,5.787,5.8744,5.8926,5.8926,5.8926,5.8926,5.8666,5.7792,5.8017,5.8459,5.8848,5.9056,5.916,5.916,5.949,5.9464,5.8892,5.9014,5.8996,5.884,5.9014,5.8962,5.8606,5.8736,5.8242,5.69,5.6735,5.5955,5.4567,5.2371,5.1017,0.0,0.0,0.0,0.0,0.0,0.0,0.0,0.0,0.0,0.0,0.0,0.0,0.0,0.0,0.0,0.0,0.0,0.0,0.0,0.0,0.0,0.0,0.0,0.0,4.3908,4.4661,4.5353,4.5379,4.64,4.7317,4.7843,4.8943,5.007,5.1251,5.1381,5.1849,5.2967,5.2485,5.2459,5.311,5.3162,5.3188,5.3214,5.372,5.4266,5.492,5.5913,5.6702,5.7316,5.8476,5.9014,5.9066,5.9568,5.9134,5.8051,5.8051,5.7403,5.6141,5.3992,5.3148,5.3148,5.3148,5.3148,5.3148,5.3148,5.3148,5.3148,5.3148,5.3148,5.3252,5.3758,5.437,5.492,5.492,5.5254,5.568,5.5654,5.5654,5.581,5.627,5.6426,5.6426,5.6452,5.6478,5.6478,5.6478,5.6478,5.6452,5.6426,5.6426,5.6452,5.6478,5.703,0.0,5.7437,5.8398,5.8866,5.8251,5.871,5.884,5.8181,5.8736,5.8624,5.7489,5.7887,5.7377,5.5732,5.5165,5.4567,5.3888,5.268,5.1177,4.9387,0.0,0.0,0.0,0.0,0.0,0.0,0.0,0.0,0.0,0.0,0.0,0.0,0.0,0.0,0.0,0.0,0.0,0.0,0.0,0.0,0.0,0.0,0.0,0.0,4.298,4.4142,4.4142,4.518,4.5958,4.6105,4.7204,4.8071,4.846,4.9926,5.0665,5.0238,5.0757,5.1147,5.1394,5.1394,5.1719,5.2407,5.2615,5.3005,5.3656,5.4006,5.4318,5.45,5.489,5.5113,5.5113,5.528,5.5124,5.4786,5.4786,5.407,5.2953,5.2174,5.1901,5.1901,5.1901,5.1901,5.1901,5.1901,5.1901,5.1901,5.1901,5.1901,5.1953,5.2096,5.2563,5.3083,5.3552,5.4032,5.4433,5.4433,5.4433,5.4485,5.4667,5.5005,5.5332,5.5332,5.5913,5.6287,5.5923,5.46,5.3796,5.4548,5.503,5.5462,5.5794,5.6339,5.6832,5.7307,5.7316,5.748,5.8051,5.7991,5.8009,5.8103,5.7991,5.7775,5.7385,5.677,5.6017,5.5098,5.4177,5.333,5.268,5.1966,5.0214,4.7428,0.0,0.0,0.0,0.0,0.0,0.0,0.0,0.0,0.0,0.0,0.0,0.0,0.0,0.0,0.0,0.0,0.0,0.0,0.0,0.0,0.0,0.0,0.0,0.0,0.0,0.0,4.3266,4.4305,0.0,4.4713,4.5551,4.6201,4.64,4.7639,4.8325,4.8184,4.8715,4.9287,4.9911,4.9911,5.0342,5.1175,5.12,5.1525,5.2174,5.2174,5.2278,5.2447,5.2629,5.2733,5.2733,5.2967,5.2915,5.2681,5.2083,5.1277,5.042,5.042,5.0252,5.0096,5.0304,5.042,5.0446,5.0616,5.0693,5.0668,5.0498,5.0252,5.0122,5.033,5.0642,5.1005,5.1433,5.1927,5.2382,5.2629,5.2681,5.2733,5.2875,5.3408,5.3824,5.3824,5.4381,5.4652,5.3914,5.2875,5.2264,5.2849,5.3616,5.4255,5.4329,5.5212,5.5965,5.6371,5.6433,5.6659,5.7429,5.7169,5.716,5.748,5.7169,5.6822,5.6449,5.5721,5.489,5.3876,5.3122,5.2108,5.0855,5.0532,4.88,0.0,0.0,0.0,0.0,0.0,0.0,0.0,0.0,0.0,0.0,0.0,0.0,0.0,0.0,0.0,0.0,0.0,0.0,0.0,0.0,0.0,0.0,0.0,0.0,0.0,0.0,0.0,4.2545,4.3565,0.0,0.0,0.0,0.0,4.5102,4.4728,4.5204,4.6798,4.6391,4.6885,4.8548,4.8652,4.8902,4.941,4.9488,4.9836,5.0457,5.0483,5.0769,5.1239,5.1719,5.1979,5.2005,5.2629,5.2551,5.1849,5.0136,4.9135,4.8652,4.8626,4.8226,4.7713,4.833,4.8574,4.8652,4.9239,4.9436,4.9332,4.8886,4.8242,4.7833,4.8372,4.8528,0.0,0.0,4.9021,4.9566,5.0238,5.0457,5.0587,5.1121,5.1628,5.2005,5.1979,5.2005,5.1719,5.0627,5.1175,5.1681,5.1188,0.0,5.2536,5.1966,5.3432,5.4604,5.4656,5.5602,5.627,5.6322,5.6322,5.6322,5.6322,5.6296,5.5887,5.4868,5.4671,5.3891,5.2161,5.1914,5.0803,4.8598,4.8408,0.0,0.0,0.0,0.0,0.0,0.0,0.0,0.0,0.0,0.0,0.0,0.0,0.0,0.0,0.0,0.0,0.0,0.0,0.0,0.0,0.0,0.0,0.0,0.0,0.0,0.0,3.8075,3.9169,3.9526,4.0202,4.0561,0.0,0.0,0.0,0.0,0.0,0.0,4.4401,4.4331,4.485,4.614,4.6677,4.7171,4.7681,4.8538,4.9068,4.9224,4.9603,4.9888,5.0044,5.0136,5.0214,5.0214,5.0408,5.0382,5.0122,4.8372,4.7369,4.6859,4.6382,4.5863,4.5378,4.5542,4.562,4.5828,4.7188,4.7707,4.7681,4.7525,4.705,4.6301,4.5201,0.0,0.0,0.0,0.0,4.7196,4.8818,4.9224,4.938,4.9888,5.046,5.0809,5.033,5.0901,5.0904,4.8768,4.8273,4.8089,4.775,4.8026,0.0,4.9094,5.0402,5.1673,5.2557,5.3745,5.4808,5.569,5.5794,5.5794,5.5794,5.5462,5.489,5.4136,5.2915,5.2148,5.2109,4.957,4.8134,4.8024,0.0,0.0,0.0,0.0,0.0,0.0,0.0,0.0,0.0,0.0,0.0,0.0,0.0,0.0,0.0,0.0,0.0,0.0,0.0,0.0,0.0,0.0,0.0,0.0,0.0,0.0,0.0,3.6334,3.7817,3.8101,3.8617,3.8848,0.0,0.0,0.0,0.0,0.0,0.0,0.0,0.0,0.0,4.4142,4.4746,4.5214,4.5491,4.6668,4.7265,4.7265,4.8096,4.8486,4.845,4.8709,4.8813,4.8813,4.8813,4.8398,4.7593,4.6408,4.5456,4.465,0.0,0.0,0.0,0.0,4.3415,4.3532,4.4444,4.4756,4.4688,4.4417,0.0,0.0,0.0,0.0,0.0,0.0,0.0,4.5866,4.7258,4.8175,4.886,4.9161,4.925,4.9257,4.9254,4.7367,4.5697,4.5733,4.4644,4.4027,4.5132,4.4972,0.0,0.0,0.0,4.9838,4.8942,5.1543,5.385,5.4745,5.4615,5.4563,5.4823,5.411,5.3382,5.2771,5.1641,5.0735,5.0148,4.6868,4.5024,0.0,0.0,0.0,0.0,0.0,0.0,0.0,0.0,0.0,0.0,0.0,0.0,0.0,0.0,0.0,0.0,0.0,0.0,0.0,0.0,0.0,0.0,0.0,0.0,0.0,0.0,0.0,0.0,0.0,3.7089,3.7219,0.0,0.0,0.0,0.0,0.0,0.0,0.0,0.0,0.0,0.0,0.0,0.0,0.0,4.3104,4.3104,4.435,4.4972,4.4972,4.6097,4.659,4.6616,4.7152,4.7438,4.748,4.7246,0.0,4.5128,4.4442,0.0,0.0,0.0,0.0,0.0,0.0,0.0,0.0,0.0,0.0,0.0,0.0,0.0,0.0,0.0,0.0,0.0,0.0,0.0,0.0,0.0,0.0,4.7999,4.7906,4.7213,4.6745,4.7154,4.2458,3.8998,4.175,4.0623,3.984,0.0,0.0,0.0,0.0,0.0,0.0,4.4167,4.8663,5.2144,5.2158,5.2295,5.2537,5.2831,5.2313,5.1681,5.0994,5.0019,4.8751,4.6988,4.3894,0.0,0.0,0.0,0.0,0.0,0.0,0.0,0.0,0.0,0.0,0.0,0.0,0.0,0.0,0.0,0.0,0.0,0.0,0.0,0.0,0.0,0.0,0.0,0.0,0.0,0.0,0.0,0.0,0.0,0.0,0.0,0.0,0.0,0.0,0.0,0.0,0.0,0.0,0.0,0.0,0.0,0.0,0.0,0.0,0.0,0.0,0.0,0.0,0.0,0.0,4.3863,4.4142,4.4168,4.4806,4.5318,4.5673,4.4253,4.4026,4.4553,4.3019,0.0,0.0,0.0,0.0,0.0,0.0,0.0,0.0,0.0,0.0,0.0,0.0,0.0,0.0,0.0,0.0,0.0,0.0,0.0,0.0,0.0,0.0,4.3941,4.3201,4.2156,4.095,3.9474,0.0,0.0,0.0,0.0,0.0,0.0,0.0,0.0,0.0,0.0,0.0,3.7771,4.3283,4.6348,4.3408,4.6586,4.8535,4.7666,4.9939,5.0738,4.9004,4.5891,4.3816,0.0,0.0,0.0,0.0,0.0,0.0,0.0,0.0,0.0,0.0,0.0,0.0,0.0,0.0,0.0,0.0,0.0,0.0,0.0,0.0,0.0,0.0,0.0,0.0,0.0,0.0,0.0,0.0,0.0,0.0,0.0,0.0,0.0,0.0,0.0,0.0,0.0,0.0,0.0,0.0,0.0,0.0,0.0,0.0,0.0,0.0,0.0,0.0,0.0,0.0,0.0,0.0,0.0,0.0,0.0,0.0,0.0,0.0,4.2383,4.1111,0.0,0.0,0.0,0.0,0.0,0.0,0.0,0.0,0.0,0.0,0.0,0.0,0.0,0.0,0.0,0.0,0.0,0.0,0.0,0.0,0.0,0.0,0.0,0.0,0.0,0.0,0.0,0.0,0.0,0.0,0.0,0.0,0.0,0.0,0.0,0.0,0.0,0.0,0.0,0.0,3.551,4.1936,4.6316,4.516,4.6583,4.7628,4.7677,4.8717,4.8102,4.5077,4.3147,0.0,0.0,0.0,0.0,0.0,0.0,0.0,0.0,0.0,0.0,0.0,0.0,0.0,0.0,0.0,0.0,0.0,0.0,0.0,0.0,0.0,0.0,0.0,0.0,0.0,0.0,0.0,0.0,0.0,0.0,0.0,0.0,0.0,0.0,0.0,0.0,0.0,0.0,0.0,0.0,0.0,0.0,0.0,0.0,0.0,0.0,0.0,0.0,0.0,0.0,0.0,0.0,0.0,0.0,0.0,0.0,0.0,0.0,0.0,3.966,3.7781,0.0,0.0,0.0,0.0,0.0,0.0,0.0,0.0,0.0,0.0,0.0,0.0,0.0,0.0,0.0,0.0,0.0,0.0,0.0,0.0,0.0,0.0,0.0,0.0,0.0,0.0,0.0,0.0,0.0,0.0,0.0,0.0,0.0,0.0,0.0,0.0,0.0,0.0,0.0,0.0,3.2552,3.904,4.4005,4.4168,4.4189,4.4498,4.5271,4.5973,4.4529,4.0249,3.9978,0.0,0.0,0.0,0.0,0.0,0.0,0.0,0.0,0.0,0.0,0.0,0.0,0.0,0.0,0.0,0.0,0.0,0.0,0.0,0.0,0.0,0.0,0.0,0.0,0.0,0.0,0.0,0.0,0.0,0.0,0.0,0.0,0.0,0.0,0.0,0.0,0.0,0.0,0.0,0.0,0.0,0.0,0.0,0.0,0.0,0.0,0.0,0.0,0.0,0.0,0.0,0.0,0.0,0.0,0.0,0.0,0.0,0.0,0.0,0.0,0.0,0.0,0.0,0.0,0.0,0.0,0.0,0.0,0.0,0.0,0.0,0.0,0.0,0.0,0.0,0.0,0.0,0.0,0.0,0.0,0.0,0.0,0.0,0.0,0.0,0.0,0.0,0.0,0.0,0.0,0.0,0.0,0.0,0.0,0.0,0.0,0.0,0.0,0.0,0.0,0.0,2.4981,2.9659,3.2083,2.8875,3.1935,3.4005,3.3529,3.8795,4.003,3.5028,0.0,0.0,0.0,0.0,0.0,0.0,0.0,0.0,0.0,0.0,0.0,0.0,0.0,0.0,0.0,0.0,0.0,0.0,0.0,0.0,0.0,0.0,0.0,0.0,0.0,0.0,0.0,0.0,0.0,0.0,0.0,0.0,0.0,0.0,0.0,0.0,0.0,0.0,0.0,0.0,0.0,0.0,0.0,0.0,0.0,0.0,0.0,0.0,0.0,0.0,0.0,0.0,0.0,0.0,0.0,0.0,0.0,0.0,0.0,0.0,0.0,0.0,0.0,0.0,0.0,0.0,0.0,0.0,0.0,0.0,0.0,0.0,0.0,0.0,0.0,0.0,0.0,0.0,0.0,0.0,0.0,0.0,0.0,0.0,0.0,0.0,0.0,0.0,0.0,0.0,0.0,0.0,0.0,0.0,0.0,0.0,0.0,0.0,0.0,0.0,0.0,0.0,2.6069,3.0049,3.2613,3.1479,3.2597,3.3432,3.3522,3.605,3.5615,3.0819,0.0,0.0,0.0,0.0,0.0,0.0,0.0,0.0,0.0,0.0,0.0,0.0,0.0,0.0,0.0,0.0,0.0,0.0,0.0,0.0,0.0,0.0,0.0,0.0,0.0,0.0,0.0,0.0,0.0,0.0,0.0,0.0,0.0,0.0,0.0,0.0,0.0,0.0,0.0,0.0,0.0,0.0,0.0,0.0,0.0,0.0,0.0,0.0,0.0,0.0,0.0,0.0,0.0,0.0,0.0,0.0,0.0,0.0,0.0,0.0,0.0,0.0,0.0,0.0,0.0,0.0,0.0,0.0,0.0,0.0,0.0,0.0,0.0,0.0,0.0,0.0,0.0,0.0,0.0,0.0,0.0,0.0,0.0,0.0,0.0,0.0,0.0,0.0,0.0,0.0,0.0,0.0,0.0,0.0,0.0,0.0,0.0,0.0,0.0,0.0,0.0,0.0,2.5869,2.889,3.1142,3.1508,3.123,3.1142,3.1525,3.2503,3.1195,2.6705,0.0,0.0,0.0,0.0,0.0,0.0,0.0,0.0,0.0,0.0,0.0,0.0,0.0,0.0,0.0,0.0,0.0,0.0,0.0,0.0,0.0,0.0,0.0,0.0,0.0,0.0,0.0,0.0,0.0,0.0,0.0,0.0,0.0,0.0,0.0,0.0,0.0,0.0,0.0,0.0,0.0,0.0,0.0,0.0,0.0,0.0,0.0,0.0,0.0,0.0,0.0,0.0,0.0,0.0,0.0,0.0,0.0,0.0,0.0,0.0,0.0,0.0,0.0,0.0,0.0,0.0,0.0,0.0,0.0,0.0,0.0,0.0,0.0,0.0,0.0,0.0,0.0,0.0,0.0,0.0,0.0,0.0,0.0,0.0,0.0,0.0,0.0,0.0,0.0,0.0,0.0,0.0,0.0,0.0,0.0,0.0,0.0,0.0,0.0,0.0,0.0,0.0,2.226,2.3513,2.4413,2.4413,2.4413,2.4413,2.4413,2.7027,2.6789,0.0,0.0,0.0,0.0,0.0,0.0,0.0,0.0,0.0,0.0,0.0,0.0,0.0,0.0,0.0,0.0,0.0,0.0,0.0,0.0,0.0,0.0,0.0,0.0,0.0,0.0,0.0,0.0,0.0,0.0,0.0,0.0,0.0,0.0,0.0,0.0,0.0,0.0,0.0,0.0,0.0,0.0,0.0,0.0,0.0,0.0,0.0,0.0,0.0,0.0,0.0,0.0,0.0,0.0,0.0,0.0,0.0,0.0,0.0,0.0,0.0,0.0,0.0,0.0,0.0,0.0,0.0,0.0,0.0,0.0,0.0,0.0,0.0,0.0,0.0,0.0,0.0,0.0,0.0,0.0,0.0,0.0,0.0,0.0,0.0,0.0,0.0,0.0,0.0,0.0,0.0,0.0,0.0,0.0,0.0,0.0,0.0,0.0,0.0,0.0,0.0,0.0,0.0,2.1916,2.3013,2.3836,2.3997,2.4182,2.4221,2.4037,2.4856,2.4401,2.2029,0.0,0.0,0.0,0.0,0.0,0.0,0.0,0.0,0.0,0.0,0.0,0.0,0.0,0.0,0.0,0.0,0.0,0.0,0.0,0.0,0.0,0.0,0.0,0.0,0.0,0.0,0.0,0.0,0.0,0.0,0.0,0.0,0.0,0.0,0.0,0.0,0.0,0.0,0.0,0.0,0.0,0.0,0.0,0.0,0.0,0.0,0.0,0.0,0.0,0.0,0.0,0.0,0.0,0.0,0.0,0.0,0.0,0.0,0.0,0.0,0.0,0.0,0.0,0.0,0.0,0.0,0.0,0.0,0.0,0.0,0.0,0.0,0.0,0.0,0.0,0.0,0.0,0.0,0.0,0.0,0.0,0.0,0.0,0.0,0.0,0.0,0.0,0.0,0.0,0.0,0.0,0.0,0.0,0.0,0.0,0.0,0.0,0.0,0.0,0.0,0.0,0.0,0.0,2.2789,2.3595,2.3744,2.3916,2.3942,2.377,2.3615,2.2982,2.1624,0.0,0.0,0.0,0.0,0.0,0.0,0.0,0.0,0.0,0.0,0.0,0.0,0.0,0.0,0.0,0.0,0.0,0.0,0.0,0.0,0.0,0.0,0.0,0.0,0.0,0.0,0.0,0.0,0.0,0.0,0.0,0.0,0.0,0.0,0.0,0.0,0.0,0.0,0.0,0.0,0.0,0.0,0.0,0.0,0.0,0.0,0.0,0.0,0.0,0.0,0.0,0.0,0.0,0.0,0.0,0.0,0.0,0.0,0.0,0.0,0.0,0.0,0.0,0.0,0.0,0.0,0.0,0.0,0.0,0.0,0.0,0.0,0.0,0.0,0.0,0.0,0.0,0.0,0.0,0.0,0.0,0.0,0.0,0.0,0.0,0.0,0.0,0.0,0.0,0.0,0.0,0.0,0.0,0.0,0.0,0.0,0.0,0.0,0.0,0.0,0.0,0.0,0.0,2.2722,2.345,2.349,2.3503,2.3516,2.349,2.314,2.2411,2.1222,2.0887,0.0,0.0,0.0,0.0,0.0,0.0,0.0,0.0,0.0,0.0,0.0,0.0,0.0,0.0,0.0,0.0,0.0,0.0,0.0,0.0,0.0,0.0,0.0,0.0,0.0,0.0,0.0,0.0,0.0,0.0,0.0,0.0,0.0,0.0,0.0,0.0,0.0,0.0,0.0,0.0,0.0,0.0,0.0,0.0,0.0,0.0,0.0,0.0,0.0,0.0,0.0,0.0,0.0,0.0,0.0,0.0,0.0,0.0,0.0,0.0,0.0,0.0,0.0,0.0,0.0,0.0,0.0,0.0,0.0,0.0,0.0,0.0,0.0,0.0,0.0,0.0,0.0,0.0,0.0,0.0,0.0,0.0,0.0,0.0,0.0,0.0,0.0,0.0,0.0,0.0,0.0,0.0,0.0,0.0,0.0,0.0,0.0,0.0,0.0,0.0,0.0,0.0,2.2006,2.2613,2.3025,2.3348,2.3387,2.3091,2.2802,2.2157,2.0985,2.0464,0.0,0.0,0.0,0.0,0.0,0.0,0.0,0.0,0.0,0.0,0.0,0.0,0.0,0.0,0.0,0.0,0.0,0.0,0.0,0.0,0.0,0.0,0.0,0.0,0.0,0.0,0.0,0.0,0.0,0.0,0.0,0.0,0.0,0.0,0.0,0.0,0.0,0.0,0.0,0.0,0.0,0.0,0.0,0.0,0.0,0.0,0.0,0.0,0.0,0.0,0.0,0.0,0.0,0.0,0.0,0.0,0.0,0.0,0.0,0.0,0.0,0.0,0.0,0.0,0.0,0.0,0.0,0.0,0.0,0.0,0.0,0.0,0.0,0.0,0.0,0.0,0.0,0.0,0.0,0.0,0.0,0.0,0.0,0.0,0.0,0.0,0.0,0.0,0.0,0.0,0.0,0.0,0.0,0.0,0.0,0.0,0.0,0.0,0.0,0.0,0.0,0.0,2.115,2.1985,2.2696,2.2956,2.2929,2.2591,2.2433,2.1888,2.0714,1.9963,0.0,0.0,0.0,0.0,0.0,0.0,0.0,0.0,0.0,0.0,0.0,0.0,0.0,0.0,0.0,0.0,0.0,0.0,0.0,0.0,0.0,0.0,0.0,0.0,0.0,0.0,0.0,0.0,0.0,0.0,0.0,0.0,0.0,0.0,0.0,0.0,0.0,0.0,0.0,0.0,0.0,0.0,0.0,0.0,0.0,0.0,0.0,0.0,0.0,0.0,0.0,0.0,0.0,0.0,0.0,0.0,0.0,0.0,0.0,0.0,0.0,0.0,0.0,0.0,0.0,0.0,0.0,0.0,0.0,0.0,0.0,0.0,0.0,0.0,0.0,0.0,0.0,0.0,0.0,0.0,0.0,0.0,0.0,0.0,0.0,0.0,0.0,0.0,0.0,0.0,0.0,0.0,0.0,0.0,0.0,0.0,0.0,0.0,0.0,0.0,0.0,0.0,0.0,2.1426,2.2209,2.2367,2.2349,2.2133,2.2033,2.1545,2.0464,0.0,0.0,0.0,0.0,0.0,0.0,0.0,0.0,0.0,0.0,0.0,0.0,0.0,0.0,0.0,0.0,0.0,0.0,0.0,0.0,0.0,0.0,0.0,0.0,0.0,0.0,0.0,0.0,0.0,0.0,0.0,0.0,0.0,0.0,0.0,0.0,0.0,0.0,0.0,0.0,0.0,0.0,0.0,0.0,0.0,0.0,0.0,0.0,0.0,0.0,0.0,0.0,0.0,0.0,0.0,0.0,0.0,0.0,0.0,0.0,0.0,0.0,0.0,0.0,0.0,0.0,0.0,0.0,0.0,0.0,0.0,0.0,0.0,0.0,0.0,0.0,0.0,0.0,0.0,0.0,0.0,0.0,0.0,0.0,0.0,0.0,0.0,0.0,0.0,0.0,0.0,0.0,0.0,0.0,0.0,0.0,0.0,0.0,0.0,0.0,0.0,0.0,0.0,0.0,2.0919,2.1064,2.1545,2.1855,2.1836,2.1511,2.1058,2.0437,0.0,0.0,0.0,0.0,0.0,0.0,0.0,0.0,0.0,0.0,0.0,0.0,0.0,0.0]}]]]